<?xml version="1.0" encoding="UTF-8" standalone="no" ?>
<gpx xmlns="http://www.topografix.com/GPX/1/1" xmlns:xsi="http://www.w3.org/2001/XMLSchema-instance" xsi:schemaLocation="http://www.topografix.com/GPX/1/1 http://www.topografix.com/GPX/1/1/gpx.xsd" version="1.1" creator="VisuGPX - https://www.visugpx.com">
  <metadata>
    <name>RoadTrip Moto Ecosse Juin 2021</name>
  </metadata>
  <trk>
    <name><![CDATA[J 09 - Borgie Lodge Hotel, Skerray, Tongue, Lairg]]></name>
    <trkseg>
      <trkpt lat="58.38787" lon="-4.21103">
        <ele>47.38</ele>
        <time>2021-03-20T14:15:44Z</time>
      </trkpt>
      <trkpt lat="58.38801" lon="-4.21074">
        <ele>48.31</ele>
        <time>2021-03-20T14:15:46Z</time>
      </trkpt>
      <trkpt lat="58.38809" lon="-4.21036">
        <ele>47.61</ele>
        <time>2021-03-20T14:15:49Z</time>
      </trkpt>
      <trkpt lat="58.38813" lon="-4.21006">
        <ele>46.99</ele>
        <time>2021-03-20T14:15:52Z</time>
      </trkpt>
      <trkpt lat="58.38822" lon="-4.20985">
        <ele>47.19</ele>
        <time>2021-03-20T14:15:55Z</time>
      </trkpt>
      <trkpt lat="58.38877" lon="-4.20925">
        <ele>46.85</ele>
        <time>2021-03-20T14:15:57Z</time>
      </trkpt>
      <trkpt lat="58.38903" lon="-4.20885">
        <ele>45.51</ele>
        <time>2021-03-20T14:16:00Z</time>
      </trkpt>
      <trkpt lat="58.38933" lon="-4.20819">
        <ele>45.6</ele>
        <time>2021-03-20T14:16:03Z</time>
      </trkpt>
      <trkpt lat="58.39037" lon="-4.20546">
        <ele>47.56</ele>
        <time>2021-03-20T14:16:05Z</time>
      </trkpt>
      <trkpt lat="58.39096" lon="-4.20455">
        <ele>46.36</ele>
        <time>2021-03-20T14:16:08Z</time>
      </trkpt>
      <trkpt lat="58.3916" lon="-4.20383">
        <ele>43.79</ele>
        <time>2021-03-20T14:16:11Z</time>
      </trkpt>
      <trkpt lat="58.39172" lon="-4.20374">
        <ele>43.25</ele>
        <time>2021-03-20T14:16:14Z</time>
      </trkpt>
      <trkpt lat="58.39187" lon="-4.20372">
        <ele>42.67</ele>
        <time>2021-03-20T14:16:16Z</time>
      </trkpt>
      <trkpt lat="58.39304" lon="-4.20442">
        <ele>40.85</ele>
        <time>2021-03-20T14:16:19Z</time>
      </trkpt>
      <trkpt lat="58.39322" lon="-4.20448">
        <ele>40.8</ele>
        <time>2021-03-20T14:16:22Z</time>
      </trkpt>
      <trkpt lat="58.39355" lon="-4.20452">
        <ele>40.6</ele>
        <time>2021-03-20T14:16:24Z</time>
      </trkpt>
      <trkpt lat="58.39392" lon="-4.20436">
        <ele>41.09</ele>
        <time>2021-03-20T14:16:27Z</time>
      </trkpt>
      <trkpt lat="58.39446" lon="-4.2039">
        <ele>42.14</ele>
        <time>2021-03-20T14:16:30Z</time>
      </trkpt>
      <trkpt lat="58.39469" lon="-4.20367">
        <ele>40.43</ele>
        <time>2021-03-20T14:16:33Z</time>
      </trkpt>
      <trkpt lat="58.39482" lon="-4.20349">
        <ele>38.88</ele>
        <time>2021-03-20T14:16:35Z</time>
      </trkpt>
      <trkpt lat="58.39547" lon="-4.20201">
        <ele>36.67</ele>
        <time>2021-03-20T14:16:38Z</time>
      </trkpt>
      <trkpt lat="58.39556" lon="-4.20185">
        <ele>36.67</ele>
        <time>2021-03-20T14:16:41Z</time>
      </trkpt>
      <trkpt lat="58.39651" lon="-4.20097">
        <ele>36.42</ele>
        <time>2021-03-20T14:16:43Z</time>
      </trkpt>
      <trkpt lat="58.39728" lon="-4.19981">
        <ele>37.69</ele>
        <time>2021-03-20T14:16:46Z</time>
      </trkpt>
      <trkpt lat="58.39845" lon="-4.19859">
        <ele>34.33</ele>
        <time>2021-03-20T14:16:49Z</time>
      </trkpt>
      <trkpt lat="58.39949" lon="-4.19746">
        <ele>37.31</ele>
        <time>2021-03-20T14:16:52Z</time>
      </trkpt>
      <trkpt lat="58.40025" lon="-4.19643">
        <ele>39.94</ele>
        <time>2021-03-20T14:16:54Z</time>
      </trkpt>
      <trkpt lat="58.4006" lon="-4.19608">
        <ele>41.41</ele>
        <time>2021-03-20T14:16:57Z</time>
      </trkpt>
      <trkpt lat="58.40093" lon="-4.19582">
        <ele>43.99</ele>
        <time>2021-03-20T14:17:00Z</time>
      </trkpt>
      <trkpt lat="58.40103" lon="-4.1958">
        <ele>44.9</ele>
        <time>2021-03-20T14:17:02Z</time>
      </trkpt>
      <trkpt lat="58.4012" lon="-4.19569">
        <ele>46.03</ele>
        <time>2021-03-20T14:17:05Z</time>
      </trkpt>
      <trkpt lat="58.40133" lon="-4.19554">
        <ele>46.23</ele>
        <time>2021-03-20T14:17:08Z</time>
      </trkpt>
      <trkpt lat="58.40153" lon="-4.19508">
        <ele>45.13</ele>
        <time>2021-03-20T14:17:11Z</time>
      </trkpt>
      <trkpt lat="58.4018" lon="-4.19461">
        <ele>44.1</ele>
        <time>2021-03-20T14:17:13Z</time>
      </trkpt>
      <trkpt lat="58.40255" lon="-4.19344">
        <ele>43.68</ele>
        <time>2021-03-20T14:17:16Z</time>
      </trkpt>
      <trkpt lat="58.40397" lon="-4.19198">
        <ele>43.03</ele>
        <time>2021-03-20T14:17:19Z</time>
      </trkpt>
      <trkpt lat="58.40411" lon="-4.19194">
        <ele>42.98</ele>
        <time>2021-03-20T14:17:21Z</time>
      </trkpt>
      <trkpt lat="58.40433" lon="-4.19199">
        <ele>43.76</ele>
        <time>2021-03-20T14:17:24Z</time>
      </trkpt>
      <trkpt lat="58.40453" lon="-4.19196">
        <ele>44.06</ele>
        <time>2021-03-20T14:17:27Z</time>
      </trkpt>
      <trkpt lat="58.4053" lon="-4.19135">
        <ele>41.79</ele>
        <time>2021-03-20T14:17:29Z</time>
      </trkpt>
      <trkpt lat="58.40557" lon="-4.19123">
        <ele>40.39</ele>
        <time>2021-03-20T14:17:32Z</time>
      </trkpt>
      <trkpt lat="58.40579" lon="-4.19124">
        <ele>40.08</ele>
        <time>2021-03-20T14:17:35Z</time>
      </trkpt>
      <trkpt lat="58.40615" lon="-4.19139">
        <ele>40.27</ele>
        <time>2021-03-20T14:17:38Z</time>
      </trkpt>
      <trkpt lat="58.40666" lon="-4.1915">
        <ele>43.94</ele>
        <time>2021-03-20T14:17:40Z</time>
      </trkpt>
      <trkpt lat="58.40683" lon="-4.19152">
        <ele>45.44</ele>
        <time>2021-03-20T14:17:43Z</time>
      </trkpt>
      <trkpt lat="58.40701" lon="-4.19145">
        <ele>46.52</ele>
        <time>2021-03-20T14:17:46Z</time>
      </trkpt>
      <trkpt lat="58.40755" lon="-4.19096">
        <ele>44.53</ele>
        <time>2021-03-20T14:17:48Z</time>
      </trkpt>
      <trkpt lat="58.40856" lon="-4.19024">
        <ele>43.23</ele>
        <time>2021-03-20T14:17:51Z</time>
      </trkpt>
      <trkpt lat="58.40877" lon="-4.19005">
        <ele>42.24</ele>
        <time>2021-03-20T14:17:54Z</time>
      </trkpt>
      <trkpt lat="58.40898" lon="-4.18982">
        <ele>41.13</ele>
        <time>2021-03-20T14:17:57Z</time>
      </trkpt>
      <trkpt lat="58.40951" lon="-4.18914">
        <ele>38.31</ele>
        <time>2021-03-20T14:17:59Z</time>
      </trkpt>
      <trkpt lat="58.41017" lon="-4.1885">
        <ele>37.72</ele>
        <time>2021-03-20T14:18:02Z</time>
      </trkpt>
      <trkpt lat="58.41062" lon="-4.18825">
        <ele>39.79</ele>
        <time>2021-03-20T14:18:05Z</time>
      </trkpt>
      <trkpt lat="58.41095" lon="-4.18815">
        <ele>40.41</ele>
        <time>2021-03-20T14:18:07Z</time>
      </trkpt>
      <trkpt lat="58.41123" lon="-4.18803">
        <ele>40.44</ele>
        <time>2021-03-20T14:18:10Z</time>
      </trkpt>
      <trkpt lat="58.41148" lon="-4.18787">
        <ele>39.81</ele>
        <time>2021-03-20T14:18:13Z</time>
      </trkpt>
      <trkpt lat="58.41171" lon="-4.18779">
        <ele>40.28</ele>
        <time>2021-03-20T14:18:16Z</time>
      </trkpt>
      <trkpt lat="58.41233" lon="-4.18779">
        <ele>42.46</ele>
        <time>2021-03-20T14:18:18Z</time>
      </trkpt>
      <trkpt lat="58.41253" lon="-4.18773">
        <ele>42.73</ele>
        <time>2021-03-20T14:18:21Z</time>
      </trkpt>
      <trkpt lat="58.41267" lon="-4.1876">
        <ele>42.36</ele>
        <time>2021-03-20T14:18:24Z</time>
      </trkpt>
      <trkpt lat="58.41321" lon="-4.18678">
        <ele>36.22</ele>
        <time>2021-03-20T14:18:26Z</time>
      </trkpt>
      <trkpt lat="58.41336" lon="-4.18662">
        <ele>34.84</ele>
        <time>2021-03-20T14:18:29Z</time>
      </trkpt>
      <trkpt lat="58.41389" lon="-4.18625">
        <ele>33.97</ele>
        <time>2021-03-20T14:18:32Z</time>
      </trkpt>
      <trkpt lat="58.41465" lon="-4.18577">
        <ele>33.27</ele>
        <time>2021-03-20T14:18:35Z</time>
      </trkpt>
      <trkpt lat="58.41549" lon="-4.18562">
        <ele>32.67</ele>
        <time>2021-03-20T14:18:37Z</time>
      </trkpt>
      <trkpt lat="58.41645" lon="-4.18553">
        <ele>29.79</ele>
        <time>2021-03-20T14:18:40Z</time>
      </trkpt>
      <trkpt lat="58.41762" lon="-4.18576">
        <ele>31.74</ele>
        <time>2021-03-20T14:18:43Z</time>
      </trkpt>
      <trkpt lat="58.41827" lon="-4.18587">
        <ele>32.22</ele>
        <time>2021-03-20T14:18:45Z</time>
      </trkpt>
      <trkpt lat="58.4186" lon="-4.18589">
        <ele>32.38</ele>
        <time>2021-03-20T14:18:48Z</time>
      </trkpt>
      <trkpt lat="58.41879" lon="-4.18586">
        <ele>33.45</ele>
        <time>2021-03-20T14:18:51Z</time>
      </trkpt>
      <trkpt lat="58.41904" lon="-4.18573">
        <ele>33.6</ele>
        <time>2021-03-20T14:18:54Z</time>
      </trkpt>
      <trkpt lat="58.41922" lon="-4.18552">
        <ele>33.04</ele>
        <time>2021-03-20T14:18:56Z</time>
      </trkpt>
      <trkpt lat="58.41941" lon="-4.18536">
        <ele>32.56</ele>
        <time>2021-03-20T14:18:59Z</time>
      </trkpt>
      <trkpt lat="58.41951" lon="-4.18535">
        <ele>32.46</ele>
        <time>2021-03-20T14:19:02Z</time>
      </trkpt>
      <trkpt lat="58.41975" lon="-4.18546">
        <ele>32.46</ele>
        <time>2021-03-20T14:19:04Z</time>
      </trkpt>
      <trkpt lat="58.42052" lon="-4.18608">
        <ele>33.03</ele>
        <time>2021-03-20T14:19:07Z</time>
      </trkpt>
      <trkpt lat="58.4207" lon="-4.18629">
        <ele>33.2</ele>
        <time>2021-03-20T14:19:10Z</time>
      </trkpt>
      <trkpt lat="58.42087" lon="-4.18652">
        <ele>33.21</ele>
        <time>2021-03-20T14:19:13Z</time>
      </trkpt>
      <trkpt lat="58.42173" lon="-4.18828">
        <ele>39.64</ele>
        <time>2021-03-20T14:19:15Z</time>
      </trkpt>
      <trkpt lat="58.42197" lon="-4.18871">
        <ele>42.29</ele>
        <time>2021-03-20T14:19:18Z</time>
      </trkpt>
      <trkpt lat="58.42228" lon="-4.18902">
        <ele>43.47</ele>
        <time>2021-03-20T14:19:21Z</time>
      </trkpt>
      <trkpt lat="58.42261" lon="-4.18923">
        <ele>44.22</ele>
        <time>2021-03-20T14:19:23Z</time>
      </trkpt>
      <trkpt lat="58.42292" lon="-4.18931">
        <ele>44</ele>
        <time>2021-03-20T14:19:26Z</time>
      </trkpt>
      <trkpt lat="58.42323" lon="-4.18931">
        <ele>43.51</ele>
        <time>2021-03-20T14:19:29Z</time>
      </trkpt>
      <trkpt lat="58.42395" lon="-4.18902">
        <ele>40.7</ele>
        <time>2021-03-20T14:19:31Z</time>
      </trkpt>
      <trkpt lat="58.42437" lon="-4.18883">
        <ele>39.55</ele>
        <time>2021-03-20T14:19:34Z</time>
      </trkpt>
      <trkpt lat="58.42469" lon="-4.18874">
        <ele>37.61</ele>
        <time>2021-03-20T14:19:37Z</time>
      </trkpt>
      <trkpt lat="58.4249" lon="-4.18881">
        <ele>36.88</ele>
        <time>2021-03-20T14:19:40Z</time>
      </trkpt>
      <trkpt lat="58.42521" lon="-4.18907">
        <ele>38.41</ele>
        <time>2021-03-20T14:19:42Z</time>
      </trkpt>
      <trkpt lat="58.42548" lon="-4.18918">
        <ele>39.05</ele>
        <time>2021-03-20T14:19:45Z</time>
      </trkpt>
      <trkpt lat="58.42643" lon="-4.18931">
        <ele>35.83</ele>
        <time>2021-03-20T14:19:48Z</time>
      </trkpt>
      <trkpt lat="58.42662" lon="-4.1894">
        <ele>35.68</ele>
        <time>2021-03-20T14:19:50Z</time>
      </trkpt>
      <trkpt lat="58.42712" lon="-4.18977">
        <ele>37.07</ele>
        <time>2021-03-20T14:19:53Z</time>
      </trkpt>
      <trkpt lat="58.42761" lon="-4.19006">
        <ele>35.97</ele>
        <time>2021-03-20T14:19:56Z</time>
      </trkpt>
      <trkpt lat="58.42793" lon="-4.19017">
        <ele>34.85</ele>
        <time>2021-03-20T14:19:59Z</time>
      </trkpt>
      <trkpt lat="58.42816" lon="-4.1902">
        <ele>33.78</ele>
        <time>2021-03-20T14:20:01Z</time>
      </trkpt>
      <trkpt lat="58.42899" lon="-4.19015">
        <ele>27.56</ele>
        <time>2021-03-20T14:20:04Z</time>
      </trkpt>
      <trkpt lat="58.42954" lon="-4.19009">
        <ele>29.01</ele>
        <time>2021-03-20T14:20:07Z</time>
      </trkpt>
      <trkpt lat="58.43032" lon="-4.18993">
        <ele>30.39</ele>
        <time>2021-03-20T14:20:09Z</time>
      </trkpt>
      <trkpt lat="58.4305" lon="-4.18997">
        <ele>30</ele>
        <time>2021-03-20T14:20:12Z</time>
      </trkpt>
      <trkpt lat="58.4308" lon="-4.19018">
        <ele>30.43</ele>
        <time>2021-03-20T14:20:15Z</time>
      </trkpt>
      <trkpt lat="58.43097" lon="-4.19024">
        <ele>30.23</ele>
        <time>2021-03-20T14:20:18Z</time>
      </trkpt>
      <trkpt lat="58.43166" lon="-4.19008">
        <ele>26.31</ele>
        <time>2021-03-20T14:20:20Z</time>
      </trkpt>
      <trkpt lat="58.43225" lon="-4.19003">
        <ele>26.01</ele>
        <time>2021-03-20T14:20:23Z</time>
      </trkpt>
      <trkpt lat="58.43352" lon="-4.18998">
        <ele>27.94</ele>
        <time>2021-03-20T14:20:26Z</time>
      </trkpt>
      <trkpt lat="58.43541" lon="-4.18948">
        <ele>26.13</ele>
        <time>2021-03-20T14:20:28Z</time>
      </trkpt>
      <trkpt lat="58.43699" lon="-4.18961">
        <ele>24.61</ele>
        <time>2021-03-20T14:20:31Z</time>
      </trkpt>
      <trkpt lat="58.43867" lon="-4.18963">
        <ele>29.54</ele>
        <time>2021-03-20T14:20:34Z</time>
      </trkpt>
      <trkpt lat="58.43933" lon="-4.18962">
        <ele>28.01</ele>
        <time>2021-03-20T14:20:37Z</time>
      </trkpt>
      <trkpt lat="58.43961" lon="-4.18958">
        <ele>27.46</ele>
        <time>2021-03-20T14:20:39Z</time>
      </trkpt>
      <trkpt lat="58.4399" lon="-4.18947">
        <ele>26.56</ele>
        <time>2021-03-20T14:20:42Z</time>
      </trkpt>
      <trkpt lat="58.44031" lon="-4.18942">
        <ele>23.88</ele>
        <time>2021-03-20T14:20:45Z</time>
      </trkpt>
      <trkpt lat="58.44201" lon="-4.18945">
        <ele>30.23</ele>
        <time>2021-03-20T14:20:47Z</time>
      </trkpt>
      <trkpt lat="58.44241" lon="-4.18953">
        <ele>31.11</ele>
        <time>2021-03-20T14:20:50Z</time>
      </trkpt>
      <trkpt lat="58.44279" lon="-4.18971">
        <ele>31.72</ele>
        <time>2021-03-20T14:20:53Z</time>
      </trkpt>
      <trkpt lat="58.44356" lon="-4.19046">
        <ele>30.12</ele>
        <time>2021-03-20T14:20:56Z</time>
      </trkpt>
      <trkpt lat="58.44384" lon="-4.19067">
        <ele>29.57</ele>
        <time>2021-03-20T14:20:58Z</time>
      </trkpt>
      <trkpt lat="58.44419" lon="-4.19075">
        <ele>28.05</ele>
        <time>2021-03-20T14:21:01Z</time>
      </trkpt>
      <trkpt lat="58.44471" lon="-4.19069">
        <ele>29.31</ele>
        <time>2021-03-20T14:21:04Z</time>
      </trkpt>
      <trkpt lat="58.44524" lon="-4.19058">
        <ele>30.09</ele>
        <time>2021-03-20T14:21:06Z</time>
      </trkpt>
      <trkpt lat="58.4468" lon="-4.19044">
        <ele>27.74</ele>
        <time>2021-03-20T14:21:09Z</time>
      </trkpt>
      <trkpt lat="58.4493" lon="-4.19095">
        <ele>28.97</ele>
        <time>2021-03-20T14:21:12Z</time>
      </trkpt>
      <trkpt lat="58.45187" lon="-4.19054">
        <ele>24.18</ele>
        <time>2021-03-20T14:21:15Z</time>
      </trkpt>
      <trkpt lat="58.45211" lon="-4.19056">
        <ele>23.42</ele>
        <time>2021-03-20T14:21:17Z</time>
      </trkpt>
      <trkpt lat="58.45261" lon="-4.19079">
        <ele>24.12</ele>
        <time>2021-03-20T14:21:20Z</time>
      </trkpt>
      <trkpt lat="58.45282" lon="-4.19096">
        <ele>24.66</ele>
        <time>2021-03-20T14:21:23Z</time>
      </trkpt>
      <trkpt lat="58.45347" lon="-4.1917">
        <ele>26.06</ele>
        <time>2021-03-20T14:21:25Z</time>
      </trkpt>
      <trkpt lat="58.45439" lon="-4.19241">
        <ele>27.61</ele>
        <time>2021-03-20T14:21:28Z</time>
      </trkpt>
      <trkpt lat="58.45469" lon="-4.19259">
        <ele>26.95</ele>
        <time>2021-03-20T14:21:31Z</time>
      </trkpt>
      <trkpt lat="58.45649" lon="-4.19321">
        <ele>24.43</ele>
        <time>2021-03-20T14:21:33Z</time>
      </trkpt>
      <trkpt lat="58.45794" lon="-4.19324">
        <ele>24.98</ele>
        <time>2021-03-20T14:21:36Z</time>
      </trkpt>
      <trkpt lat="58.45905" lon="-4.19294">
        <ele>20.23</ele>
        <time>2021-03-20T14:21:39Z</time>
      </trkpt>
      <trkpt lat="58.45937" lon="-4.19298">
        <ele>18.9</ele>
        <time>2021-03-20T14:21:42Z</time>
      </trkpt>
      <trkpt lat="58.45973" lon="-4.19311">
        <ele>18.15</ele>
        <time>2021-03-20T14:21:44Z</time>
      </trkpt>
      <trkpt lat="58.46117" lon="-4.19415">
        <ele>21.67</ele>
        <time>2021-03-20T14:21:47Z</time>
      </trkpt>
      <trkpt lat="58.46137" lon="-4.19439">
        <ele>21.89</ele>
        <time>2021-03-20T14:21:50Z</time>
      </trkpt>
      <trkpt lat="58.46152" lon="-4.19478">
        <ele>22.74</ele>
        <time>2021-03-20T14:21:52Z</time>
      </trkpt>
      <trkpt lat="58.46162" lon="-4.19518">
        <ele>23.92</ele>
        <time>2021-03-20T14:21:55Z</time>
      </trkpt>
      <trkpt lat="58.46176" lon="-4.19544">
        <ele>24.35</ele>
        <time>2021-03-20T14:21:58Z</time>
      </trkpt>
      <trkpt lat="58.46358" lon="-4.19723">
        <ele>26.41</ele>
        <time>2021-03-20T14:22:01Z</time>
      </trkpt>
      <trkpt lat="58.46423" lon="-4.19801">
        <ele>27.67</ele>
        <time>2021-03-20T14:22:03Z</time>
      </trkpt>
      <trkpt lat="58.46447" lon="-4.19842">
        <ele>27.64</ele>
        <time>2021-03-20T14:22:06Z</time>
      </trkpt>
      <trkpt lat="58.46464" lon="-4.19854">
        <ele>27.18</ele>
        <time>2021-03-20T14:22:09Z</time>
      </trkpt>
      <trkpt lat="58.46478" lon="-4.19862">
        <ele>26.66</ele>
        <time>2021-03-20T14:22:11Z</time>
      </trkpt>
      <trkpt lat="58.46538" lon="-4.19868">
        <ele>24.35</ele>
        <time>2021-03-20T14:22:14Z</time>
      </trkpt>
      <trkpt lat="58.46572" lon="-4.1988">
        <ele>24.04</ele>
        <time>2021-03-20T14:22:17Z</time>
      </trkpt>
      <trkpt lat="58.46661" lon="-4.19924">
        <ele>20.53</ele>
        <time>2021-03-20T14:22:20Z</time>
      </trkpt>
      <trkpt lat="58.46694" lon="-4.19952">
        <ele>20.02</ele>
        <time>2021-03-20T14:22:22Z</time>
      </trkpt>
      <trkpt lat="58.46707" lon="-4.19954">
        <ele>19.5</ele>
        <time>2021-03-20T14:22:25Z</time>
      </trkpt>
      <trkpt lat="58.46745" lon="-4.19951">
        <ele>16.93</ele>
        <time>2021-03-20T14:22:28Z</time>
      </trkpt>
      <trkpt lat="58.46791" lon="-4.19955">
        <ele>16.17</ele>
        <time>2021-03-20T14:22:30Z</time>
      </trkpt>
      <trkpt lat="58.46897" lon="-4.20001">
        <ele>14.14</ele>
        <time>2021-03-20T14:22:33Z</time>
      </trkpt>
      <trkpt lat="58.46945" lon="-4.20025">
        <ele>15.9</ele>
        <time>2021-03-20T14:22:36Z</time>
      </trkpt>
      <trkpt lat="58.47036" lon="-4.20096">
        <ele>15.71</ele>
        <time>2021-03-20T14:22:39Z</time>
      </trkpt>
      <trkpt lat="58.47186" lon="-4.20196">
        <ele>13.61</ele>
        <time>2021-03-20T14:22:41Z</time>
      </trkpt>
      <trkpt lat="58.47201" lon="-4.20211">
        <ele>12.53</ele>
        <time>2021-03-20T14:22:44Z</time>
      </trkpt>
      <trkpt lat="58.47233" lon="-4.20264">
        <ele>13.06</ele>
        <time>2021-03-20T14:22:47Z</time>
      </trkpt>
      <trkpt lat="58.47263" lon="-4.20325">
        <ele>15.89</ele>
        <time>2021-03-20T14:22:49Z</time>
      </trkpt>
      <trkpt lat="58.47314" lon="-4.20402">
        <ele>20.09</ele>
        <time>2021-03-20T14:22:52Z</time>
      </trkpt>
      <trkpt lat="58.47363" lon="-4.20467">
        <ele>22.19</ele>
        <time>2021-03-20T14:22:55Z</time>
      </trkpt>
      <trkpt lat="58.47518" lon="-4.20641">
        <ele>22.82</ele>
        <time>2021-03-20T14:22:58Z</time>
      </trkpt>
      <trkpt lat="58.47655" lon="-4.20766">
        <ele>20.99</ele>
        <time>2021-03-20T14:23:00Z</time>
      </trkpt>
      <trkpt lat="58.47699" lon="-4.20801">
        <ele>21.38</ele>
        <time>2021-03-20T14:23:03Z</time>
      </trkpt>
      <trkpt lat="58.47745" lon="-4.20833">
        <ele>20.2</ele>
        <time>2021-03-20T14:23:06Z</time>
      </trkpt>
      <trkpt lat="58.4779" lon="-4.20853">
        <ele>19.69</ele>
        <time>2021-03-20T14:23:08Z</time>
      </trkpt>
      <trkpt lat="58.47836" lon="-4.20866">
        <ele>19.43</ele>
        <time>2021-03-20T14:23:11Z</time>
      </trkpt>
      <trkpt lat="58.47882" lon="-4.20867">
        <ele>21.18</ele>
        <time>2021-03-20T14:23:14Z</time>
      </trkpt>
      <trkpt lat="58.47971" lon="-4.20841">
        <ele>18.82</ele>
        <time>2021-03-20T14:23:16Z</time>
      </trkpt>
      <trkpt lat="58.48014" lon="-4.20836">
        <ele>19.79</ele>
        <time>2021-03-20T14:23:19Z</time>
      </trkpt>
      <trkpt lat="58.48066" lon="-4.20844">
        <ele>18.48</ele>
        <time>2021-03-20T14:23:22Z</time>
      </trkpt>
      <trkpt lat="58.48111" lon="-4.20857">
        <ele>16.46</ele>
        <time>2021-03-20T14:23:25Z</time>
      </trkpt>
      <trkpt lat="58.48216" lon="-4.20931">
        <ele>16</ele>
        <time>2021-03-20T14:23:27Z</time>
      </trkpt>
      <trkpt lat="58.48377" lon="-4.21019">
        <ele>12.22</ele>
        <time>2021-03-20T14:23:30Z</time>
      </trkpt>
      <trkpt lat="58.48476" lon="-4.21041">
        <ele>12.56</ele>
        <time>2021-03-20T14:23:33Z</time>
      </trkpt>
      <trkpt lat="58.48498" lon="-4.2105">
        <ele>12.98</ele>
        <time>2021-03-20T14:23:35Z</time>
      </trkpt>
      <trkpt lat="58.48614" lon="-4.21165">
        <ele>17.99</ele>
        <time>2021-03-20T14:23:38Z</time>
      </trkpt>
      <trkpt lat="58.48656" lon="-4.212">
        <ele>21.52</ele>
        <time>2021-03-20T14:23:41Z</time>
      </trkpt>
      <trkpt lat="58.48686" lon="-4.21217">
        <ele>22.84</ele>
        <time>2021-03-20T14:23:44Z</time>
      </trkpt>
      <trkpt lat="58.48704" lon="-4.21222">
        <ele>23.34</ele>
        <time>2021-03-20T14:23:46Z</time>
      </trkpt>
      <trkpt lat="58.48739" lon="-4.2122">
        <ele>23.84</ele>
        <time>2021-03-20T14:23:49Z</time>
      </trkpt>
      <trkpt lat="58.48755" lon="-4.21215">
        <ele>23.5</ele>
        <time>2021-03-20T14:23:52Z</time>
      </trkpt>
      <trkpt lat="58.48787" lon="-4.21197">
        <ele>22.15</ele>
        <time>2021-03-20T14:23:54Z</time>
      </trkpt>
      <trkpt lat="58.48799" lon="-4.21194">
        <ele>21.94</ele>
        <time>2021-03-20T14:23:57Z</time>
      </trkpt>
      <trkpt lat="58.48808" lon="-4.21202">
        <ele>22.13</ele>
        <time>2021-03-20T14:24:00Z</time>
      </trkpt>
      <trkpt lat="58.4881" lon="-4.21209">
        <ele>22.26</ele>
        <time>2021-03-20T14:24:03Z</time>
      </trkpt>
      <trkpt lat="58.48815" lon="-4.21239">
        <ele>24.89</ele>
        <time>2021-03-20T14:24:05Z</time>
      </trkpt>
      <trkpt lat="58.48851" lon="-4.21235">
        <ele>21.76</ele>
        <time>2021-03-20T14:24:09Z</time>
      </trkpt>
      <trkpt lat="58.4891" lon="-4.21243">
        <ele>19.58</ele>
        <time>2021-03-20T14:24:12Z</time>
      </trkpt>
      <trkpt lat="58.4895" lon="-4.21257">
        <ele>18.34</ele>
        <time>2021-03-20T14:24:16Z</time>
      </trkpt>
      <trkpt lat="58.49062" lon="-4.21311">
        <ele>22.96</ele>
        <time>2021-03-20T14:24:19Z</time>
      </trkpt>
      <trkpt lat="58.49098" lon="-4.21337">
        <ele>22.99</ele>
        <time>2021-03-20T14:24:23Z</time>
      </trkpt>
      <trkpt lat="58.49163" lon="-4.21412">
        <ele>24.69</ele>
        <time>2021-03-20T14:24:26Z</time>
      </trkpt>
      <trkpt lat="58.49181" lon="-4.2143">
        <ele>24.7</ele>
        <time>2021-03-20T14:24:29Z</time>
      </trkpt>
      <trkpt lat="58.49204" lon="-4.21449">
        <ele>23.74</ele>
        <time>2021-03-20T14:24:33Z</time>
      </trkpt>
      <trkpt lat="58.4929" lon="-4.21483">
        <ele>20.39</ele>
        <time>2021-03-20T14:24:36Z</time>
      </trkpt>
      <trkpt lat="58.49375" lon="-4.21511">
        <ele>16.66</ele>
        <time>2021-03-20T14:24:40Z</time>
      </trkpt>
      <trkpt lat="58.49397" lon="-4.21521">
        <ele>16.92</ele>
        <time>2021-03-20T14:24:43Z</time>
      </trkpt>
      <trkpt lat="58.4943" lon="-4.21539">
        <ele>17.53</ele>
        <time>2021-03-20T14:24:47Z</time>
      </trkpt>
      <trkpt lat="58.49469" lon="-4.21566">
        <ele>16.97</ele>
        <time>2021-03-20T14:24:50Z</time>
      </trkpt>
      <trkpt lat="58.49537" lon="-4.21618">
        <ele>18.45</ele>
        <time>2021-03-20T14:24:54Z</time>
      </trkpt>
      <trkpt lat="58.49593" lon="-4.21657">
        <ele>20</ele>
        <time>2021-03-20T14:24:57Z</time>
      </trkpt>
      <trkpt lat="58.4968" lon="-4.21706">
        <ele>25.69</ele>
        <time>2021-03-20T14:25:00Z</time>
      </trkpt>
      <trkpt lat="58.49776" lon="-4.21729">
        <ele>29</ele>
        <time>2021-03-20T14:25:04Z</time>
      </trkpt>
      <trkpt lat="58.49936" lon="-4.21736">
        <ele>28.79</ele>
        <time>2021-03-20T14:25:07Z</time>
      </trkpt>
      <trkpt lat="58.49997" lon="-4.21748">
        <ele>27.86</ele>
        <time>2021-03-20T14:25:11Z</time>
      </trkpt>
      <trkpt lat="58.50025" lon="-4.21745">
        <ele>26.64</ele>
        <time>2021-03-20T14:25:14Z</time>
      </trkpt>
      <trkpt lat="58.50122" lon="-4.21716">
        <ele>23.2</ele>
        <time>2021-03-20T14:25:18Z</time>
      </trkpt>
      <trkpt lat="58.50152" lon="-4.21717">
        <ele>22.03</ele>
        <time>2021-03-20T14:25:21Z</time>
      </trkpt>
      <trkpt lat="58.50227" lon="-4.21741">
        <ele>19.53</ele>
        <time>2021-03-20T14:25:25Z</time>
      </trkpt>
      <trkpt lat="58.50255" lon="-4.21757">
        <ele>20.26</ele>
        <time>2021-03-20T14:25:28Z</time>
      </trkpt>
      <trkpt lat="58.503" lon="-4.21796">
        <ele>20.06</ele>
        <time>2021-03-20T14:25:31Z</time>
      </trkpt>
      <trkpt lat="58.50339" lon="-4.21826">
        <ele>18.61</ele>
        <time>2021-03-20T14:25:35Z</time>
      </trkpt>
      <trkpt lat="58.50497" lon="-4.21897">
        <ele>16.58</ele>
        <time>2021-03-20T14:25:38Z</time>
      </trkpt>
      <trkpt lat="58.5059" lon="-4.21958">
        <ele>19</ele>
        <time>2021-03-20T14:25:42Z</time>
      </trkpt>
      <trkpt lat="58.50672" lon="-4.21995">
        <ele>16</ele>
        <time>2021-03-20T14:25:45Z</time>
      </trkpt>
      <trkpt lat="58.50706" lon="-4.22004">
        <ele>16.06</ele>
        <time>2021-03-20T14:25:49Z</time>
      </trkpt>
      <trkpt lat="58.50781" lon="-4.22008">
        <ele>17.3</ele>
        <time>2021-03-20T14:25:52Z</time>
      </trkpt>
      <trkpt lat="58.50807" lon="-4.21999">
        <ele>16.93</ele>
        <time>2021-03-20T14:25:55Z</time>
      </trkpt>
      <trkpt lat="58.50829" lon="-4.2198">
        <ele>15.44</ele>
        <time>2021-03-20T14:25:59Z</time>
      </trkpt>
      <trkpt lat="58.50854" lon="-4.21943">
        <ele>13.24</ele>
        <time>2021-03-20T14:26:02Z</time>
      </trkpt>
      <trkpt lat="58.50926" lon="-4.21816">
        <ele>12</ele>
        <time>2021-03-20T14:26:06Z</time>
      </trkpt>
      <trkpt lat="58.50942" lon="-4.21796">
        <ele>11.66</ele>
        <time>2021-03-20T14:26:09Z</time>
      </trkpt>
      <trkpt lat="58.50997" lon="-4.21747">
        <ele>7.34</ele>
        <time>2021-03-20T14:26:13Z</time>
      </trkpt>
      <trkpt lat="58.51015" lon="-4.21727">
        <ele>6.77</ele>
        <time>2021-03-20T14:26:16Z</time>
      </trkpt>
      <trkpt lat="58.51027" lon="-4.21707">
        <ele>6.09</ele>
        <time>2021-03-20T14:26:20Z</time>
      </trkpt>
      <trkpt lat="58.51032" lon="-4.21693">
        <ele>5.83</ele>
        <time>2021-03-20T14:26:23Z</time>
      </trkpt>
      <trkpt lat="58.51076" lon="-4.21514">
        <ele>6.36</ele>
        <time>2021-03-20T14:26:26Z</time>
      </trkpt>
      <trkpt lat="58.51082" lon="-4.21504">
        <ele>7.49</ele>
        <time>2021-03-20T14:26:30Z</time>
      </trkpt>
      <trkpt lat="58.5109" lon="-4.21498">
        <ele>9.24</ele>
        <time>2021-03-20T14:26:33Z</time>
      </trkpt>
      <trkpt lat="58.511" lon="-4.21497">
        <ele>10.79</ele>
        <time>2021-03-20T14:26:37Z</time>
      </trkpt>
      <trkpt lat="58.51108" lon="-4.21501">
        <ele>11.44</ele>
        <time>2021-03-20T14:26:40Z</time>
      </trkpt>
      <trkpt lat="58.51122" lon="-4.21517">
        <ele>12.41</ele>
        <time>2021-03-20T14:26:44Z</time>
      </trkpt>
      <trkpt lat="58.51224" lon="-4.21665">
        <ele>14.31</ele>
        <time>2021-03-20T14:26:47Z</time>
      </trkpt>
      <trkpt lat="58.51252" lon="-4.21698">
        <ele>12.91</ele>
        <time>2021-03-20T14:26:51Z</time>
      </trkpt>
      <trkpt lat="58.51342" lon="-4.21786">
        <ele>15.24</ele>
        <time>2021-03-20T14:26:54Z</time>
      </trkpt>
      <trkpt lat="58.51552" lon="-4.21956">
        <ele>19.52</ele>
        <time>2021-03-20T14:26:57Z</time>
      </trkpt>
      <trkpt lat="58.51578" lon="-4.21981">
        <ele>20.2</ele>
        <time>2021-03-20T14:27:01Z</time>
      </trkpt>
      <trkpt lat="58.51689" lon="-4.22107">
        <ele>19.91</ele>
        <time>2021-03-20T14:27:04Z</time>
      </trkpt>
      <trkpt lat="58.51712" lon="-4.22122">
        <ele>20.62</ele>
        <time>2021-03-20T14:27:08Z</time>
      </trkpt>
      <trkpt lat="58.51733" lon="-4.22133">
        <ele>21.39</ele>
        <time>2021-03-20T14:27:11Z</time>
      </trkpt>
      <trkpt lat="58.5178" lon="-4.22152">
        <ele>22.74</ele>
        <time>2021-03-20T14:27:15Z</time>
      </trkpt>
      <trkpt lat="58.51814" lon="-4.22163">
        <ele>23.77</ele>
        <time>2021-03-20T14:27:18Z</time>
      </trkpt>
      <trkpt lat="58.5192" lon="-4.22187">
        <ele>28.77</ele>
        <time>2021-03-20T14:27:22Z</time>
      </trkpt>
      <trkpt lat="58.5194" lon="-4.22203">
        <ele>29.02</ele>
        <time>2021-03-20T14:27:25Z</time>
      </trkpt>
      <trkpt lat="58.52016" lon="-4.22318">
        <ele>32.88</ele>
        <time>2021-03-20T14:27:28Z</time>
      </trkpt>
      <trkpt lat="58.52041" lon="-4.22353">
        <ele>33.71</ele>
        <time>2021-03-20T14:27:32Z</time>
      </trkpt>
      <trkpt lat="58.52056" lon="-4.22368">
        <ele>34.25</ele>
        <time>2021-03-20T14:27:35Z</time>
      </trkpt>
      <trkpt lat="58.52129" lon="-4.22426">
        <ele>38.67</ele>
        <time>2021-03-20T14:27:39Z</time>
      </trkpt>
      <trkpt lat="58.52197" lon="-4.22491">
        <ele>39.33</ele>
        <time>2021-03-20T14:27:42Z</time>
      </trkpt>
      <trkpt lat="58.52223" lon="-4.22509">
        <ele>41.11</ele>
        <time>2021-03-20T14:27:46Z</time>
      </trkpt>
      <trkpt lat="58.52261" lon="-4.22525">
        <ele>43.18</ele>
        <time>2021-03-20T14:27:49Z</time>
      </trkpt>
      <trkpt lat="58.5229" lon="-4.22531">
        <ele>44.55</ele>
        <time>2021-03-20T14:27:52Z</time>
      </trkpt>
      <trkpt lat="58.52305" lon="-4.22526">
        <ele>46.22</ele>
        <time>2021-03-20T14:27:56Z</time>
      </trkpt>
      <trkpt lat="58.52316" lon="-4.2252">
        <ele>47.12</ele>
        <time>2021-03-20T14:27:59Z</time>
      </trkpt>
      <trkpt lat="58.52416" lon="-4.22451">
        <ele>57.77</ele>
        <time>2021-03-20T14:28:03Z</time>
      </trkpt>
      <trkpt lat="58.52446" lon="-4.22427">
        <ele>60.25</ele>
        <time>2021-03-20T14:28:06Z</time>
      </trkpt>
      <trkpt lat="58.52454" lon="-4.22417">
        <ele>60.63</ele>
        <time>2021-03-20T14:28:10Z</time>
      </trkpt>
      <trkpt lat="58.52471" lon="-4.22391">
        <ele>61.97</ele>
        <time>2021-03-20T14:28:13Z</time>
      </trkpt>
      <trkpt lat="58.52484" lon="-4.22357">
        <ele>62.31</ele>
        <time>2021-03-20T14:28:17Z</time>
      </trkpt>
      <trkpt lat="58.5249" lon="-4.22333">
        <ele>62.7</ele>
        <time>2021-03-20T14:28:20Z</time>
      </trkpt>
      <trkpt lat="58.52514" lon="-4.2223">
        <ele>61.44</ele>
        <time>2021-03-20T14:28:23Z</time>
      </trkpt>
      <trkpt lat="58.52535" lon="-4.22149">
        <ele>59.02</ele>
        <time>2021-03-20T14:28:27Z</time>
      </trkpt>
      <trkpt lat="58.52539" lon="-4.22124">
        <ele>57.88</ele>
        <time>2021-03-20T14:28:30Z</time>
      </trkpt>
      <trkpt lat="58.52544" lon="-4.22019">
        <ele>54.84</ele>
        <time>2021-03-20T14:28:34Z</time>
      </trkpt>
      <trkpt lat="58.5255" lon="-4.21994">
        <ele>53.27</ele>
        <time>2021-03-20T14:28:37Z</time>
      </trkpt>
      <trkpt lat="58.52628" lon="-4.21744">
        <ele>37.6</ele>
        <time>2021-03-20T14:28:41Z</time>
      </trkpt>
      <trkpt lat="58.52647" lon="-4.21697">
        <ele>34.46</ele>
        <time>2021-03-20T14:28:44Z</time>
      </trkpt>
      <trkpt lat="58.52663" lon="-4.21666">
        <ele>31.88</ele>
        <time>2021-03-20T14:28:48Z</time>
      </trkpt>
      <trkpt lat="58.52784" lon="-4.21462">
        <ele>23.78</ele>
        <time>2021-03-20T14:28:51Z</time>
      </trkpt>
      <trkpt lat="58.52801" lon="-4.21426">
        <ele>21.29</ele>
        <time>2021-03-20T14:28:54Z</time>
      </trkpt>
      <trkpt lat="58.52809" lon="-4.21392">
        <ele>20.08</ele>
        <time>2021-03-20T14:28:58Z</time>
      </trkpt>
      <trkpt lat="58.52813" lon="-4.21351">
        <ele>18.78</ele>
        <time>2021-03-20T14:29:01Z</time>
      </trkpt>
      <trkpt lat="58.52812" lon="-4.2133">
        <ele>18.41</ele>
        <time>2021-03-20T14:29:05Z</time>
      </trkpt>
      <trkpt lat="58.52804" lon="-4.21245">
        <ele>16.38</ele>
        <time>2021-03-20T14:29:08Z</time>
      </trkpt>
      <trkpt lat="58.52804" lon="-4.21196">
        <ele>15.06</ele>
        <time>2021-03-20T14:29:12Z</time>
      </trkpt>
      <trkpt lat="58.52805" lon="-4.21167">
        <ele>14.11</ele>
        <time>2021-03-20T14:29:15Z</time>
      </trkpt>
      <trkpt lat="58.52839" lon="-4.20844">
        <ele>18.31</ele>
        <time>2021-03-20T14:29:19Z</time>
      </trkpt>
      <trkpt lat="58.52853" lon="-4.20678">
        <ele>15.88</ele>
        <time>2021-03-20T14:29:22Z</time>
      </trkpt>
      <trkpt lat="58.52857" lon="-4.20652">
        <ele>14.4</ele>
        <time>2021-03-20T14:29:25Z</time>
      </trkpt>
      <trkpt lat="58.52863" lon="-4.20624">
        <ele>12.86</ele>
        <time>2021-03-20T14:29:29Z</time>
      </trkpt>
      <trkpt lat="58.52907" lon="-4.20472">
        <ele>14.32</ele>
        <time>2021-03-20T14:29:32Z</time>
      </trkpt>
      <trkpt lat="58.52919" lon="-4.20417">
        <ele>17.49</ele>
        <time>2021-03-20T14:29:36Z</time>
      </trkpt>
      <trkpt lat="58.52923" lon="-4.20374">
        <ele>21.58</ele>
        <time>2021-03-20T14:29:39Z</time>
      </trkpt>
      <trkpt lat="58.5292" lon="-4.20318">
        <ele>25.04</ele>
        <time>2021-03-20T14:29:43Z</time>
      </trkpt>
      <trkpt lat="58.52901" lon="-4.20155">
        <ele>31.93</ele>
        <time>2021-03-20T14:29:46Z</time>
      </trkpt>
      <trkpt lat="58.529" lon="-4.20123">
        <ele>31.91</ele>
        <time>2021-03-20T14:29:49Z</time>
      </trkpt>
      <trkpt lat="58.52903" lon="-4.20106">
        <ele>32.36</ele>
        <time>2021-03-20T14:29:53Z</time>
      </trkpt>
      <trkpt lat="58.52908" lon="-4.20083">
        <ele>33.12</ele>
        <time>2021-03-20T14:29:56Z</time>
      </trkpt>
      <trkpt lat="58.52944" lon="-4.19998">
        <ele>36.99</ele>
        <time>2021-03-20T14:30:00Z</time>
      </trkpt>
      <trkpt lat="58.52949" lon="-4.19979">
        <ele>38.08</ele>
        <time>2021-03-20T14:30:03Z</time>
      </trkpt>
      <trkpt lat="58.52952" lon="-4.19952">
        <ele>38.24</ele>
        <time>2021-03-20T14:30:07Z</time>
      </trkpt>
      <trkpt lat="58.52951" lon="-4.19933">
        <ele>38.69</ele>
        <time>2021-03-20T14:30:10Z</time>
      </trkpt>
      <trkpt lat="58.52947" lon="-4.19909">
        <ele>39.81</ele>
        <time>2021-03-20T14:30:14Z</time>
      </trkpt>
      <trkpt lat="58.52918" lon="-4.19824">
        <ele>45.8</ele>
        <time>2021-03-20T14:30:17Z</time>
      </trkpt>
      <trkpt lat="58.52911" lon="-4.19793">
        <ele>47.87</ele>
        <time>2021-03-20T14:30:20Z</time>
      </trkpt>
      <trkpt lat="58.52908" lon="-4.19762">
        <ele>49.57</ele>
        <time>2021-03-20T14:30:24Z</time>
      </trkpt>
      <trkpt lat="58.52907" lon="-4.19722">
        <ele>52.02</ele>
        <time>2021-03-20T14:30:27Z</time>
      </trkpt>
      <trkpt lat="58.52915" lon="-4.19643">
        <ele>56.75</ele>
        <time>2021-03-20T14:30:31Z</time>
      </trkpt>
      <trkpt lat="58.52917" lon="-4.19595">
        <ele>61.23</ele>
        <time>2021-03-20T14:30:34Z</time>
      </trkpt>
      <trkpt lat="58.52917" lon="-4.19524">
        <ele>66.29</ele>
        <time>2021-03-20T14:30:38Z</time>
      </trkpt>
      <trkpt lat="58.52919" lon="-4.19467">
        <ele>69.35</ele>
        <time>2021-03-20T14:30:41Z</time>
      </trkpt>
      <trkpt lat="58.5293" lon="-4.19342">
        <ele>70.24</ele>
        <time>2021-03-20T14:30:45Z</time>
      </trkpt>
      <trkpt lat="58.52934" lon="-4.19315">
        <ele>69.84</ele>
        <time>2021-03-20T14:30:48Z</time>
      </trkpt>
      <trkpt lat="58.52989" lon="-4.19104">
        <ele>69.75</ele>
        <time>2021-03-20T14:30:51Z</time>
      </trkpt>
      <trkpt lat="58.52996" lon="-4.19053">
        <ele>70.51</ele>
        <time>2021-03-20T14:30:55Z</time>
      </trkpt>
      <trkpt lat="58.53" lon="-4.18864">
        <ele>72.88</ele>
        <time>2021-03-20T14:30:58Z</time>
      </trkpt>
      <trkpt lat="58.52996" lon="-4.18578">
        <ele>79.72</ele>
        <time>2021-03-20T14:31:02Z</time>
      </trkpt>
      <trkpt lat="58.52996" lon="-4.18195">
        <ele>85.85</ele>
        <time>2021-03-20T14:31:05Z</time>
      </trkpt>
      <trkpt lat="58.52989" lon="-4.18057">
        <ele>87.56</ele>
        <time>2021-03-20T14:31:09Z</time>
      </trkpt>
      <trkpt lat="58.52982" lon="-4.1797">
        <ele>87.4</ele>
        <time>2021-03-20T14:31:12Z</time>
      </trkpt>
      <trkpt lat="58.52938" lon="-4.17508">
        <ele>85.78</ele>
        <time>2021-03-20T14:31:16Z</time>
      </trkpt>
      <trkpt lat="58.52931" lon="-4.17449">
        <ele>85.92</ele>
        <time>2021-03-20T14:31:19Z</time>
      </trkpt>
      <trkpt lat="58.52925" lon="-4.17411">
        <ele>86.15</ele>
        <time>2021-03-20T14:31:22Z</time>
      </trkpt>
      <trkpt lat="58.52912" lon="-4.17351">
        <ele>88.2</ele>
        <time>2021-03-20T14:31:26Z</time>
      </trkpt>
      <trkpt lat="58.529" lon="-4.17307">
        <ele>89.35</ele>
        <time>2021-03-20T14:31:29Z</time>
      </trkpt>
      <trkpt lat="58.52886" lon="-4.17262">
        <ele>91.34</ele>
        <time>2021-03-20T14:31:33Z</time>
      </trkpt>
      <trkpt lat="58.52812" lon="-4.17069">
        <ele>93.73</ele>
        <time>2021-03-20T14:31:36Z</time>
      </trkpt>
      <trkpt lat="58.52796" lon="-4.1702">
        <ele>94.26</ele>
        <time>2021-03-20T14:31:40Z</time>
      </trkpt>
      <trkpt lat="58.52771" lon="-4.16924">
        <ele>93.05</ele>
        <time>2021-03-20T14:31:43Z</time>
      </trkpt>
      <trkpt lat="58.52757" lon="-4.16855">
        <ele>89.73</ele>
        <time>2021-03-20T14:31:46Z</time>
      </trkpt>
      <trkpt lat="58.52745" lon="-4.16768">
        <ele>86.01</ele>
        <time>2021-03-20T14:31:50Z</time>
      </trkpt>
      <trkpt lat="58.52738" lon="-4.16683">
        <ele>85.01</ele>
        <time>2021-03-20T14:31:53Z</time>
      </trkpt>
      <trkpt lat="58.52734" lon="-4.16588">
        <ele>85.49</ele>
        <time>2021-03-20T14:31:57Z</time>
      </trkpt>
      <trkpt lat="58.52734" lon="-4.16446">
        <ele>87.19</ele>
        <time>2021-03-20T14:32:00Z</time>
      </trkpt>
      <trkpt lat="58.5273" lon="-4.16377">
        <ele>89.25</ele>
        <time>2021-03-20T14:32:04Z</time>
      </trkpt>
      <trkpt lat="58.52721" lon="-4.16298">
        <ele>91.33</ele>
        <time>2021-03-20T14:32:07Z</time>
      </trkpt>
      <trkpt lat="58.52682" lon="-4.16042">
        <ele>90</ele>
        <time>2021-03-20T14:32:11Z</time>
      </trkpt>
      <trkpt lat="58.52678" lon="-4.15988">
        <ele>89.39</ele>
        <time>2021-03-20T14:32:14Z</time>
      </trkpt>
      <trkpt lat="58.52677" lon="-4.15958">
        <ele>89.9</ele>
        <time>2021-03-20T14:32:17Z</time>
      </trkpt>
      <trkpt lat="58.52681" lon="-4.15902">
        <ele>90.23</ele>
        <time>2021-03-20T14:32:21Z</time>
      </trkpt>
      <trkpt lat="58.52684" lon="-4.15876">
        <ele>90</ele>
        <time>2021-03-20T14:32:24Z</time>
      </trkpt>
      <trkpt lat="58.52688" lon="-4.1585">
        <ele>89.6</ele>
        <time>2021-03-20T14:32:28Z</time>
      </trkpt>
      <trkpt lat="58.52702" lon="-4.158">
        <ele>91</ele>
        <time>2021-03-20T14:32:31Z</time>
      </trkpt>
      <trkpt lat="58.52783" lon="-4.15545">
        <ele>108.06</ele>
        <time>2021-03-20T14:32:35Z</time>
      </trkpt>
      <trkpt lat="58.52794" lon="-4.15494">
        <ele>111.94</ele>
        <time>2021-03-20T14:32:38Z</time>
      </trkpt>
      <trkpt lat="58.52796" lon="-4.15457">
        <ele>114.09</ele>
        <time>2021-03-20T14:32:42Z</time>
      </trkpt>
      <trkpt lat="58.52793" lon="-4.15416">
        <ele>115.73</ele>
        <time>2021-03-20T14:32:45Z</time>
      </trkpt>
      <trkpt lat="58.52757" lon="-4.15202">
        <ele>125.22</ele>
        <time>2021-03-20T14:32:48Z</time>
      </trkpt>
      <trkpt lat="58.52755" lon="-4.15159">
        <ele>126.56</ele>
        <time>2021-03-20T14:32:52Z</time>
      </trkpt>
      <trkpt lat="58.52755" lon="-4.15138">
        <ele>127.22</ele>
        <time>2021-03-20T14:32:55Z</time>
      </trkpt>
      <trkpt lat="58.52759" lon="-4.151">
        <ele>128.32</ele>
        <time>2021-03-20T14:32:59Z</time>
      </trkpt>
      <trkpt lat="58.52774" lon="-4.15011">
        <ele>128.48</ele>
        <time>2021-03-20T14:33:02Z</time>
      </trkpt>
      <trkpt lat="58.52787" lon="-4.14966">
        <ele>128</ele>
        <time>2021-03-20T14:33:06Z</time>
      </trkpt>
      <trkpt lat="58.52798" lon="-4.14942">
        <ele>128.07</ele>
        <time>2021-03-20T14:33:09Z</time>
      </trkpt>
      <trkpt lat="58.52811" lon="-4.14923">
        <ele>128.57</ele>
        <time>2021-03-20T14:33:13Z</time>
      </trkpt>
      <trkpt lat="58.52827" lon="-4.14913">
        <ele>128.36</ele>
        <time>2021-03-20T14:33:16Z</time>
      </trkpt>
      <trkpt lat="58.52841" lon="-4.14911">
        <ele>128.22</ele>
        <time>2021-03-20T14:33:19Z</time>
      </trkpt>
      <trkpt lat="58.52877" lon="-4.14911">
        <ele>128.2</ele>
        <time>2021-03-20T14:33:23Z</time>
      </trkpt>
      <trkpt lat="58.53004" lon="-4.14922">
        <ele>122.34</ele>
        <time>2021-03-20T14:33:26Z</time>
      </trkpt>
      <trkpt lat="58.53029" lon="-4.14919">
        <ele>119.78</ele>
        <time>2021-03-20T14:33:30Z</time>
      </trkpt>
      <trkpt lat="58.53038" lon="-4.14915">
        <ele>118.6</ele>
        <time>2021-03-20T14:33:33Z</time>
      </trkpt>
      <trkpt lat="58.53054" lon="-4.149">
        <ele>116.19</ele>
        <time>2021-03-20T14:33:37Z</time>
      </trkpt>
      <trkpt lat="58.5307" lon="-4.14874">
        <ele>114.23</ele>
        <time>2021-03-20T14:33:40Z</time>
      </trkpt>
      <trkpt lat="58.53077" lon="-4.14858">
        <ele>113.61</ele>
        <time>2021-03-20T14:33:43Z</time>
      </trkpt>
      <trkpt lat="58.53093" lon="-4.14802">
        <ele>112.03</ele>
        <time>2021-03-20T14:33:47Z</time>
      </trkpt>
      <trkpt lat="58.53125" lon="-4.14685">
        <ele>108.67</ele>
        <time>2021-03-20T14:33:50Z</time>
      </trkpt>
      <trkpt lat="58.53157" lon="-4.14593">
        <ele>105.85</ele>
        <time>2021-03-20T14:33:54Z</time>
      </trkpt>
      <trkpt lat="58.53166" lon="-4.14558">
        <ele>105.97</ele>
        <time>2021-03-20T14:33:57Z</time>
      </trkpt>
      <trkpt lat="58.53174" lon="-4.14497">
        <ele>106.72</ele>
        <time>2021-03-20T14:34:01Z</time>
      </trkpt>
      <trkpt lat="58.53191" lon="-4.14236">
        <ele>109.18</ele>
        <time>2021-03-20T14:34:04Z</time>
      </trkpt>
      <trkpt lat="58.5319" lon="-4.14208">
        <ele>109.14</ele>
        <time>2021-03-20T14:34:08Z</time>
      </trkpt>
      <trkpt lat="58.53187" lon="-4.14168">
        <ele>109.98</ele>
        <time>2021-03-20T14:34:11Z</time>
      </trkpt>
      <trkpt lat="58.53166" lon="-4.13982">
        <ele>114.57</ele>
        <time>2021-03-20T14:34:14Z</time>
      </trkpt>
      <trkpt lat="58.53164" lon="-4.13951">
        <ele>115.59</ele>
        <time>2021-03-20T14:34:18Z</time>
      </trkpt>
      <trkpt lat="58.53166" lon="-4.13887">
        <ele>115.99</ele>
        <time>2021-03-20T14:34:21Z</time>
      </trkpt>
      <trkpt lat="58.53174" lon="-4.13833">
        <ele>117.5</ele>
        <time>2021-03-20T14:34:25Z</time>
      </trkpt>
      <trkpt lat="58.53179" lon="-4.13809">
        <ele>117.86</ele>
        <time>2021-03-20T14:34:28Z</time>
      </trkpt>
      <trkpt lat="58.53192" lon="-4.1376">
        <ele>118.9</ele>
        <time>2021-03-20T14:34:32Z</time>
      </trkpt>
      <trkpt lat="58.5321" lon="-4.13701">
        <ele>120.13</ele>
        <time>2021-03-20T14:34:35Z</time>
      </trkpt>
      <trkpt lat="58.53218" lon="-4.13661">
        <ele>121.89</ele>
        <time>2021-03-20T14:34:39Z</time>
      </trkpt>
      <trkpt lat="58.53221" lon="-4.13606">
        <ele>124.09</ele>
        <time>2021-03-20T14:34:42Z</time>
      </trkpt>
      <trkpt lat="58.53223" lon="-4.13512">
        <ele>127.66</ele>
        <time>2021-03-20T14:34:45Z</time>
      </trkpt>
      <trkpt lat="58.53226" lon="-4.1347">
        <ele>128.43</ele>
        <time>2021-03-20T14:34:49Z</time>
      </trkpt>
      <trkpt lat="58.53228" lon="-4.1345">
        <ele>129.26</ele>
        <time>2021-03-20T14:34:52Z</time>
      </trkpt>
      <trkpt lat="58.53236" lon="-4.13419">
        <ele>129.99</ele>
        <time>2021-03-20T14:34:56Z</time>
      </trkpt>
      <trkpt lat="58.53249" lon="-4.13387">
        <ele>130.96</ele>
        <time>2021-03-20T14:34:59Z</time>
      </trkpt>
      <trkpt lat="58.53329" lon="-4.13259">
        <ele>134.89</ele>
        <time>2021-03-20T14:35:03Z</time>
      </trkpt>
      <trkpt lat="58.53344" lon="-4.13229">
        <ele>135.72</ele>
        <time>2021-03-20T14:35:06Z</time>
      </trkpt>
      <trkpt lat="58.53354" lon="-4.13197">
        <ele>136.92</ele>
        <time>2021-03-20T14:35:09Z</time>
      </trkpt>
      <trkpt lat="58.53361" lon="-4.13158">
        <ele>136.96</ele>
        <time>2021-03-20T14:35:13Z</time>
      </trkpt>
      <trkpt lat="58.53364" lon="-4.13109">
        <ele>138.3</ele>
        <time>2021-03-20T14:35:16Z</time>
      </trkpt>
      <trkpt lat="58.53361" lon="-4.13003">
        <ele>140.88</ele>
        <time>2021-03-20T14:35:20Z</time>
      </trkpt>
      <trkpt lat="58.53362" lon="-4.12961">
        <ele>142.55</ele>
        <time>2021-03-20T14:35:23Z</time>
      </trkpt>
      <trkpt lat="58.53371" lon="-4.12909">
        <ele>145.3</ele>
        <time>2021-03-20T14:35:27Z</time>
      </trkpt>
      <trkpt lat="58.53384" lon="-4.12865">
        <ele>147.44</ele>
        <time>2021-03-20T14:35:30Z</time>
      </trkpt>
      <trkpt lat="58.53478" lon="-4.12627">
        <ele>155.22</ele>
        <time>2021-03-20T14:35:34Z</time>
      </trkpt>
      <trkpt lat="58.53489" lon="-4.12598">
        <ele>155.59</ele>
        <time>2021-03-20T14:35:37Z</time>
      </trkpt>
      <trkpt lat="58.53524" lon="-4.12478">
        <ele>156.74</ele>
        <time>2021-03-20T14:35:40Z</time>
      </trkpt>
      <trkpt lat="58.53537" lon="-4.12447">
        <ele>156.41</ele>
        <time>2021-03-20T14:35:44Z</time>
      </trkpt>
      <trkpt lat="58.53552" lon="-4.12421">
        <ele>156.03</ele>
        <time>2021-03-20T14:35:47Z</time>
      </trkpt>
      <trkpt lat="58.53572" lon="-4.124">
        <ele>155.41</ele>
        <time>2021-03-20T14:35:51Z</time>
      </trkpt>
      <trkpt lat="58.53586" lon="-4.12392">
        <ele>155.01</ele>
        <time>2021-03-20T14:35:54Z</time>
      </trkpt>
      <trkpt lat="58.53601" lon="-4.12385">
        <ele>154.17</ele>
        <time>2021-03-20T14:35:58Z</time>
      </trkpt>
      <trkpt lat="58.53696" lon="-4.12357">
        <ele>151.72</ele>
        <time>2021-03-20T14:36:01Z</time>
      </trkpt>
      <trkpt lat="58.53728" lon="-4.12339">
        <ele>151.05</ele>
        <time>2021-03-20T14:36:05Z</time>
      </trkpt>
      <trkpt lat="58.53744" lon="-4.12327">
        <ele>150.16</ele>
        <time>2021-03-20T14:36:08Z</time>
      </trkpt>
      <trkpt lat="58.53777" lon="-4.12296">
        <ele>149.64</ele>
        <time>2021-03-20T14:36:11Z</time>
      </trkpt>
      <trkpt lat="58.53792" lon="-4.12277">
        <ele>149.51</ele>
        <time>2021-03-20T14:36:15Z</time>
      </trkpt>
      <trkpt lat="58.53816" lon="-4.1224">
        <ele>150.61</ele>
        <time>2021-03-20T14:36:18Z</time>
      </trkpt>
      <trkpt lat="58.53837" lon="-4.122">
        <ele>150.34</ele>
        <time>2021-03-20T14:36:22Z</time>
      </trkpt>
      <trkpt lat="58.53852" lon="-4.12163">
        <ele>149.54</ele>
        <time>2021-03-20T14:36:25Z</time>
      </trkpt>
      <trkpt lat="58.53861" lon="-4.12134">
        <ele>148.64</ele>
        <time>2021-03-20T14:36:29Z</time>
      </trkpt>
      <trkpt lat="58.53867" lon="-4.12108">
        <ele>147.5</ele>
        <time>2021-03-20T14:36:32Z</time>
      </trkpt>
      <trkpt lat="58.5389" lon="-4.11946">
        <ele>142.25</ele>
        <time>2021-03-20T14:36:36Z</time>
      </trkpt>
      <trkpt lat="58.53904" lon="-4.1189">
        <ele>140.13</ele>
        <time>2021-03-20T14:36:39Z</time>
      </trkpt>
      <trkpt lat="58.5392" lon="-4.11838">
        <ele>139.68</ele>
        <time>2021-03-20T14:36:42Z</time>
      </trkpt>
      <trkpt lat="58.5396" lon="-4.11746">
        <ele>139.4</ele>
        <time>2021-03-20T14:36:46Z</time>
      </trkpt>
      <trkpt lat="58.53977" lon="-4.11692">
        <ele>137.9</ele>
        <time>2021-03-20T14:36:49Z</time>
      </trkpt>
      <trkpt lat="58.53986" lon="-4.11646">
        <ele>136.22</ele>
        <time>2021-03-20T14:36:53Z</time>
      </trkpt>
      <trkpt lat="58.5401" lon="-4.11388">
        <ele>135.34</ele>
        <time>2021-03-20T14:36:56Z</time>
      </trkpt>
      <trkpt lat="58.54018" lon="-4.11341">
        <ele>134.95</ele>
        <time>2021-03-20T14:37:00Z</time>
      </trkpt>
      <trkpt lat="58.54034" lon="-4.113">
        <ele>133.79</ele>
        <time>2021-03-20T14:37:03Z</time>
      </trkpt>
      <trkpt lat="58.54055" lon="-4.11268">
        <ele>132.3</ele>
        <time>2021-03-20T14:37:06Z</time>
      </trkpt>
      <trkpt lat="58.54087" lon="-4.11229">
        <ele>130.79</ele>
        <time>2021-03-20T14:37:10Z</time>
      </trkpt>
      <trkpt lat="58.54102" lon="-4.11203">
        <ele>131.07</ele>
        <time>2021-03-20T14:37:13Z</time>
      </trkpt>
      <trkpt lat="58.54109" lon="-4.11184">
        <ele>131.36</ele>
        <time>2021-03-20T14:37:17Z</time>
      </trkpt>
      <trkpt lat="58.54114" lon="-4.11162">
        <ele>131.11</ele>
        <time>2021-03-20T14:37:20Z</time>
      </trkpt>
      <trkpt lat="58.54119" lon="-4.11131">
        <ele>131.27</ele>
        <time>2021-03-20T14:37:24Z</time>
      </trkpt>
      <trkpt lat="58.5412" lon="-4.11106">
        <ele>131.32</ele>
        <time>2021-03-20T14:37:27Z</time>
      </trkpt>
      <trkpt lat="58.54119" lon="-4.11076">
        <ele>131.52</ele>
        <time>2021-03-20T14:37:31Z</time>
      </trkpt>
      <trkpt lat="58.54112" lon="-4.11035">
        <ele>132.03</ele>
        <time>2021-03-20T14:37:34Z</time>
      </trkpt>
      <trkpt lat="58.54102" lon="-4.11004">
        <ele>131.31</ele>
        <time>2021-03-20T14:37:37Z</time>
      </trkpt>
      <trkpt lat="58.54071" lon="-4.10927">
        <ele>130.1</ele>
        <time>2021-03-20T14:37:41Z</time>
      </trkpt>
      <trkpt lat="58.54062" lon="-4.10891">
        <ele>129.43</ele>
        <time>2021-03-20T14:37:44Z</time>
      </trkpt>
      <trkpt lat="58.54059" lon="-4.10872">
        <ele>129.27</ele>
        <time>2021-03-20T14:37:48Z</time>
      </trkpt>
      <trkpt lat="58.54058" lon="-4.10825">
        <ele>128.78</ele>
        <time>2021-03-20T14:37:51Z</time>
      </trkpt>
      <trkpt lat="58.54062" lon="-4.10798">
        <ele>127.93</ele>
        <time>2021-03-20T14:37:55Z</time>
      </trkpt>
      <trkpt lat="58.5407" lon="-4.10756">
        <ele>126.76</ele>
        <time>2021-03-20T14:37:58Z</time>
      </trkpt>
      <trkpt lat="58.54088" lon="-4.10693">
        <ele>126.13</ele>
        <time>2021-03-20T14:38:02Z</time>
      </trkpt>
      <trkpt lat="58.5411" lon="-4.10627">
        <ele>124.52</ele>
        <time>2021-03-20T14:38:05Z</time>
      </trkpt>
      <trkpt lat="58.54132" lon="-4.10569">
        <ele>122.47</ele>
        <time>2021-03-20T14:38:08Z</time>
      </trkpt>
      <trkpt lat="58.54179" lon="-4.10459">
        <ele>120.35</ele>
        <time>2021-03-20T14:38:12Z</time>
      </trkpt>
      <trkpt lat="58.54207" lon="-4.10367">
        <ele>120</ele>
        <time>2021-03-20T14:38:15Z</time>
      </trkpt>
      <trkpt lat="58.54214" lon="-4.10349">
        <ele>120.05</ele>
        <time>2021-03-20T14:38:19Z</time>
      </trkpt>
      <trkpt lat="58.54232" lon="-4.10312">
        <ele>120</ele>
        <time>2021-03-20T14:38:22Z</time>
      </trkpt>
      <trkpt lat="58.54243" lon="-4.10295">
        <ele>119.4</ele>
        <time>2021-03-20T14:38:26Z</time>
      </trkpt>
      <trkpt lat="58.54265" lon="-4.10266">
        <ele>117.89</ele>
        <time>2021-03-20T14:38:29Z</time>
      </trkpt>
      <trkpt lat="58.54287" lon="-4.10248">
        <ele>116.84</ele>
        <time>2021-03-20T14:38:33Z</time>
      </trkpt>
      <trkpt lat="58.54402" lon="-4.10185">
        <ele>119.8</ele>
        <time>2021-03-20T14:38:36Z</time>
      </trkpt>
      <trkpt lat="58.54421" lon="-4.10178">
        <ele>120.66</ele>
        <time>2021-03-20T14:38:39Z</time>
      </trkpt>
      <trkpt lat="58.5445" lon="-4.10171">
        <ele>121.21</ele>
        <time>2021-03-20T14:38:43Z</time>
      </trkpt>
      <trkpt lat="58.54512" lon="-4.10165">
        <ele>120.61</ele>
        <time>2021-03-20T14:38:46Z</time>
      </trkpt>
      <trkpt lat="58.54528" lon="-4.10156">
        <ele>119.99</ele>
        <time>2021-03-20T14:38:50Z</time>
      </trkpt>
      <trkpt lat="58.54544" lon="-4.10139">
        <ele>119.41</ele>
        <time>2021-03-20T14:38:53Z</time>
      </trkpt>
      <trkpt lat="58.54557" lon="-4.10118">
        <ele>119</ele>
        <time>2021-03-20T14:38:57Z</time>
      </trkpt>
      <trkpt lat="58.5457" lon="-4.10085">
        <ele>118.53</ele>
        <time>2021-03-20T14:39:00Z</time>
      </trkpt>
      <trkpt lat="58.54577" lon="-4.10049">
        <ele>117.26</ele>
        <time>2021-03-20T14:39:03Z</time>
      </trkpt>
      <trkpt lat="58.54579" lon="-4.1001">
        <ele>115.08</ele>
        <time>2021-03-20T14:39:07Z</time>
      </trkpt>
      <trkpt lat="58.54577" lon="-4.0997">
        <ele>111.79</ele>
        <time>2021-03-20T14:39:10Z</time>
      </trkpt>
      <trkpt lat="58.54566" lon="-4.09912">
        <ele>108.59</ele>
        <time>2021-03-20T14:39:14Z</time>
      </trkpt>
      <trkpt lat="58.54558" lon="-4.09882">
        <ele>107.43</ele>
        <time>2021-03-20T14:39:17Z</time>
      </trkpt>
      <trkpt lat="58.54539" lon="-4.09816">
        <ele>105.17</ele>
        <time>2021-03-20T14:39:21Z</time>
      </trkpt>
      <trkpt lat="58.54476" lon="-4.09639">
        <ele>100</ele>
        <time>2021-03-20T14:39:24Z</time>
      </trkpt>
      <trkpt lat="58.54454" lon="-4.09602">
        <ele>99</ele>
        <time>2021-03-20T14:39:28Z</time>
      </trkpt>
      <trkpt lat="58.54437" lon="-4.09583">
        <ele>98.97</ele>
        <time>2021-03-20T14:39:31Z</time>
      </trkpt>
      <trkpt lat="58.54392" lon="-4.09551">
        <ele>97.83</ele>
        <time>2021-03-20T14:39:34Z</time>
      </trkpt>
      <trkpt lat="58.54364" lon="-4.09525">
        <ele>96.66</ele>
        <time>2021-03-20T14:39:38Z</time>
      </trkpt>
      <trkpt lat="58.5429" lon="-4.09429">
        <ele>93.79</ele>
        <time>2021-03-20T14:39:41Z</time>
      </trkpt>
      <trkpt lat="58.54264" lon="-4.09382">
        <ele>91.61</ele>
        <time>2021-03-20T14:39:45Z</time>
      </trkpt>
      <trkpt lat="58.54118" lon="-4.09015">
        <ele>68.77</ele>
        <time>2021-03-20T14:39:48Z</time>
      </trkpt>
      <trkpt lat="58.54108" lon="-4.08983">
        <ele>67.88</ele>
        <time>2021-03-20T14:39:52Z</time>
      </trkpt>
      <trkpt lat="58.54103" lon="-4.08955">
        <ele>67.08</ele>
        <time>2021-03-20T14:39:55Z</time>
      </trkpt>
      <trkpt lat="58.54102" lon="-4.0894">
        <ele>66.5</ele>
        <time>2021-03-20T14:39:59Z</time>
      </trkpt>
      <trkpt lat="58.54103" lon="-4.08909">
        <ele>65.35</ele>
        <time>2021-03-20T14:40:02Z</time>
      </trkpt>
      <trkpt lat="58.54109" lon="-4.08871">
        <ele>63.55</ele>
        <time>2021-03-20T14:40:05Z</time>
      </trkpt>
      <trkpt lat="58.54131" lon="-4.08796">
        <ele>59.97</ele>
        <time>2021-03-20T14:40:09Z</time>
      </trkpt>
      <trkpt lat="58.54142" lon="-4.08766">
        <ele>58.87</ele>
        <time>2021-03-20T14:40:12Z</time>
      </trkpt>
      <trkpt lat="58.54155" lon="-4.08745">
        <ele>57.58</ele>
        <time>2021-03-20T14:40:16Z</time>
      </trkpt>
      <trkpt lat="58.5417" lon="-4.0873">
        <ele>56.82</ele>
        <time>2021-03-20T14:40:19Z</time>
      </trkpt>
      <trkpt lat="58.5418" lon="-4.08724">
        <ele>56.12</ele>
        <time>2021-03-20T14:40:23Z</time>
      </trkpt>
      <trkpt lat="58.54231" lon="-4.08706">
        <ele>52.81</ele>
        <time>2021-03-20T14:40:26Z</time>
      </trkpt>
      <trkpt lat="58.54252" lon="-4.08695">
        <ele>50.96</ele>
        <time>2021-03-20T14:40:30Z</time>
      </trkpt>
      <trkpt lat="58.54283" lon="-4.08673">
        <ele>47.64</ele>
        <time>2021-03-20T14:40:33Z</time>
      </trkpt>
      <trkpt lat="58.54344" lon="-4.08618">
        <ele>42.02</ele>
        <time>2021-03-20T14:40:36Z</time>
      </trkpt>
      <trkpt lat="58.54387" lon="-4.08568">
        <ele>37.29</ele>
        <time>2021-03-20T14:40:40Z</time>
      </trkpt>
      <trkpt lat="58.54427" lon="-4.08515">
        <ele>32.8</ele>
        <time>2021-03-20T14:40:43Z</time>
      </trkpt>
      <trkpt lat="58.54454" lon="-4.08471">
        <ele>30.92</ele>
        <time>2021-03-20T14:40:47Z</time>
      </trkpt>
      <trkpt lat="58.54461" lon="-4.08454">
        <ele>29.68</ele>
        <time>2021-03-20T14:40:50Z</time>
      </trkpt>
      <trkpt lat="58.5447" lon="-4.08423">
        <ele>28.23</ele>
        <time>2021-03-20T14:40:54Z</time>
      </trkpt>
      <trkpt lat="58.54475" lon="-4.08392">
        <ele>26.19</ele>
        <time>2021-03-20T14:40:57Z</time>
      </trkpt>
      <trkpt lat="58.54477" lon="-4.08344">
        <ele>24.28</ele>
        <time>2021-03-20T14:41:00Z</time>
      </trkpt>
      <trkpt lat="58.54452" lon="-4.0808">
        <ele>30.26</ele>
        <time>2021-03-20T14:41:04Z</time>
      </trkpt>
      <trkpt lat="58.54454" lon="-4.08054">
        <ele>32</ele>
        <time>2021-03-20T14:41:07Z</time>
      </trkpt>
      <trkpt lat="58.5446" lon="-4.08029">
        <ele>32</ele>
        <time>2021-03-20T14:41:11Z</time>
      </trkpt>
      <trkpt lat="58.5447" lon="-4.08007">
        <ele>32.75</ele>
        <time>2021-03-20T14:41:14Z</time>
      </trkpt>
      <trkpt lat="58.54494" lon="-4.07978">
        <ele>32.22</ele>
        <time>2021-03-20T14:41:18Z</time>
      </trkpt>
      <trkpt lat="58.54614" lon="-4.07854">
        <ele>30.05</ele>
        <time>2021-03-20T14:41:21Z</time>
      </trkpt>
      <trkpt lat="58.547" lon="-4.07759">
        <ele>27.45</ele>
        <time>2021-03-20T14:41:25Z</time>
      </trkpt>
      <trkpt lat="58.54709" lon="-4.07746">
        <ele>26.5</ele>
        <time>2021-03-20T14:41:28Z</time>
      </trkpt>
      <trkpt lat="58.54721" lon="-4.07721">
        <ele>25.13</ele>
        <time>2021-03-20T14:41:31Z</time>
      </trkpt>
      <trkpt lat="58.54729" lon="-4.07691">
        <ele>24.4</ele>
        <time>2021-03-20T14:41:35Z</time>
      </trkpt>
      <trkpt lat="58.54733" lon="-4.07642">
        <ele>23.19</ele>
        <time>2021-03-20T14:41:38Z</time>
      </trkpt>
      <trkpt lat="58.54742" lon="-4.07425">
        <ele>20.29</ele>
        <time>2021-03-20T14:41:42Z</time>
      </trkpt>
      <trkpt lat="58.54742" lon="-4.07384">
        <ele>20.28</ele>
        <time>2021-03-20T14:41:45Z</time>
      </trkpt>
      <trkpt lat="58.5474" lon="-4.07333">
        <ele>20.34</ele>
        <time>2021-03-20T14:41:49Z</time>
      </trkpt>
      <trkpt lat="58.54735" lon="-4.07288">
        <ele>19.42</ele>
        <time>2021-03-20T14:41:52Z</time>
      </trkpt>
      <trkpt lat="58.54729" lon="-4.07246">
        <ele>18.36</ele>
        <time>2021-03-20T14:41:56Z</time>
      </trkpt>
      <trkpt lat="58.54718" lon="-4.07193">
        <ele>18.09</ele>
        <time>2021-03-20T14:41:59Z</time>
      </trkpt>
      <trkpt lat="58.54691" lon="-4.07088">
        <ele>22.52</ele>
        <time>2021-03-20T14:42:02Z</time>
      </trkpt>
      <trkpt lat="58.54671" lon="-4.06989">
        <ele>28.73</ele>
        <time>2021-03-20T14:42:06Z</time>
      </trkpt>
      <trkpt lat="58.54663" lon="-4.06914">
        <ele>30.8</ele>
        <time>2021-03-20T14:42:09Z</time>
      </trkpt>
      <trkpt lat="58.5466" lon="-4.06846">
        <ele>33.09</ele>
        <time>2021-03-20T14:42:13Z</time>
      </trkpt>
      <trkpt lat="58.54662" lon="-4.06778">
        <ele>37</ele>
        <time>2021-03-20T14:42:16Z</time>
      </trkpt>
      <trkpt lat="58.54669" lon="-4.06713">
        <ele>43.92</ele>
        <time>2021-03-20T14:42:20Z</time>
      </trkpt>
      <trkpt lat="58.54681" lon="-4.06646">
        <ele>50.37</ele>
        <time>2021-03-20T14:42:23Z</time>
      </trkpt>
      <trkpt lat="58.54701" lon="-4.06571">
        <ele>55.13</ele>
        <time>2021-03-20T14:42:27Z</time>
      </trkpt>
      <trkpt lat="58.54712" lon="-4.0654">
        <ele>56.84</ele>
        <time>2021-03-20T14:42:30Z</time>
      </trkpt>
      <trkpt lat="58.54739" lon="-4.06482">
        <ele>59.45</ele>
        <time>2021-03-20T14:42:33Z</time>
      </trkpt>
      <trkpt lat="58.54763" lon="-4.06441">
        <ele>60.9</ele>
        <time>2021-03-20T14:42:37Z</time>
      </trkpt>
      <trkpt lat="58.54799" lon="-4.06394">
        <ele>62.78</ele>
        <time>2021-03-20T14:42:40Z</time>
      </trkpt>
      <trkpt lat="58.54843" lon="-4.06355">
        <ele>65.89</ele>
        <time>2021-03-20T14:42:44Z</time>
      </trkpt>
      <trkpt lat="58.55029" lon="-4.06223">
        <ele>80.03</ele>
        <time>2021-03-20T14:42:47Z</time>
      </trkpt>
      <trkpt lat="58.55095" lon="-4.06171">
        <ele>85.13</ele>
        <time>2021-03-20T14:42:51Z</time>
      </trkpt>
      <trkpt lat="58.55129" lon="-4.06135">
        <ele>87.26</ele>
        <time>2021-03-20T14:42:54Z</time>
      </trkpt>
      <trkpt lat="58.55166" lon="-4.06084">
        <ele>89.96</ele>
        <time>2021-03-20T14:42:57Z</time>
      </trkpt>
      <trkpt lat="58.55195" lon="-4.06032">
        <ele>91.88</ele>
        <time>2021-03-20T14:43:01Z</time>
      </trkpt>
      <trkpt lat="58.55216" lon="-4.05985">
        <ele>94.12</ele>
        <time>2021-03-20T14:43:04Z</time>
      </trkpt>
      <trkpt lat="58.5523" lon="-4.05948">
        <ele>94.87</ele>
        <time>2021-03-20T14:43:08Z</time>
      </trkpt>
      <trkpt lat="58.55246" lon="-4.05896">
        <ele>96.76</ele>
        <time>2021-03-20T14:43:11Z</time>
      </trkpt>
      <trkpt lat="58.55265" lon="-4.05812">
        <ele>98.36</ele>
        <time>2021-03-20T14:43:15Z</time>
      </trkpt>
      <trkpt lat="58.55278" lon="-4.05725">
        <ele>99.89</ele>
        <time>2021-03-20T14:43:18Z</time>
      </trkpt>
      <trkpt lat="58.55289" lon="-4.05637">
        <ele>101</ele>
        <time>2021-03-20T14:43:22Z</time>
      </trkpt>
      <trkpt lat="58.55308" lon="-4.05517">
        <ele>100.06</ele>
        <time>2021-03-20T14:43:25Z</time>
      </trkpt>
      <trkpt lat="58.55584" lon="-4.04186">
        <ele>95.28</ele>
        <time>2021-03-20T14:43:28Z</time>
      </trkpt>
      <trkpt lat="58.55599" lon="-4.04099">
        <ele>97.33</ele>
        <time>2021-03-20T14:43:32Z</time>
      </trkpt>
      <trkpt lat="58.5561" lon="-4.03991">
        <ele>97.15</ele>
        <time>2021-03-20T14:43:35Z</time>
      </trkpt>
      <trkpt lat="58.55613" lon="-4.03934">
        <ele>96</ele>
        <time>2021-03-20T14:43:39Z</time>
      </trkpt>
      <trkpt lat="58.55629" lon="-4.03112">
        <ele>89.37</ele>
        <time>2021-03-20T14:43:42Z</time>
      </trkpt>
      <trkpt lat="58.55634" lon="-4.03032">
        <ele>89.18</ele>
        <time>2021-03-20T14:43:46Z</time>
      </trkpt>
      <trkpt lat="58.55643" lon="-4.02957">
        <ele>87.84</ele>
        <time>2021-03-20T14:43:49Z</time>
      </trkpt>
      <trkpt lat="58.55651" lon="-4.0291">
        <ele>87.8</ele>
        <time>2021-03-20T14:43:53Z</time>
      </trkpt>
      <trkpt lat="58.5566" lon="-4.02871">
        <ele>88.74</ele>
        <time>2021-03-20T14:43:56Z</time>
      </trkpt>
      <trkpt lat="58.55678" lon="-4.02807">
        <ele>89.97</ele>
        <time>2021-03-20T14:43:59Z</time>
      </trkpt>
      <trkpt lat="58.55703" lon="-4.02738">
        <ele>92.1</ele>
        <time>2021-03-20T14:44:03Z</time>
      </trkpt>
      <trkpt lat="58.55729" lon="-4.02684">
        <ele>93.39</ele>
        <time>2021-03-20T14:44:06Z</time>
      </trkpt>
      <trkpt lat="58.55779" lon="-4.02584">
        <ele>95.96</ele>
        <time>2021-03-20T14:44:10Z</time>
      </trkpt>
      <trkpt lat="58.55806" lon="-4.02521">
        <ele>96.21</ele>
        <time>2021-03-20T14:44:13Z</time>
      </trkpt>
      <trkpt lat="58.5582" lon="-4.02481">
        <ele>95.97</ele>
        <time>2021-03-20T14:44:17Z</time>
      </trkpt>
      <trkpt lat="58.55841" lon="-4.02408">
        <ele>95.74</ele>
        <time>2021-03-20T14:44:20Z</time>
      </trkpt>
      <trkpt lat="58.5589" lon="-4.02167">
        <ele>94</ele>
        <time>2021-03-20T14:44:23Z</time>
      </trkpt>
      <trkpt lat="58.55906" lon="-4.02103">
        <ele>93</ele>
        <time>2021-03-20T14:44:27Z</time>
      </trkpt>
      <trkpt lat="58.55923" lon="-4.02061">
        <ele>91.97</ele>
        <time>2021-03-20T14:44:30Z</time>
      </trkpt>
      <trkpt lat="58.56092" lon="-4.01726">
        <ele>74.85</ele>
        <time>2021-03-20T14:44:34Z</time>
      </trkpt>
      <trkpt lat="58.56124" lon="-4.01652">
        <ele>72.53</ele>
        <time>2021-03-20T14:44:37Z</time>
      </trkpt>
      <trkpt lat="58.56161" lon="-4.01547">
        <ele>69.76</ele>
        <time>2021-03-20T14:44:41Z</time>
      </trkpt>
      <trkpt lat="58.56173" lon="-4.01504">
        <ele>67.93</ele>
        <time>2021-03-20T14:44:44Z</time>
      </trkpt>
      <trkpt lat="58.56185" lon="-4.01448">
        <ele>66.14</ele>
        <time>2021-03-20T14:44:48Z</time>
      </trkpt>
      <trkpt lat="58.56216" lon="-4.01272">
        <ele>60.54</ele>
        <time>2021-03-20T14:44:51Z</time>
      </trkpt>
      <trkpt lat="58.5622" lon="-4.01233">
        <ele>59.28</ele>
        <time>2021-03-20T14:44:54Z</time>
      </trkpt>
      <trkpt lat="58.56224" lon="-4.01168">
        <ele>56.12</ele>
        <time>2021-03-20T14:44:58Z</time>
      </trkpt>
      <trkpt lat="58.56223" lon="-4.01107">
        <ele>53.85</ele>
        <time>2021-03-20T14:45:01Z</time>
      </trkpt>
      <trkpt lat="58.56216" lon="-4.00903">
        <ele>45.75</ele>
        <time>2021-03-20T14:45:05Z</time>
      </trkpt>
      <trkpt lat="58.56208" lon="-4.00848">
        <ele>43.33</ele>
        <time>2021-03-20T14:45:08Z</time>
      </trkpt>
      <trkpt lat="58.56187" lon="-4.00737">
        <ele>35.2</ele>
        <time>2021-03-20T14:45:12Z</time>
      </trkpt>
      <trkpt lat="58.56175" lon="-4.00682">
        <ele>32.39</ele>
        <time>2021-03-20T14:45:15Z</time>
      </trkpt>
      <trkpt lat="58.56158" lon="-4.00639">
        <ele>29.61</ele>
        <time>2021-03-20T14:45:19Z</time>
      </trkpt>
      <trkpt lat="58.56141" lon="-4.00611">
        <ele>25.93</ele>
        <time>2021-03-20T14:45:22Z</time>
      </trkpt>
      <trkpt lat="58.56083" lon="-4.00541">
        <ele>22.97</ele>
        <time>2021-03-20T14:45:25Z</time>
      </trkpt>
      <trkpt lat="58.5606" lon="-4.0051">
        <ele>20.88</ele>
        <time>2021-03-20T14:45:29Z</time>
      </trkpt>
      <trkpt lat="58.56043" lon="-4.00483">
        <ele>19.84</ele>
        <time>2021-03-20T14:45:32Z</time>
      </trkpt>
      <trkpt lat="58.56007" lon="-4.00411">
        <ele>16.8</ele>
        <time>2021-03-20T14:45:36Z</time>
      </trkpt>
      <trkpt lat="58.55967" lon="-4.00322">
        <ele>12.33</ele>
        <time>2021-03-20T14:45:39Z</time>
      </trkpt>
      <trkpt lat="58.55835" lon="-3.99986">
        <ele>8.43</ele>
        <time>2021-03-20T14:45:43Z</time>
      </trkpt>
      <trkpt lat="58.55752" lon="-3.99677">
        <ele>23.61</ele>
        <time>2021-03-20T14:45:46Z</time>
      </trkpt>
      <trkpt lat="58.55744" lon="-3.99635">
        <ele>25.15</ele>
        <time>2021-03-20T14:45:50Z</time>
      </trkpt>
      <trkpt lat="58.55742" lon="-3.99594">
        <ele>26.19</ele>
        <time>2021-03-20T14:45:53Z</time>
      </trkpt>
      <trkpt lat="58.55743" lon="-3.99568">
        <ele>26.82</ele>
        <time>2021-03-20T14:45:56Z</time>
      </trkpt>
      <trkpt lat="58.55747" lon="-3.99522">
        <ele>28.21</ele>
        <time>2021-03-20T14:46:00Z</time>
      </trkpt>
      <trkpt lat="58.55759" lon="-3.99456">
        <ele>30.19</ele>
        <time>2021-03-20T14:46:03Z</time>
      </trkpt>
      <trkpt lat="58.55781" lon="-3.99342">
        <ele>36.15</ele>
        <time>2021-03-20T14:46:07Z</time>
      </trkpt>
      <trkpt lat="58.55802" lon="-3.9925">
        <ele>41.47</ele>
        <time>2021-03-20T14:46:10Z</time>
      </trkpt>
      <trkpt lat="58.55815" lon="-3.99202">
        <ele>45.52</ele>
        <time>2021-03-20T14:46:14Z</time>
      </trkpt>
      <trkpt lat="58.55822" lon="-3.99183">
        <ele>47.12</ele>
        <time>2021-03-20T14:46:17Z</time>
      </trkpt>
      <trkpt lat="58.55831" lon="-3.99166">
        <ele>48.7</ele>
        <time>2021-03-20T14:46:20Z</time>
      </trkpt>
      <trkpt lat="58.55846" lon="-3.99149">
        <ele>50.79</ele>
        <time>2021-03-20T14:46:24Z</time>
      </trkpt>
      <trkpt lat="58.55894" lon="-3.99111">
        <ele>56.56</ele>
        <time>2021-03-20T14:46:27Z</time>
      </trkpt>
      <trkpt lat="58.55904" lon="-3.991">
        <ele>57.42</ele>
        <time>2021-03-20T14:46:31Z</time>
      </trkpt>
      <trkpt lat="58.55942" lon="-3.99047">
        <ele>58.83</ele>
        <time>2021-03-20T14:46:34Z</time>
      </trkpt>
      <trkpt lat="58.5596" lon="-3.99013">
        <ele>59.31</ele>
        <time>2021-03-20T14:46:38Z</time>
      </trkpt>
      <trkpt lat="58.55969" lon="-3.98987">
        <ele>59.8</ele>
        <time>2021-03-20T14:46:41Z</time>
      </trkpt>
      <trkpt lat="58.55977" lon="-3.98949">
        <ele>60.82</ele>
        <time>2021-03-20T14:46:45Z</time>
      </trkpt>
      <trkpt lat="58.5598" lon="-3.98926">
        <ele>61.65</ele>
        <time>2021-03-20T14:46:48Z</time>
      </trkpt>
      <trkpt lat="58.55981" lon="-3.98863">
        <ele>63.3</ele>
        <time>2021-03-20T14:46:51Z</time>
      </trkpt>
      <trkpt lat="58.5598" lon="-3.98796">
        <ele>64.63</ele>
        <time>2021-03-20T14:46:55Z</time>
      </trkpt>
      <trkpt lat="58.55975" lon="-3.98723">
        <ele>65.21</ele>
        <time>2021-03-20T14:46:58Z</time>
      </trkpt>
      <trkpt lat="58.55968" lon="-3.98654">
        <ele>66</ele>
        <time>2021-03-20T14:47:02Z</time>
      </trkpt>
      <trkpt lat="58.55959" lon="-3.98593">
        <ele>66</ele>
        <time>2021-03-20T14:47:05Z</time>
      </trkpt>
      <trkpt lat="58.55929" lon="-3.98401">
        <ele>66.57</ele>
        <time>2021-03-20T14:47:09Z</time>
      </trkpt>
      <trkpt lat="58.55922" lon="-3.98349">
        <ele>66.9</ele>
        <time>2021-03-20T14:47:12Z</time>
      </trkpt>
      <trkpt lat="58.55916" lon="-3.98291">
        <ele>68.58</ele>
        <time>2021-03-20T14:47:16Z</time>
      </trkpt>
      <trkpt lat="58.5591" lon="-3.98197">
        <ele>70.9</ele>
        <time>2021-03-20T14:47:19Z</time>
      </trkpt>
      <trkpt lat="58.5591" lon="-3.98153">
        <ele>72.52</ele>
        <time>2021-03-20T14:47:22Z</time>
      </trkpt>
      <trkpt lat="58.55911" lon="-3.98054">
        <ele>77.73</ele>
        <time>2021-03-20T14:47:26Z</time>
      </trkpt>
      <trkpt lat="58.55948" lon="-3.96782">
        <ele>77.03</ele>
        <time>2021-03-20T14:47:29Z</time>
      </trkpt>
      <trkpt lat="58.55952" lon="-3.96699">
        <ele>76.96</ele>
        <time>2021-03-20T14:47:33Z</time>
      </trkpt>
      <trkpt lat="58.55958" lon="-3.96625">
        <ele>79.51</ele>
        <time>2021-03-20T14:47:36Z</time>
      </trkpt>
      <trkpt lat="58.55973" lon="-3.9652">
        <ele>82.23</ele>
        <time>2021-03-20T14:47:40Z</time>
      </trkpt>
      <trkpt lat="58.55988" lon="-3.96449">
        <ele>82.42</ele>
        <time>2021-03-20T14:47:43Z</time>
      </trkpt>
      <trkpt lat="58.56003" lon="-3.96394">
        <ele>82.71</ele>
        <time>2021-03-20T14:47:47Z</time>
      </trkpt>
      <trkpt lat="58.56028" lon="-3.96316">
        <ele>82.97</ele>
        <time>2021-03-20T14:47:50Z</time>
      </trkpt>
      <trkpt lat="58.56046" lon="-3.9627">
        <ele>83.33</ele>
        <time>2021-03-20T14:47:53Z</time>
      </trkpt>
      <trkpt lat="58.56073" lon="-3.96211">
        <ele>83.16</ele>
        <time>2021-03-20T14:47:57Z</time>
      </trkpt>
      <trkpt lat="58.56131" lon="-3.96099">
        <ele>84.49</ele>
        <time>2021-03-20T14:48:00Z</time>
      </trkpt>
      <trkpt lat="58.56171" lon="-3.96014">
        <ele>87.43</ele>
        <time>2021-03-20T14:48:04Z</time>
      </trkpt>
      <trkpt lat="58.56193" lon="-3.95955">
        <ele>88.41</ele>
        <time>2021-03-20T14:48:07Z</time>
      </trkpt>
      <trkpt lat="58.56204" lon="-3.95918">
        <ele>88.65</ele>
        <time>2021-03-20T14:48:11Z</time>
      </trkpt>
      <trkpt lat="58.56211" lon="-3.95886">
        <ele>89.4</ele>
        <time>2021-03-20T14:48:14Z</time>
      </trkpt>
      <trkpt lat="58.56219" lon="-3.95836">
        <ele>89.2</ele>
        <time>2021-03-20T14:48:17Z</time>
      </trkpt>
      <trkpt lat="58.56226" lon="-3.95775">
        <ele>88.75</ele>
        <time>2021-03-20T14:48:21Z</time>
      </trkpt>
      <trkpt lat="58.56227" lon="-3.95735">
        <ele>88.63</ele>
        <time>2021-03-20T14:48:24Z</time>
      </trkpt>
      <trkpt lat="58.56227" lon="-3.95697">
        <ele>87.75</ele>
        <time>2021-03-20T14:48:28Z</time>
      </trkpt>
      <trkpt lat="58.56222" lon="-3.95622">
        <ele>83.24</ele>
        <time>2021-03-20T14:48:31Z</time>
      </trkpt>
      <trkpt lat="58.56213" lon="-3.95563">
        <ele>80.7</ele>
        <time>2021-03-20T14:48:35Z</time>
      </trkpt>
      <trkpt lat="58.56188" lon="-3.95449">
        <ele>78.65</ele>
        <time>2021-03-20T14:48:38Z</time>
      </trkpt>
      <trkpt lat="58.56157" lon="-3.95321">
        <ele>75.89</ele>
        <time>2021-03-20T14:48:42Z</time>
      </trkpt>
      <trkpt lat="58.5598" lon="-3.9458">
        <ele>76.87</ele>
        <time>2021-03-20T14:48:45Z</time>
      </trkpt>
      <trkpt lat="58.5596" lon="-3.94485">
        <ele>74.04</ele>
        <time>2021-03-20T14:48:48Z</time>
      </trkpt>
      <trkpt lat="58.55949" lon="-3.94408">
        <ele>70.36</ele>
        <time>2021-03-20T14:48:52Z</time>
      </trkpt>
      <trkpt lat="58.55944" lon="-3.94327">
        <ele>69.23</ele>
        <time>2021-03-20T14:48:55Z</time>
      </trkpt>
      <trkpt lat="58.55943" lon="-3.94283">
        <ele>70.84</ele>
        <time>2021-03-20T14:48:59Z</time>
      </trkpt>
      <trkpt lat="58.55947" lon="-3.94197">
        <ele>75.63</ele>
        <time>2021-03-20T14:49:02Z</time>
      </trkpt>
      <trkpt lat="58.55955" lon="-3.94115">
        <ele>79.11</ele>
        <time>2021-03-20T14:49:06Z</time>
      </trkpt>
      <trkpt lat="58.55975" lon="-3.93964">
        <ele>84.27</ele>
        <time>2021-03-20T14:49:09Z</time>
      </trkpt>
      <trkpt lat="58.55986" lon="-3.93844">
        <ele>84.22</ele>
        <time>2021-03-20T14:49:13Z</time>
      </trkpt>
      <trkpt lat="58.5599" lon="-3.93718">
        <ele>82.21</ele>
        <time>2021-03-20T14:49:16Z</time>
      </trkpt>
      <trkpt lat="58.5599" lon="-3.9366">
        <ele>79.12</ele>
        <time>2021-03-20T14:49:19Z</time>
      </trkpt>
      <trkpt lat="58.55986" lon="-3.93566">
        <ele>76.7</ele>
        <time>2021-03-20T14:49:23Z</time>
      </trkpt>
      <trkpt lat="58.55982" lon="-3.93501">
        <ele>75.05</ele>
        <time>2021-03-20T14:49:26Z</time>
      </trkpt>
      <trkpt lat="58.55972" lon="-3.93398">
        <ele>72.36</ele>
        <time>2021-03-20T14:49:30Z</time>
      </trkpt>
      <trkpt lat="58.5596" lon="-3.93324">
        <ele>70.98</ele>
        <time>2021-03-20T14:49:33Z</time>
      </trkpt>
      <trkpt lat="58.5595" lon="-3.93281">
        <ele>69.67</ele>
        <time>2021-03-20T14:49:37Z</time>
      </trkpt>
      <trkpt lat="58.55938" lon="-3.93249">
        <ele>68.64</ele>
        <time>2021-03-20T14:49:40Z</time>
      </trkpt>
      <trkpt lat="58.55929" lon="-3.93232">
        <ele>67.96</ele>
        <time>2021-03-20T14:49:44Z</time>
      </trkpt>
      <trkpt lat="58.55908" lon="-3.93203">
        <ele>67.64</ele>
        <time>2021-03-20T14:49:47Z</time>
      </trkpt>
      <trkpt lat="58.55852" lon="-3.93158">
        <ele>64.7</ele>
        <time>2021-03-20T14:49:50Z</time>
      </trkpt>
      <trkpt lat="58.55831" lon="-3.93134">
        <ele>63.77</ele>
        <time>2021-03-20T14:49:54Z</time>
      </trkpt>
      <trkpt lat="58.55807" lon="-3.93102">
        <ele>62.61</ele>
        <time>2021-03-20T14:49:57Z</time>
      </trkpt>
      <trkpt lat="58.55797" lon="-3.93084">
        <ele>62.31</ele>
        <time>2021-03-20T14:50:01Z</time>
      </trkpt>
      <trkpt lat="58.55774" lon="-3.9303">
        <ele>60.43</ele>
        <time>2021-03-20T14:50:04Z</time>
      </trkpt>
      <trkpt lat="58.55757" lon="-3.92966">
        <ele>59.24</ele>
        <time>2021-03-20T14:50:08Z</time>
      </trkpt>
      <trkpt lat="58.55726" lon="-3.9284">
        <ele>57.09</ele>
        <time>2021-03-20T14:50:11Z</time>
      </trkpt>
      <trkpt lat="58.557" lon="-3.92697">
        <ele>56.48</ele>
        <time>2021-03-20T14:50:14Z</time>
      </trkpt>
      <trkpt lat="58.55668" lon="-3.92478">
        <ele>54.85</ele>
        <time>2021-03-20T14:50:18Z</time>
      </trkpt>
      <trkpt lat="58.55655" lon="-3.92423">
        <ele>53.6</ele>
        <time>2021-03-20T14:50:21Z</time>
      </trkpt>
      <trkpt lat="58.55628" lon="-3.92342">
        <ele>51.65</ele>
        <time>2021-03-20T14:50:25Z</time>
      </trkpt>
      <trkpt lat="58.55536" lon="-3.9208">
        <ele>47.58</ele>
        <time>2021-03-20T14:50:28Z</time>
      </trkpt>
      <trkpt lat="58.55513" lon="-3.92019">
        <ele>45.35</ele>
        <time>2021-03-20T14:50:32Z</time>
      </trkpt>
      <trkpt lat="58.55489" lon="-3.91968">
        <ele>43.2</ele>
        <time>2021-03-20T14:50:35Z</time>
      </trkpt>
      <trkpt lat="58.55442" lon="-3.91901">
        <ele>40.94</ele>
        <time>2021-03-20T14:50:39Z</time>
      </trkpt>
      <trkpt lat="58.55423" lon="-3.91878">
        <ele>40.08</ele>
        <time>2021-03-20T14:50:42Z</time>
      </trkpt>
      <trkpt lat="58.55326" lon="-3.91785">
        <ele>36.09</ele>
        <time>2021-03-20T14:50:45Z</time>
      </trkpt>
      <trkpt lat="58.55183" lon="-3.91609">
        <ele>36.3</ele>
        <time>2021-03-20T14:50:49Z</time>
      </trkpt>
      <trkpt lat="58.55114" lon="-3.91535">
        <ele>32.26</ele>
        <time>2021-03-20T14:50:52Z</time>
      </trkpt>
      <trkpt lat="58.55083" lon="-3.91495">
        <ele>30.87</ele>
        <time>2021-03-20T14:50:56Z</time>
      </trkpt>
      <trkpt lat="58.5506" lon="-3.91456">
        <ele>30.63</ele>
        <time>2021-03-20T14:50:59Z</time>
      </trkpt>
      <trkpt lat="58.55048" lon="-3.91432">
        <ele>29.82</ele>
        <time>2021-03-20T14:51:03Z</time>
      </trkpt>
      <trkpt lat="58.54984" lon="-3.91268">
        <ele>26</ele>
        <time>2021-03-20T14:51:06Z</time>
      </trkpt>
      <trkpt lat="58.54954" lon="-3.912">
        <ele>25</ele>
        <time>2021-03-20T14:51:10Z</time>
      </trkpt>
      <trkpt lat="58.54921" lon="-3.91142">
        <ele>22.19</ele>
        <time>2021-03-20T14:51:13Z</time>
      </trkpt>
      <trkpt lat="58.54883" lon="-3.91092">
        <ele>21</ele>
        <time>2021-03-20T14:51:16Z</time>
      </trkpt>
      <trkpt lat="58.54865" lon="-3.91073">
        <ele>20.61</ele>
        <time>2021-03-20T14:51:20Z</time>
      </trkpt>
      <trkpt lat="58.54829" lon="-3.91041">
        <ele>20</ele>
        <time>2021-03-20T14:51:23Z</time>
      </trkpt>
      <trkpt lat="58.54453" lon="-3.90761">
        <ele>24</ele>
        <time>2021-03-20T14:51:27Z</time>
      </trkpt>
      <trkpt lat="58.54423" lon="-3.90734">
        <ele>23.87</ele>
        <time>2021-03-20T14:51:30Z</time>
      </trkpt>
      <trkpt lat="58.54395" lon="-3.90703">
        <ele>23.68</ele>
        <time>2021-03-20T14:51:34Z</time>
      </trkpt>
      <trkpt lat="58.54344" lon="-3.90635">
        <ele>22.34</ele>
        <time>2021-03-20T14:51:37Z</time>
      </trkpt>
      <trkpt lat="58.54329" lon="-3.9061">
        <ele>21.08</ele>
        <time>2021-03-20T14:51:41Z</time>
      </trkpt>
      <trkpt lat="58.5429" lon="-3.90523">
        <ele>17.28</ele>
        <time>2021-03-20T14:51:44Z</time>
      </trkpt>
      <trkpt lat="58.54265" lon="-3.90452">
        <ele>15.65</ele>
        <time>2021-03-20T14:51:47Z</time>
      </trkpt>
      <trkpt lat="58.54238" lon="-3.90358">
        <ele>11.96</ele>
        <time>2021-03-20T14:51:51Z</time>
      </trkpt>
      <trkpt lat="58.54218" lon="-3.90267">
        <ele>7.75</ele>
        <time>2021-03-20T14:51:54Z</time>
      </trkpt>
      <trkpt lat="58.54208" lon="-3.90197">
        <ele>6.52</ele>
        <time>2021-03-20T14:51:58Z</time>
      </trkpt>
      <trkpt lat="58.54203" lon="-3.90152">
        <ele>5.33</ele>
        <time>2021-03-20T14:52:01Z</time>
      </trkpt>
      <trkpt lat="58.54199" lon="-3.90099">
        <ele>4</ele>
        <time>2021-03-20T14:52:05Z</time>
      </trkpt>
      <trkpt lat="58.54195" lon="-3.89997">
        <ele>6.09</ele>
        <time>2021-03-20T14:52:08Z</time>
      </trkpt>
      <trkpt lat="58.54198" lon="-3.89904">
        <ele>10.9</ele>
        <time>2021-03-20T14:52:11Z</time>
      </trkpt>
      <trkpt lat="58.54201" lon="-3.89861">
        <ele>12.01</ele>
        <time>2021-03-20T14:52:15Z</time>
      </trkpt>
      <trkpt lat="58.5421" lon="-3.89786">
        <ele>13</ele>
        <time>2021-03-20T14:52:18Z</time>
      </trkpt>
      <trkpt lat="58.54221" lon="-3.89719">
        <ele>14.01</ele>
        <time>2021-03-20T14:52:22Z</time>
      </trkpt>
      <trkpt lat="58.54244" lon="-3.89617">
        <ele>16</ele>
        <time>2021-03-20T14:52:25Z</time>
      </trkpt>
      <trkpt lat="58.54276" lon="-3.89516">
        <ele>20.39</ele>
        <time>2021-03-20T14:52:29Z</time>
      </trkpt>
      <trkpt lat="58.54297" lon="-3.89464">
        <ele>21.9</ele>
        <time>2021-03-20T14:52:32Z</time>
      </trkpt>
      <trkpt lat="58.54312" lon="-3.89433">
        <ele>23</ele>
        <time>2021-03-20T14:52:36Z</time>
      </trkpt>
      <trkpt lat="58.5434" lon="-3.89379">
        <ele>24</ele>
        <time>2021-03-20T14:52:39Z</time>
      </trkpt>
      <trkpt lat="58.54375" lon="-3.89326">
        <ele>24.48</ele>
        <time>2021-03-20T14:52:42Z</time>
      </trkpt>
      <trkpt lat="58.54408" lon="-3.89284">
        <ele>25.78</ele>
        <time>2021-03-20T14:52:46Z</time>
      </trkpt>
      <trkpt lat="58.54455" lon="-3.8923">
        <ele>28.72</ele>
        <time>2021-03-20T14:52:49Z</time>
      </trkpt>
      <trkpt lat="58.54475" lon="-3.89211">
        <ele>29.32</ele>
        <time>2021-03-20T14:52:53Z</time>
      </trkpt>
      <trkpt lat="58.54537" lon="-3.89165">
        <ele>30.07</ele>
        <time>2021-03-20T14:52:56Z</time>
      </trkpt>
      <trkpt lat="58.54706" lon="-3.89073">
        <ele>35.98</ele>
        <time>2021-03-20T14:53:00Z</time>
      </trkpt>
      <trkpt lat="58.54757" lon="-3.89029">
        <ele>37.98</ele>
        <time>2021-03-20T14:53:03Z</time>
      </trkpt>
      <trkpt lat="58.54869" lon="-3.88919">
        <ele>40.63</ele>
        <time>2021-03-20T14:53:07Z</time>
      </trkpt>
      <trkpt lat="58.54919" lon="-3.88882">
        <ele>40.24</ele>
        <time>2021-03-20T14:53:10Z</time>
      </trkpt>
      <trkpt lat="58.55043" lon="-3.88798">
        <ele>43.26</ele>
        <time>2021-03-20T14:53:13Z</time>
      </trkpt>
      <trkpt lat="58.55062" lon="-3.8878">
        <ele>43.31</ele>
        <time>2021-03-20T14:53:17Z</time>
      </trkpt>
      <trkpt lat="58.5509" lon="-3.88741">
        <ele>43.98</ele>
        <time>2021-03-20T14:53:20Z</time>
      </trkpt>
      <trkpt lat="58.55125" lon="-3.88659">
        <ele>46.01</ele>
        <time>2021-03-20T14:53:24Z</time>
      </trkpt>
      <trkpt lat="58.55136" lon="-3.88624">
        <ele>46.76</ele>
        <time>2021-03-20T14:53:27Z</time>
      </trkpt>
      <trkpt lat="58.55145" lon="-3.88587">
        <ele>47.61</ele>
        <time>2021-03-20T14:53:31Z</time>
      </trkpt>
      <trkpt lat="58.55176" lon="-3.88386">
        <ele>49.39</ele>
        <time>2021-03-20T14:53:34Z</time>
      </trkpt>
      <trkpt lat="58.55183" lon="-3.88317">
        <ele>50.8</ele>
        <time>2021-03-20T14:53:38Z</time>
      </trkpt>
      <trkpt lat="58.55187" lon="-3.88255">
        <ele>50.46</ele>
        <time>2021-03-20T14:53:41Z</time>
      </trkpt>
      <trkpt lat="58.55191" lon="-3.88079">
        <ele>53.81</ele>
        <time>2021-03-20T14:53:44Z</time>
      </trkpt>
      <trkpt lat="58.5519" lon="-3.88032">
        <ele>54.55</ele>
        <time>2021-03-20T14:53:48Z</time>
      </trkpt>
      <trkpt lat="58.55178" lon="-3.87867">
        <ele>55.2</ele>
        <time>2021-03-20T14:53:51Z</time>
      </trkpt>
      <trkpt lat="58.55177" lon="-3.87843">
        <ele>55.15</ele>
        <time>2021-03-20T14:53:55Z</time>
      </trkpt>
      <trkpt lat="58.55182" lon="-3.87776">
        <ele>56.13</ele>
        <time>2021-03-20T14:53:58Z</time>
      </trkpt>
      <trkpt lat="58.55195" lon="-3.87707">
        <ele>58.03</ele>
        <time>2021-03-20T14:54:02Z</time>
      </trkpt>
      <trkpt lat="58.55261" lon="-3.8752">
        <ele>59.29</ele>
        <time>2021-03-20T14:54:05Z</time>
      </trkpt>
      <trkpt lat="58.55292" lon="-3.87402">
        <ele>62.53</ele>
        <time>2021-03-20T14:54:08Z</time>
      </trkpt>
      <trkpt lat="58.55299" lon="-3.87365">
        <ele>63.85</ele>
        <time>2021-03-20T14:54:12Z</time>
      </trkpt>
      <trkpt lat="58.55301" lon="-3.87331">
        <ele>65.94</ele>
        <time>2021-03-20T14:54:15Z</time>
      </trkpt>
      <trkpt lat="58.553" lon="-3.8722">
        <ele>71.84</ele>
        <time>2021-03-20T14:54:19Z</time>
      </trkpt>
      <trkpt lat="58.55306" lon="-3.87169">
        <ele>73.95</ele>
        <time>2021-03-20T14:54:22Z</time>
      </trkpt>
      <trkpt lat="58.55317" lon="-3.87118">
        <ele>74.85</ele>
        <time>2021-03-20T14:54:26Z</time>
      </trkpt>
      <trkpt lat="58.5533" lon="-3.87077">
        <ele>75.55</ele>
        <time>2021-03-20T14:54:29Z</time>
      </trkpt>
      <trkpt lat="58.55349" lon="-3.87041">
        <ele>75.58</ele>
        <time>2021-03-20T14:54:33Z</time>
      </trkpt>
      <trkpt lat="58.55418" lon="-3.86932">
        <ele>79.03</ele>
        <time>2021-03-20T14:54:36Z</time>
      </trkpt>
      <trkpt lat="58.55445" lon="-3.86877">
        <ele>80.02</ele>
        <time>2021-03-20T14:54:39Z</time>
      </trkpt>
      <trkpt lat="58.55459" lon="-3.86823">
        <ele>82.01</ele>
        <time>2021-03-20T14:54:43Z</time>
      </trkpt>
      <trkpt lat="58.55467" lon="-3.86766">
        <ele>82.61</ele>
        <time>2021-03-20T14:54:46Z</time>
      </trkpt>
      <trkpt lat="58.55473" lon="-3.86657">
        <ele>83.04</ele>
        <time>2021-03-20T14:54:50Z</time>
      </trkpt>
      <trkpt lat="58.55467" lon="-3.86525">
        <ele>85.93</ele>
        <time>2021-03-20T14:54:53Z</time>
      </trkpt>
      <trkpt lat="58.55457" lon="-3.86386">
        <ele>88.9</ele>
        <time>2021-03-20T14:54:57Z</time>
      </trkpt>
      <trkpt lat="58.55462" lon="-3.86207">
        <ele>92.17</ele>
        <time>2021-03-20T14:55:00Z</time>
      </trkpt>
      <trkpt lat="58.55491" lon="-3.85812">
        <ele>96.34</ele>
        <time>2021-03-20T14:55:04Z</time>
      </trkpt>
      <trkpt lat="58.55491" lon="-3.85731">
        <ele>95.65</ele>
        <time>2021-03-20T14:55:07Z</time>
      </trkpt>
      <trkpt lat="58.55481" lon="-3.85546">
        <ele>95.04</ele>
        <time>2021-03-20T14:55:10Z</time>
      </trkpt>
      <trkpt lat="58.55468" lon="-3.85335">
        <ele>94.78</ele>
        <time>2021-03-20T14:55:14Z</time>
      </trkpt>
      <trkpt lat="58.55437" lon="-3.85156">
        <ele>95.26</ele>
        <time>2021-03-20T14:55:17Z</time>
      </trkpt>
      <trkpt lat="58.55424" lon="-3.85063">
        <ele>95.53</ele>
        <time>2021-03-20T14:55:21Z</time>
      </trkpt>
      <trkpt lat="58.55424" lon="-3.84975">
        <ele>95.48</ele>
        <time>2021-03-20T14:55:24Z</time>
      </trkpt>
      <trkpt lat="58.55431" lon="-3.849">
        <ele>97.91</ele>
        <time>2021-03-20T14:55:28Z</time>
      </trkpt>
      <trkpt lat="58.55453" lon="-3.84796">
        <ele>99.16</ele>
        <time>2021-03-20T14:55:31Z</time>
      </trkpt>
      <trkpt lat="58.55479" lon="-3.84706">
        <ele>99.53</ele>
        <time>2021-03-20T14:55:34Z</time>
      </trkpt>
      <trkpt lat="58.55582" lon="-3.84385">
        <ele>98.06</ele>
        <time>2021-03-20T14:55:38Z</time>
      </trkpt>
      <trkpt lat="58.55653" lon="-3.84001">
        <ele>96.01</ele>
        <time>2021-03-20T14:55:41Z</time>
      </trkpt>
      <trkpt lat="58.55663" lon="-3.83919">
        <ele>95.25</ele>
        <time>2021-03-20T14:55:45Z</time>
      </trkpt>
      <trkpt lat="58.55667" lon="-3.83843">
        <ele>94.31</ele>
        <time>2021-03-20T14:55:48Z</time>
      </trkpt>
      <trkpt lat="58.55661" lon="-3.83792">
        <ele>93.9</ele>
        <time>2021-03-20T14:55:52Z</time>
      </trkpt>
      <trkpt lat="58.55652" lon="-3.83749">
        <ele>93.02</ele>
        <time>2021-03-20T14:55:55Z</time>
      </trkpt>
      <trkpt lat="58.55633" lon="-3.83687">
        <ele>92.1</ele>
        <time>2021-03-20T14:55:59Z</time>
      </trkpt>
      <trkpt lat="58.55608" lon="-3.83651">
        <ele>90.96</ele>
        <time>2021-03-20T14:56:02Z</time>
      </trkpt>
      <trkpt lat="58.55583" lon="-3.83624">
        <ele>89.37</ele>
        <time>2021-03-20T14:56:05Z</time>
      </trkpt>
      <trkpt lat="58.55533" lon="-3.83588">
        <ele>88</ele>
        <time>2021-03-20T14:56:09Z</time>
      </trkpt>
      <trkpt lat="58.55508" lon="-3.83564">
        <ele>86.63</ele>
        <time>2021-03-20T14:56:12Z</time>
      </trkpt>
      <trkpt lat="58.55483" lon="-3.83523">
        <ele>85.43</ele>
        <time>2021-03-20T14:56:16Z</time>
      </trkpt>
      <trkpt lat="58.55467" lon="-3.83476">
        <ele>84.3</ele>
        <time>2021-03-20T14:56:19Z</time>
      </trkpt>
      <trkpt lat="58.55459" lon="-3.83433">
        <ele>83.49</ele>
        <time>2021-03-20T14:56:23Z</time>
      </trkpt>
      <trkpt lat="58.55454" lon="-3.83386">
        <ele>82.66</ele>
        <time>2021-03-20T14:56:26Z</time>
      </trkpt>
      <trkpt lat="58.55451" lon="-3.83257">
        <ele>81</ele>
        <time>2021-03-20T14:56:30Z</time>
      </trkpt>
      <trkpt lat="58.55454" lon="-3.83158">
        <ele>79.35</ele>
        <time>2021-03-20T14:56:33Z</time>
      </trkpt>
      <trkpt lat="58.55467" lon="-3.83073">
        <ele>75.82</ele>
        <time>2021-03-20T14:56:36Z</time>
      </trkpt>
      <trkpt lat="58.55512" lon="-3.82814">
        <ele>65.56</ele>
        <time>2021-03-20T14:56:40Z</time>
      </trkpt>
      <trkpt lat="58.55544" lon="-3.82523">
        <ele>59.9</ele>
        <time>2021-03-20T14:56:43Z</time>
      </trkpt>
      <trkpt lat="58.55579" lon="-3.82294">
        <ele>57.44</ele>
        <time>2021-03-20T14:56:47Z</time>
      </trkpt>
      <trkpt lat="58.5564" lon="-3.81705">
        <ele>52.05</ele>
        <time>2021-03-20T14:56:50Z</time>
      </trkpt>
      <trkpt lat="58.5563" lon="-3.81307">
        <ele>46.37</ele>
        <time>2021-03-20T14:56:54Z</time>
      </trkpt>
      <trkpt lat="58.55634" lon="-3.81246">
        <ele>45.54</ele>
        <time>2021-03-20T14:56:57Z</time>
      </trkpt>
      <trkpt lat="58.55649" lon="-3.81164">
        <ele>43.26</ele>
        <time>2021-03-20T14:57:01Z</time>
      </trkpt>
      <trkpt lat="58.55681" lon="-3.81032">
        <ele>37.69</ele>
        <time>2021-03-20T14:57:04Z</time>
      </trkpt>
      <trkpt lat="58.55688" lon="-3.8099">
        <ele>36.76</ele>
        <time>2021-03-20T14:57:07Z</time>
      </trkpt>
      <trkpt lat="58.55689" lon="-3.80943">
        <ele>37.84</ele>
        <time>2021-03-20T14:57:11Z</time>
      </trkpt>
      <trkpt lat="58.55685" lon="-3.80697">
        <ele>39.66</ele>
        <time>2021-03-20T14:57:14Z</time>
      </trkpt>
      <trkpt lat="58.55645" lon="-3.79871">
        <ele>26.46</ele>
        <time>2021-03-20T14:57:18Z</time>
      </trkpt>
      <trkpt lat="58.55647" lon="-3.79816">
        <ele>25.86</ele>
        <time>2021-03-20T14:57:21Z</time>
      </trkpt>
      <trkpt lat="58.55671" lon="-3.79485">
        <ele>18.24</ele>
        <time>2021-03-20T14:57:25Z</time>
      </trkpt>
      <trkpt lat="58.55677" lon="-3.79446">
        <ele>16.66</ele>
        <time>2021-03-20T14:57:28Z</time>
      </trkpt>
      <trkpt lat="58.55685" lon="-3.79413">
        <ele>16.34</ele>
        <time>2021-03-20T14:57:31Z</time>
      </trkpt>
      <trkpt lat="58.55711" lon="-3.79348">
        <ele>15.86</ele>
        <time>2021-03-20T14:57:35Z</time>
      </trkpt>
      <trkpt lat="58.5574" lon="-3.79244">
        <ele>15.57</ele>
        <time>2021-03-20T14:57:38Z</time>
      </trkpt>
      <trkpt lat="58.55769" lon="-3.79082">
        <ele>15.31</ele>
        <time>2021-03-20T14:57:42Z</time>
      </trkpt>
      <trkpt lat="58.55909" lon="-3.78239">
        <ele>16.39</ele>
        <time>2021-03-20T14:57:45Z</time>
      </trkpt>
      <trkpt lat="58.55914" lon="-3.78157">
        <ele>16.1</ele>
        <time>2021-03-20T14:57:49Z</time>
      </trkpt>
      <trkpt lat="58.55921" lon="-3.77901">
        <ele>18.08</ele>
        <time>2021-03-20T14:57:52Z</time>
      </trkpt>
      <trkpt lat="58.55918" lon="-3.778">
        <ele>19</ele>
        <time>2021-03-20T14:57:56Z</time>
      </trkpt>
      <trkpt lat="58.55915" lon="-3.77762">
        <ele>18.95</ele>
        <time>2021-03-20T14:57:59Z</time>
      </trkpt>
      <trkpt lat="58.5591" lon="-3.77718">
        <ele>19.74</ele>
        <time>2021-03-20T14:58:02Z</time>
      </trkpt>
      <trkpt lat="58.55899" lon="-3.77659">
        <ele>19.27</ele>
        <time>2021-03-20T14:58:06Z</time>
      </trkpt>
      <trkpt lat="58.55896" lon="-3.77603">
        <ele>17.72</ele>
        <time>2021-03-20T14:58:09Z</time>
      </trkpt>
      <trkpt lat="58.55897" lon="-3.77548">
        <ele>16</ele>
        <time>2021-03-20T14:58:13Z</time>
      </trkpt>
      <trkpt lat="58.55899" lon="-3.77501">
        <ele>16</ele>
        <time>2021-03-20T14:58:16Z</time>
      </trkpt>
      <trkpt lat="58.55905" lon="-3.77454">
        <ele>16.38</ele>
        <time>2021-03-20T14:58:20Z</time>
      </trkpt>
      <trkpt lat="58.55915" lon="-3.77415">
        <ele>16.87</ele>
        <time>2021-03-20T14:58:23Z</time>
      </trkpt>
      <trkpt lat="58.55945" lon="-3.77335">
        <ele>15.97</ele>
        <time>2021-03-20T14:58:27Z</time>
      </trkpt>
      <trkpt lat="58.55986" lon="-3.77245">
        <ele>14.01</ele>
        <time>2021-03-20T14:58:30Z</time>
      </trkpt>
      <trkpt lat="58.56006" lon="-3.77205">
        <ele>14.61</ele>
        <time>2021-03-20T14:58:33Z</time>
      </trkpt>
      <trkpt lat="58.56021" lon="-3.77166">
        <ele>16</ele>
        <time>2021-03-20T14:58:37Z</time>
      </trkpt>
      <trkpt lat="58.56034" lon="-3.7712">
        <ele>16.68</ele>
        <time>2021-03-20T14:58:40Z</time>
      </trkpt>
      <trkpt lat="58.56051" lon="-3.77047">
        <ele>18.33</ele>
        <time>2021-03-20T14:58:44Z</time>
      </trkpt>
      <trkpt lat="58.56061" lon="-3.76993">
        <ele>20.24</ele>
        <time>2021-03-20T14:58:47Z</time>
      </trkpt>
      <trkpt lat="58.56073" lon="-3.76911">
        <ele>22.6</ele>
        <time>2021-03-20T14:58:51Z</time>
      </trkpt>
      <trkpt lat="58.56083" lon="-3.76809">
        <ele>25</ele>
        <time>2021-03-20T14:58:54Z</time>
      </trkpt>
      <trkpt lat="58.56092" lon="-3.76709">
        <ele>26.69</ele>
        <time>2021-03-20T14:58:58Z</time>
      </trkpt>
      <trkpt lat="58.56094" lon="-3.76647">
        <ele>27.6</ele>
        <time>2021-03-20T14:59:01Z</time>
      </trkpt>
      <trkpt lat="58.56095" lon="-3.76586">
        <ele>27.18</ele>
        <time>2021-03-20T14:59:04Z</time>
      </trkpt>
      <trkpt lat="58.56089" lon="-3.76392">
        <ele>23.9</ele>
        <time>2021-03-20T14:59:08Z</time>
      </trkpt>
      <trkpt lat="58.56085" lon="-3.76176">
        <ele>23.54</ele>
        <time>2021-03-20T14:59:11Z</time>
      </trkpt>
      <trkpt lat="58.56088" lon="-3.76149">
        <ele>23.68</ele>
        <time>2021-03-20T14:59:15Z</time>
      </trkpt>
      <trkpt lat="58.56098" lon="-3.76125">
        <ele>22.98</ele>
        <time>2021-03-20T14:59:18Z</time>
      </trkpt>
      <trkpt lat="58.56111" lon="-3.76106">
        <ele>22.99</ele>
        <time>2021-03-20T14:59:22Z</time>
      </trkpt>
      <trkpt lat="58.56147" lon="-3.76078">
        <ele>23.5</ele>
        <time>2021-03-20T14:59:25Z</time>
      </trkpt>
      <trkpt lat="58.5625" lon="-3.75988">
        <ele>26.99</ele>
        <time>2021-03-20T14:59:28Z</time>
      </trkpt>
      <trkpt lat="58.56415" lon="-3.75824">
        <ele>32.33</ele>
        <time>2021-03-20T14:59:32Z</time>
      </trkpt>
      <trkpt lat="58.56437" lon="-3.75792">
        <ele>33.5</ele>
        <time>2021-03-20T14:59:35Z</time>
      </trkpt>
      <trkpt lat="58.5659" lon="-3.75521">
        <ele>39.96</ele>
        <time>2021-03-20T14:59:39Z</time>
      </trkpt>
      <trkpt lat="58.56621" lon="-3.75452">
        <ele>39.11</ele>
        <time>2021-03-20T14:59:42Z</time>
      </trkpt>
      <trkpt lat="58.56838" lon="-3.74832">
        <ele>35</ele>
        <time>2021-03-20T14:59:46Z</time>
      </trkpt>
      <trkpt lat="58.56868" lon="-3.74751">
        <ele>34.74</ele>
        <time>2021-03-20T14:59:49Z</time>
      </trkpt>
      <trkpt lat="58.56995" lon="-3.74448">
        <ele>29.3</ele>
        <time>2021-03-20T14:59:53Z</time>
      </trkpt>
      <trkpt lat="58.57125" lon="-3.74129">
        <ele>27.15</ele>
        <time>2021-03-20T14:59:56Z</time>
      </trkpt>
      <trkpt lat="58.57164" lon="-3.73993">
        <ele>25</ele>
        <time>2021-03-20T14:59:59Z</time>
      </trkpt>
      <trkpt lat="58.57215" lon="-3.73842">
        <ele>23.09</ele>
        <time>2021-03-20T15:00:03Z</time>
      </trkpt>
      <trkpt lat="58.57275" lon="-3.73649">
        <ele>23</ele>
        <time>2021-03-20T15:00:06Z</time>
      </trkpt>
      <trkpt lat="58.57346" lon="-3.73433">
        <ele>23</ele>
        <time>2021-03-20T15:00:10Z</time>
      </trkpt>
      <trkpt lat="58.57381" lon="-3.73349">
        <ele>23.32</ele>
        <time>2021-03-20T15:00:13Z</time>
      </trkpt>
      <trkpt lat="58.57457" lon="-3.73222">
        <ele>24.46</ele>
        <time>2021-03-20T15:00:17Z</time>
      </trkpt>
      <trkpt lat="58.57885" lon="-3.72667">
        <ele>30</ele>
        <time>2021-03-20T15:00:20Z</time>
      </trkpt>
      <trkpt lat="58.57996" lon="-3.7252">
        <ele>36.13</ele>
        <time>2021-03-20T15:00:24Z</time>
      </trkpt>
      <trkpt lat="58.58251" lon="-3.71881">
        <ele>43</ele>
        <time>2021-03-20T15:00:27Z</time>
      </trkpt>
      <trkpt lat="58.58294" lon="-3.71766">
        <ele>44.57</ele>
        <time>2021-03-20T15:00:30Z</time>
      </trkpt>
      <trkpt lat="58.58518" lon="-3.71213">
        <ele>48.37</ele>
        <time>2021-03-20T15:00:34Z</time>
      </trkpt>
      <trkpt lat="58.59093" lon="-3.69763">
        <ele>49.64</ele>
        <time>2021-03-20T15:00:37Z</time>
      </trkpt>
      <trkpt lat="58.59674" lon="-3.68308">
        <ele>42</ele>
        <time>2021-03-20T15:00:41Z</time>
      </trkpt>
      <trkpt lat="58.59688" lon="-3.68267">
        <ele>41</ele>
        <time>2021-03-20T15:00:44Z</time>
      </trkpt>
      <trkpt lat="58.59691" lon="-3.68244">
        <ele>40.79</ele>
        <time>2021-03-20T15:00:48Z</time>
      </trkpt>
      <trkpt lat="58.59693" lon="-3.68222">
        <ele>40</ele>
        <time>2021-03-20T15:00:51Z</time>
      </trkpt>
      <trkpt lat="58.5969" lon="-3.68175">
        <ele>39.9</ele>
        <time>2021-03-20T15:00:55Z</time>
      </trkpt>
      <trkpt lat="58.59664" lon="-3.67959">
        <ele>39.89</ele>
        <time>2021-03-20T15:00:58Z</time>
      </trkpt>
      <trkpt lat="58.59603" lon="-3.67501">
        <ele>38.73</ele>
        <time>2021-03-20T15:01:01Z</time>
      </trkpt>
      <trkpt lat="58.59562" lon="-3.67181">
        <ele>35.62</ele>
        <time>2021-03-20T15:01:05Z</time>
      </trkpt>
      <trkpt lat="58.59547" lon="-3.67031">
        <ele>34.7</ele>
        <time>2021-03-20T15:01:08Z</time>
      </trkpt>
      <trkpt lat="58.59541" lon="-3.66896">
        <ele>31.7</ele>
        <time>2021-03-20T15:01:12Z</time>
      </trkpt>
      <trkpt lat="58.59533" lon="-3.6678">
        <ele>28.08</ele>
        <time>2021-03-20T15:01:15Z</time>
      </trkpt>
      <trkpt lat="58.59517" lon="-3.66606">
        <ele>25</ele>
        <time>2021-03-20T15:01:19Z</time>
      </trkpt>
      <trkpt lat="58.59511" lon="-3.66562">
        <ele>24.23</ele>
        <time>2021-03-20T15:01:22Z</time>
      </trkpt>
      <trkpt lat="58.59494" lon="-3.66455">
        <ele>23.79</ele>
        <time>2021-03-20T15:01:25Z</time>
      </trkpt>
      <trkpt lat="58.59411" lon="-3.66165">
        <ele>18.14</ele>
        <time>2021-03-20T15:01:29Z</time>
      </trkpt>
      <trkpt lat="58.59404" lon="-3.66113">
        <ele>16.95</ele>
        <time>2021-03-20T15:01:32Z</time>
      </trkpt>
      <trkpt lat="58.59404" lon="-3.66066">
        <ele>16.27</ele>
        <time>2021-03-20T15:01:36Z</time>
      </trkpt>
      <trkpt lat="58.59415" lon="-3.66002">
        <ele>15.05</ele>
        <time>2021-03-20T15:01:39Z</time>
      </trkpt>
      <trkpt lat="58.59438" lon="-3.65929">
        <ele>14.23</ele>
        <time>2021-03-20T15:01:43Z</time>
      </trkpt>
      <trkpt lat="58.59461" lon="-3.65882">
        <ele>14.39</ele>
        <time>2021-03-20T15:01:46Z</time>
      </trkpt>
      <trkpt lat="58.59496" lon="-3.65837">
        <ele>14</ele>
        <time>2021-03-20T15:01:50Z</time>
      </trkpt>
      <trkpt lat="58.59543" lon="-3.65787">
        <ele>18.01</ele>
        <time>2021-03-20T15:01:53Z</time>
      </trkpt>
      <trkpt lat="58.59558" lon="-3.65758">
        <ele>20.22</ele>
        <time>2021-03-20T15:01:56Z</time>
      </trkpt>
      <trkpt lat="58.5957" lon="-3.65727">
        <ele>21.93</ele>
        <time>2021-03-20T15:02:00Z</time>
      </trkpt>
      <trkpt lat="58.59649" lon="-3.65185">
        <ele>31</ele>
        <time>2021-03-20T15:02:03Z</time>
      </trkpt>
      <trkpt lat="58.59677" lon="-3.65005">
        <ele>32.51</ele>
        <time>2021-03-20T15:02:07Z</time>
      </trkpt>
      <trkpt lat="58.60014" lon="-3.62993">
        <ele>61</ele>
        <time>2021-03-20T15:02:10Z</time>
      </trkpt>
      <trkpt lat="58.60028" lon="-3.62922">
        <ele>62.8</ele>
        <time>2021-03-20T15:02:14Z</time>
      </trkpt>
      <trkpt lat="58.60036" lon="-3.62894">
        <ele>63.53</ele>
        <time>2021-03-20T15:02:17Z</time>
      </trkpt>
      <trkpt lat="58.60064" lon="-3.62828">
        <ele>65.15</ele>
        <time>2021-03-20T15:02:21Z</time>
      </trkpt>
      <trkpt lat="58.60078" lon="-3.62803">
        <ele>65.27</ele>
        <time>2021-03-20T15:02:24Z</time>
      </trkpt>
      <trkpt lat="58.60158" lon="-3.62693">
        <ele>68.04</ele>
        <time>2021-03-20T15:02:27Z</time>
      </trkpt>
      <trkpt lat="58.60183" lon="-3.62639">
        <ele>69.39</ele>
        <time>2021-03-20T15:02:31Z</time>
      </trkpt>
      <trkpt lat="58.60214" lon="-3.62552">
        <ele>71.39</ele>
        <time>2021-03-20T15:02:34Z</time>
      </trkpt>
      <trkpt lat="58.60255" lon="-3.62423">
        <ele>72.83</ele>
        <time>2021-03-20T15:02:38Z</time>
      </trkpt>
      <trkpt lat="58.60269" lon="-3.6237">
        <ele>73.32</ele>
        <time>2021-03-20T15:02:41Z</time>
      </trkpt>
      <trkpt lat="58.60284" lon="-3.62294">
        <ele>74.22</ele>
        <time>2021-03-20T15:02:45Z</time>
      </trkpt>
      <trkpt lat="58.60311" lon="-3.62025">
        <ele>75.89</ele>
        <time>2021-03-20T15:02:48Z</time>
      </trkpt>
      <trkpt lat="58.60316" lon="-3.61992">
        <ele>76.37</ele>
        <time>2021-03-20T15:02:52Z</time>
      </trkpt>
      <trkpt lat="58.60336" lon="-3.61889">
        <ele>77.79</ele>
        <time>2021-03-20T15:02:55Z</time>
      </trkpt>
      <trkpt lat="58.60355" lon="-3.61814">
        <ele>78.31</ele>
        <time>2021-03-20T15:02:59Z</time>
      </trkpt>
      <trkpt lat="58.60355" lon="-3.61814">
        <ele>78.31</ele>
        <time>2021-03-20T15:02:59Z</time>
      </trkpt>
      <trkpt lat="58.60365" lon="-3.61775">
        <ele>78.84</ele>
        <time>2021-03-20T15:03:05Z</time>
      </trkpt>
      <trkpt lat="58.60392" lon="-3.61566">
        <ele>81.43</ele>
        <time>2021-03-20T15:03:10Z</time>
      </trkpt>
      <trkpt lat="58.60402" lon="-3.61438">
        <ele>83.15</ele>
        <time>2021-03-20T15:03:16Z</time>
      </trkpt>
      <trkpt lat="58.6042" lon="-3.61135">
        <ele>86.67</ele>
        <time>2021-03-20T15:03:22Z</time>
      </trkpt>
      <trkpt lat="58.60425" lon="-3.60919">
        <ele>89.37</ele>
        <time>2021-03-20T15:03:28Z</time>
      </trkpt>
      <trkpt lat="58.60424" lon="-3.6071">
        <ele>91.19</ele>
        <time>2021-03-20T15:03:33Z</time>
      </trkpt>
      <trkpt lat="58.60413" lon="-3.60316">
        <ele>98.15</ele>
        <time>2021-03-20T15:03:39Z</time>
      </trkpt>
      <trkpt lat="58.60407" lon="-3.6023">
        <ele>98.77</ele>
        <time>2021-03-20T15:03:45Z</time>
      </trkpt>
      <trkpt lat="58.60352" lon="-3.59615">
        <ele>103.39</ele>
        <time>2021-03-20T15:03:50Z</time>
      </trkpt>
      <trkpt lat="58.60345" lon="-3.59528">
        <ele>103.57</ele>
        <time>2021-03-20T15:03:56Z</time>
      </trkpt>
      <trkpt lat="58.60343" lon="-3.59441">
        <ele>103.64</ele>
        <time>2021-03-20T15:04:02Z</time>
      </trkpt>
      <trkpt lat="58.60354" lon="-3.59287">
        <ele>103.5</ele>
        <time>2021-03-20T15:04:07Z</time>
      </trkpt>
      <trkpt lat="58.60386" lon="-3.58947">
        <ele>98.98</ele>
        <time>2021-03-20T15:04:13Z</time>
      </trkpt>
      <trkpt lat="58.60424" lon="-3.58603">
        <ele>93</ele>
        <time>2021-03-20T15:04:19Z</time>
      </trkpt>
      <trkpt lat="58.60435" lon="-3.5849">
        <ele>92.29</ele>
        <time>2021-03-20T15:04:25Z</time>
      </trkpt>
      <trkpt lat="58.60439" lon="-3.58314">
        <ele>90</ele>
        <time>2021-03-20T15:04:30Z</time>
      </trkpt>
      <trkpt lat="58.60422" lon="-3.57802">
        <ele>81.69</ele>
        <time>2021-03-20T15:04:36Z</time>
      </trkpt>
      <trkpt lat="58.60402" lon="-3.57642">
        <ele>78.57</ele>
        <time>2021-03-20T15:04:42Z</time>
      </trkpt>
      <trkpt lat="58.60384" lon="-3.57544">
        <ele>75.58</ele>
        <time>2021-03-20T15:04:47Z</time>
      </trkpt>
      <trkpt lat="58.60368" lon="-3.57478">
        <ele>74</ele>
        <time>2021-03-20T15:04:53Z</time>
      </trkpt>
      <trkpt lat="58.60352" lon="-3.57445">
        <ele>73.03</ele>
        <time>2021-03-20T15:04:59Z</time>
      </trkpt>
      <trkpt lat="58.60312" lon="-3.57393">
        <ele>71.13</ele>
        <time>2021-03-20T15:05:05Z</time>
      </trkpt>
      <trkpt lat="58.60193" lon="-3.57276">
        <ele>66.94</ele>
        <time>2021-03-20T15:05:10Z</time>
      </trkpt>
      <trkpt lat="58.59987" lon="-3.57086">
        <ele>54.62</ele>
        <time>2021-03-20T15:05:16Z</time>
      </trkpt>
      <trkpt lat="58.5995" lon="-3.57024">
        <ele>52.04</ele>
        <time>2021-03-20T15:05:22Z</time>
      </trkpt>
      <trkpt lat="58.59931" lon="-3.5698">
        <ele>50.53</ele>
        <time>2021-03-20T15:05:27Z</time>
      </trkpt>
      <trkpt lat="58.59917" lon="-3.56929">
        <ele>48.45</ele>
        <time>2021-03-20T15:05:33Z</time>
      </trkpt>
      <trkpt lat="58.59907" lon="-3.56888">
        <ele>46.62</ele>
        <time>2021-03-20T15:05:39Z</time>
      </trkpt>
      <trkpt lat="58.5989" lon="-3.56739">
        <ele>43.59</ele>
        <time>2021-03-20T15:05:45Z</time>
      </trkpt>
      <trkpt lat="58.5985" lon="-3.56271">
        <ele>33</ele>
        <time>2021-03-20T15:05:50Z</time>
      </trkpt>
      <trkpt lat="58.59791" lon="-3.55655">
        <ele>23.52</ele>
        <time>2021-03-20T15:05:56Z</time>
      </trkpt>
      <trkpt lat="58.59789" lon="-3.55599">
        <ele>22.61</ele>
        <time>2021-03-20T15:06:02Z</time>
      </trkpt>
      <trkpt lat="58.59791" lon="-3.55544">
        <ele>22.52</ele>
        <time>2021-03-20T15:06:07Z</time>
      </trkpt>
      <trkpt lat="58.59796" lon="-3.55491">
        <ele>22.35</ele>
        <time>2021-03-20T15:06:13Z</time>
      </trkpt>
      <trkpt lat="58.59812" lon="-3.55353">
        <ele>22</ele>
        <time>2021-03-20T15:06:19Z</time>
      </trkpt>
      <trkpt lat="58.5982" lon="-3.55261">
        <ele>22</ele>
        <time>2021-03-20T15:06:25Z</time>
      </trkpt>
      <trkpt lat="58.5982" lon="-3.55191">
        <ele>21</ele>
        <time>2021-03-20T15:06:30Z</time>
      </trkpt>
      <trkpt lat="58.59815" lon="-3.55134">
        <ele>20.83</ele>
        <time>2021-03-20T15:06:36Z</time>
      </trkpt>
      <trkpt lat="58.598" lon="-3.55019">
        <ele>19.89</ele>
        <time>2021-03-20T15:06:42Z</time>
      </trkpt>
      <trkpt lat="58.59761" lon="-3.54728">
        <ele>20.41</ele>
        <time>2021-03-20T15:06:47Z</time>
      </trkpt>
      <trkpt lat="58.59764" lon="-3.54678">
        <ele>20.79</ele>
        <time>2021-03-20T15:06:53Z</time>
      </trkpt>
      <trkpt lat="58.59834" lon="-3.53886">
        <ele>20.98</ele>
        <time>2021-03-20T15:06:59Z</time>
      </trkpt>
      <trkpt lat="58.59842" lon="-3.53767">
        <ele>21.7</ele>
        <time>2021-03-20T15:07:05Z</time>
      </trkpt>
      <trkpt lat="58.59841" lon="-3.53723">
        <ele>21.71</ele>
        <time>2021-03-20T15:07:10Z</time>
      </trkpt>
      <trkpt lat="58.59839" lon="-3.53663">
        <ele>21.61</ele>
        <time>2021-03-20T15:07:16Z</time>
      </trkpt>
      <trkpt lat="58.59806" lon="-3.53277">
        <ele>22.94</ele>
        <time>2021-03-20T15:07:22Z</time>
      </trkpt>
      <trkpt lat="58.59545" lon="-3.53361">
        <ele>38.37</ele>
        <time>2021-03-20T15:07:31Z</time>
      </trkpt>
      <trkpt lat="58.59498" lon="-3.53373">
        <ele>40.12</ele>
        <time>2021-03-20T15:07:40Z</time>
      </trkpt>
      <trkpt lat="58.5937" lon="-3.53368">
        <ele>45.67</ele>
        <time>2021-03-20T15:07:49Z</time>
      </trkpt>
      <trkpt lat="58.59328" lon="-3.53363">
        <ele>47.01</ele>
        <time>2021-03-20T15:07:58Z</time>
      </trkpt>
      <trkpt lat="58.5931" lon="-3.53352">
        <ele>46.68</ele>
        <time>2021-03-20T15:08:07Z</time>
      </trkpt>
      <trkpt lat="58.59277" lon="-3.53322">
        <ele>47</ele>
        <time>2021-03-20T15:08:17Z</time>
      </trkpt>
      <trkpt lat="58.59176" lon="-3.53166">
        <ele>42.29</ele>
        <time>2021-03-20T15:08:26Z</time>
      </trkpt>
      <trkpt lat="58.59142" lon="-3.53068">
        <ele>38.45</ele>
        <time>2021-03-20T15:08:35Z</time>
      </trkpt>
      <trkpt lat="58.59065" lon="-3.52829">
        <ele>29.53</ele>
        <time>2021-03-20T15:08:44Z</time>
      </trkpt>
      <trkpt lat="58.59049" lon="-3.52812">
        <ele>27.76</ele>
        <time>2021-03-20T15:08:53Z</time>
      </trkpt>
      <trkpt lat="58.59058" lon="-3.5278">
        <ele>27.28</ele>
        <time>2021-03-20T15:08:55Z</time>
      </trkpt>
      <trkpt lat="58.59049" lon="-3.52769">
        <ele>26.21</ele>
        <time>2021-03-20T15:09:03Z</time>
      </trkpt>
      <trkpt lat="58.58979" lon="-3.52537">
        <ele>14.49</ele>
        <time>2021-03-20T15:09:11Z</time>
      </trkpt>
      <trkpt lat="58.5905" lon="-3.52421">
        <ele>10.93</ele>
        <time>2021-03-20T15:09:24Z</time>
      </trkpt>
      <trkpt lat="58.59281" lon="-3.52054">
        <ele>7.09</ele>
        <time>2021-03-20T15:09:38Z</time>
      </trkpt>
      <trkpt lat="58.59288" lon="-3.52048">
        <ele>7.08</ele>
        <time>2021-03-20T15:09:52Z</time>
      </trkpt>
      <trkpt lat="58.59276" lon="-3.52024">
        <ele>5.84</ele>
        <time>2021-03-20T15:09:57Z</time>
      </trkpt>
      <trkpt lat="58.59191" lon="-3.51805">
        <ele>5</ele>
        <time>2021-03-20T15:10:01Z</time>
      </trkpt>
      <trkpt lat="58.5917" lon="-3.51754">
        <ele>5.9</ele>
        <time>2021-03-20T15:10:06Z</time>
      </trkpt>
      <trkpt lat="58.59165" lon="-3.51738">
        <ele>5.59</ele>
        <time>2021-03-20T15:10:14Z</time>
      </trkpt>
      <trkpt lat="58.59163" lon="-3.51717">
        <ele>5.12</ele>
        <time>2021-03-20T15:10:22Z</time>
      </trkpt>
      <trkpt lat="58.5918" lon="-3.51585">
        <ele>5.51</ele>
        <time>2021-03-20T15:10:30Z</time>
      </trkpt>
      <trkpt lat="58.59194" lon="-3.51496">
        <ele>6.22</ele>
        <time>2021-03-20T15:10:38Z</time>
      </trkpt>
      <trkpt lat="58.59223" lon="-3.5141">
        <ele>8.45</ele>
        <time>2021-03-20T15:10:46Z</time>
      </trkpt>
      <trkpt lat="58.59267" lon="-3.51318">
        <ele>9.94</ele>
        <time>2021-03-20T15:10:54Z</time>
      </trkpt>
      <trkpt lat="58.59314" lon="-3.5123">
        <ele>11.41</ele>
        <time>2021-03-20T15:11:02Z</time>
      </trkpt>
      <trkpt lat="58.59539" lon="-3.50852">
        <ele>17.93</ele>
        <time>2021-03-20T15:11:10Z</time>
      </trkpt>
      <trkpt lat="58.59557" lon="-3.50789">
        <ele>19.54</ele>
        <time>2021-03-20T15:11:18Z</time>
      </trkpt>
      <trkpt lat="58.59561" lon="-3.5076">
        <ele>19.81</ele>
        <time>2021-03-20T15:11:26Z</time>
      </trkpt>
      <trkpt lat="58.59563" lon="-3.50732">
        <ele>19.75</ele>
        <time>2021-03-20T15:11:34Z</time>
      </trkpt>
      <trkpt lat="58.59559" lon="-3.50688">
        <ele>20.99</ele>
        <time>2021-03-20T15:11:42Z</time>
      </trkpt>
      <trkpt lat="58.59552" lon="-3.50656">
        <ele>22.12</ele>
        <time>2021-03-20T15:11:50Z</time>
      </trkpt>
      <trkpt lat="58.59542" lon="-3.50622">
        <ele>23.1</ele>
        <time>2021-03-20T15:11:57Z</time>
      </trkpt>
      <trkpt lat="58.59526" lon="-3.50578">
        <ele>24.06</ele>
        <time>2021-03-20T15:12:05Z</time>
      </trkpt>
      <trkpt lat="58.59498" lon="-3.50515">
        <ele>25.07</ele>
        <time>2021-03-20T15:12:13Z</time>
      </trkpt>
      <trkpt lat="58.59459" lon="-3.50419">
        <ele>27.48</ele>
        <time>2021-03-20T15:12:21Z</time>
      </trkpt>
      <trkpt lat="58.59432" lon="-3.5031">
        <ele>29.46</ele>
        <time>2021-03-20T15:12:29Z</time>
      </trkpt>
      <trkpt lat="58.5942" lon="-3.50239">
        <ele>29.92</ele>
        <time>2021-03-20T15:12:37Z</time>
      </trkpt>
      <trkpt lat="58.59384" lon="-3.49877">
        <ele>32.16</ele>
        <time>2021-03-20T15:12:45Z</time>
      </trkpt>
      <trkpt lat="58.59374" lon="-3.49791">
        <ele>32.54</ele>
        <time>2021-03-20T15:12:53Z</time>
      </trkpt>
      <trkpt lat="58.59367" lon="-3.49759">
        <ele>32.78</ele>
        <time>2021-03-20T15:13:01Z</time>
      </trkpt>
      <trkpt lat="58.59357" lon="-3.49721">
        <ele>32.16</ele>
        <time>2021-03-20T15:13:09Z</time>
      </trkpt>
      <trkpt lat="58.59258" lon="-3.49473">
        <ele>34.73</ele>
        <time>2021-03-20T15:13:17Z</time>
      </trkpt>
      <trkpt lat="58.59245" lon="-3.49423">
        <ele>34</ele>
        <time>2021-03-20T15:13:25Z</time>
      </trkpt>
      <trkpt lat="58.59237" lon="-3.49366">
        <ele>33.46</ele>
        <time>2021-03-20T15:13:33Z</time>
      </trkpt>
      <trkpt lat="58.59236" lon="-3.49293">
        <ele>33.52</ele>
        <time>2021-03-20T15:13:41Z</time>
      </trkpt>
      <trkpt lat="58.59244" lon="-3.49109">
        <ele>34.23</ele>
        <time>2021-03-20T15:13:48Z</time>
      </trkpt>
      <trkpt lat="58.59315" lon="-3.4708">
        <ele>41.96</ele>
        <time>2021-03-20T15:13:56Z</time>
      </trkpt>
      <trkpt lat="58.59372" lon="-3.45511">
        <ele>23</ele>
        <time>2021-03-20T15:14:04Z</time>
      </trkpt>
      <trkpt lat="58.59389" lon="-3.44992">
        <ele>18</ele>
        <time>2021-03-20T15:14:12Z</time>
      </trkpt>
      <trkpt lat="58.5941" lon="-3.44446">
        <ele>21.96</ele>
        <time>2021-03-20T15:14:20Z</time>
      </trkpt>
      <trkpt lat="58.59432" lon="-3.43764">
        <ele>35.43</ele>
        <time>2021-03-20T15:14:28Z</time>
      </trkpt>
      <trkpt lat="58.59506" lon="-3.41796">
        <ele>43.79</ele>
        <time>2021-03-20T15:14:36Z</time>
      </trkpt>
      <trkpt lat="58.59537" lon="-3.40857">
        <ele>36.54</ele>
        <time>2021-03-20T15:14:44Z</time>
      </trkpt>
      <trkpt lat="58.59544" lon="-3.40357">
        <ele>30.09</ele>
        <time>2021-03-20T15:14:52Z</time>
      </trkpt>
      <trkpt lat="58.59547" lon="-3.40036">
        <ele>30.69</ele>
        <time>2021-03-20T15:15:00Z</time>
      </trkpt>
      <trkpt lat="58.59546" lon="-3.39976">
        <ele>30</ele>
        <time>2021-03-20T15:15:08Z</time>
      </trkpt>
      <trkpt lat="58.59541" lon="-3.39936">
        <ele>30.47</ele>
        <time>2021-03-20T15:15:16Z</time>
      </trkpt>
      <trkpt lat="58.59531" lon="-3.39892">
        <ele>30.01</ele>
        <time>2021-03-20T15:15:24Z</time>
      </trkpt>
      <trkpt lat="58.59077" lon="-3.38406">
        <ele>23</ele>
        <time>2021-03-20T15:15:32Z</time>
      </trkpt>
      <trkpt lat="58.59073" lon="-3.38387">
        <ele>23</ele>
        <time>2021-03-20T15:15:39Z</time>
      </trkpt>
      <trkpt lat="58.59074" lon="-3.38366">
        <ele>23</ele>
        <time>2021-03-20T15:15:47Z</time>
      </trkpt>
      <trkpt lat="58.5908" lon="-3.38351">
        <ele>22.96</ele>
        <time>2021-03-20T15:15:55Z</time>
      </trkpt>
      <trkpt lat="58.5909" lon="-3.38336">
        <ele>23.02</ele>
        <time>2021-03-20T15:16:03Z</time>
      </trkpt>
      <trkpt lat="58.59191" lon="-3.3821">
        <ele>19.12</ele>
        <time>2021-03-20T15:16:11Z</time>
      </trkpt>
      <trkpt lat="58.59224" lon="-3.38165">
        <ele>18.94</ele>
        <time>2021-03-20T15:16:19Z</time>
      </trkpt>
      <trkpt lat="58.59243" lon="-3.38125">
        <ele>18.12</ele>
        <time>2021-03-20T15:16:27Z</time>
      </trkpt>
      <trkpt lat="58.59259" lon="-3.38064">
        <ele>17.89</ele>
        <time>2021-03-20T15:16:35Z</time>
      </trkpt>
      <trkpt lat="58.59266" lon="-3.38">
        <ele>18.41</ele>
        <time>2021-03-20T15:16:43Z</time>
      </trkpt>
      <trkpt lat="58.59266" lon="-3.37888">
        <ele>16.38</ele>
        <time>2021-03-20T15:16:51Z</time>
      </trkpt>
      <trkpt lat="58.59299" lon="-3.37802">
        <ele>13.12</ele>
        <time>2021-03-20T15:16:59Z</time>
      </trkpt>
      <trkpt lat="58.5938" lon="-3.37615">
        <ele>8.48</ele>
        <time>2021-03-20T15:17:07Z</time>
      </trkpt>
      <trkpt lat="58.59381" lon="-3.37594">
        <ele>7.87</ele>
        <time>2021-03-20T15:17:15Z</time>
      </trkpt>
      <trkpt lat="58.5938" lon="-3.37564">
        <ele>6.94</ele>
        <time>2021-03-20T15:17:23Z</time>
      </trkpt>
      <trkpt lat="58.59374" lon="-3.37534">
        <ele>7.08</ele>
        <time>2021-03-20T15:17:30Z</time>
      </trkpt>
      <trkpt lat="58.59319" lon="-3.37357">
        <ele>7</ele>
        <time>2021-03-20T15:17:38Z</time>
      </trkpt>
      <trkpt lat="58.59301" lon="-3.37271">
        <ele>6</ele>
        <time>2021-03-20T15:17:46Z</time>
      </trkpt>
      <trkpt lat="58.59301" lon="-3.3721">
        <ele>6</ele>
        <time>2021-03-20T15:17:54Z</time>
      </trkpt>
      <trkpt lat="58.59325" lon="-3.37046">
        <ele>5.71</ele>
        <time>2021-03-20T15:18:02Z</time>
      </trkpt>
      <trkpt lat="58.59421" lon="-3.36539">
        <ele>8.15</ele>
        <time>2021-03-20T15:18:10Z</time>
      </trkpt>
      <trkpt lat="58.5945" lon="-3.36311">
        <ele>9.21</ele>
        <time>2021-03-20T15:18:18Z</time>
      </trkpt>
      <trkpt lat="58.59481" lon="-3.36183">
        <ele>10.18</ele>
        <time>2021-03-20T15:18:26Z</time>
      </trkpt>
      <trkpt lat="58.59518" lon="-3.36055">
        <ele>8.66</ele>
        <time>2021-03-20T15:18:34Z</time>
      </trkpt>
      <trkpt lat="58.59587" lon="-3.35865">
        <ele>10.3</ele>
        <time>2021-03-20T15:18:42Z</time>
      </trkpt>
      <trkpt lat="58.59646" lon="-3.35717">
        <ele>9</ele>
        <time>2021-03-20T15:18:50Z</time>
      </trkpt>
      <trkpt lat="58.59712" lon="-3.35561">
        <ele>7</ele>
        <time>2021-03-20T15:18:58Z</time>
      </trkpt>
      <trkpt lat="58.59782" lon="-3.3541">
        <ele>8</ele>
        <time>2021-03-20T15:19:06Z</time>
      </trkpt>
      <trkpt lat="58.5987" lon="-3.35256">
        <ele>9</ele>
        <time>2021-03-20T15:19:14Z</time>
      </trkpt>
      <trkpt lat="58.59934" lon="-3.35157">
        <ele>7</ele>
        <time>2021-03-20T15:19:21Z</time>
      </trkpt>
      <trkpt lat="58.5996" lon="-3.35125">
        <ele>6.51</ele>
        <time>2021-03-20T15:19:29Z</time>
      </trkpt>
      <trkpt lat="58.60035" lon="-3.35053">
        <ele>5</ele>
        <time>2021-03-20T15:19:37Z</time>
      </trkpt>
      <trkpt lat="58.60201" lon="-3.34906">
        <ele>7</ele>
        <time>2021-03-20T15:19:45Z</time>
      </trkpt>
      <trkpt lat="58.60335" lon="-3.34801">
        <ele>8.84</ele>
        <time>2021-03-20T15:19:53Z</time>
      </trkpt>
      <trkpt lat="58.604" lon="-3.34747">
        <ele>7.93</ele>
        <time>2021-03-20T15:20:01Z</time>
      </trkpt>
      <trkpt lat="58.60454" lon="-3.34698">
        <ele>8.36</ele>
        <time>2021-03-20T15:20:09Z</time>
      </trkpt>
      <trkpt lat="58.60531" lon="-3.34618">
        <ele>9.03</ele>
        <time>2021-03-20T15:20:17Z</time>
      </trkpt>
      <trkpt lat="58.60686" lon="-3.34471">
        <ele>11.71</ele>
        <time>2021-03-20T15:20:25Z</time>
      </trkpt>
      <trkpt lat="58.60736" lon="-3.34428">
        <ele>13</ele>
        <time>2021-03-20T15:20:33Z</time>
      </trkpt>
      <trkpt lat="58.60785" lon="-3.34402">
        <ele>13.66</ele>
        <time>2021-03-20T15:20:41Z</time>
      </trkpt>
      <trkpt lat="58.6084" lon="-3.34377">
        <ele>14</ele>
        <time>2021-03-20T15:20:49Z</time>
      </trkpt>
      <trkpt lat="58.60944" lon="-3.34362">
        <ele>15</ele>
        <time>2021-03-20T15:20:57Z</time>
      </trkpt>
      <trkpt lat="58.61033" lon="-3.34328">
        <ele>16.8</ele>
        <time>2021-03-20T15:21:05Z</time>
      </trkpt>
      <trkpt lat="58.61099" lon="-3.34299">
        <ele>14.1</ele>
        <time>2021-03-20T15:21:12Z</time>
      </trkpt>
      <trkpt lat="58.61137" lon="-3.34295">
        <ele>14</ele>
        <time>2021-03-20T15:21:20Z</time>
      </trkpt>
      <trkpt lat="58.61179" lon="-3.34299">
        <ele>12.38</ele>
        <time>2021-03-20T15:21:28Z</time>
      </trkpt>
      <trkpt lat="58.61179" lon="-3.34299">
        <ele>12.38</ele>
        <time>2021-03-20T15:21:28Z</time>
      </trkpt>
      <trkpt lat="58.61448" lon="-3.34384">
        <ele>9</ele>
        <time>2021-03-20T15:21:36Z</time>
      </trkpt>
      <trkpt lat="58.61492" lon="-3.34404">
        <ele>9</ele>
        <time>2021-03-20T15:21:44Z</time>
      </trkpt>
      <trkpt lat="58.61527" lon="-3.34429">
        <ele>9</ele>
        <time>2021-03-20T15:21:52Z</time>
      </trkpt>
      <trkpt lat="58.61552" lon="-3.3446">
        <ele>8.52</ele>
        <time>2021-03-20T15:22:01Z</time>
      </trkpt>
      <trkpt lat="58.616" lon="-3.34537">
        <ele>7</ele>
        <time>2021-03-20T15:22:09Z</time>
      </trkpt>
      <trkpt lat="58.61629" lon="-3.34576">
        <ele>7.18</ele>
        <time>2021-03-20T15:22:17Z</time>
      </trkpt>
      <trkpt lat="58.61667" lon="-3.34605">
        <ele>8</ele>
        <time>2021-03-20T15:22:25Z</time>
      </trkpt>
      <trkpt lat="58.61753" lon="-3.34667">
        <ele>8.11</ele>
        <time>2021-03-20T15:22:33Z</time>
      </trkpt>
      <trkpt lat="58.61777" lon="-3.34677">
        <ele>8.59</ele>
        <time>2021-03-20T15:22:41Z</time>
      </trkpt>
      <trkpt lat="58.61794" lon="-3.34681">
        <ele>8.48</ele>
        <time>2021-03-20T15:22:49Z</time>
      </trkpt>
      <trkpt lat="58.61811" lon="-3.3468">
        <ele>8.6</ele>
        <time>2021-03-20T15:22:57Z</time>
      </trkpt>
      <trkpt lat="58.61827" lon="-3.34674">
        <ele>8.93</ele>
        <time>2021-03-20T15:23:05Z</time>
      </trkpt>
      <trkpt lat="58.61857" lon="-3.34653">
        <ele>9</ele>
        <time>2021-03-20T15:23:13Z</time>
      </trkpt>
      <trkpt lat="58.61924" lon="-3.34586">
        <ele>10.26</ele>
        <time>2021-03-20T15:23:21Z</time>
      </trkpt>
      <trkpt lat="58.62071" lon="-3.34446">
        <ele>17.12</ele>
        <time>2021-03-20T15:23:29Z</time>
      </trkpt>
      <trkpt lat="58.62382" lon="-3.34161">
        <ele>24</ele>
        <time>2021-03-20T15:23:37Z</time>
      </trkpt>
      <trkpt lat="58.62413" lon="-3.3413">
        <ele>23.08</ele>
        <time>2021-03-20T15:23:45Z</time>
      </trkpt>
      <trkpt lat="58.62437" lon="-3.34093">
        <ele>23</ele>
        <time>2021-03-20T15:23:53Z</time>
      </trkpt>
      <trkpt lat="58.62453" lon="-3.34053">
        <ele>24.29</ele>
        <time>2021-03-20T15:24:01Z</time>
      </trkpt>
      <trkpt lat="58.62464" lon="-3.34012">
        <ele>25.24</ele>
        <time>2021-03-20T15:24:09Z</time>
      </trkpt>
      <trkpt lat="58.62533" lon="-3.3364">
        <ele>24.82</ele>
        <time>2021-03-20T15:24:17Z</time>
      </trkpt>
      <trkpt lat="58.62879" lon="-3.31827">
        <ele>26</ele>
        <time>2021-03-20T15:24:25Z</time>
      </trkpt>
      <trkpt lat="58.62897" lon="-3.31691">
        <ele>26</ele>
        <time>2021-03-20T15:24:33Z</time>
      </trkpt>
      <trkpt lat="58.62907" lon="-3.31616">
        <ele>26</ele>
        <time>2021-03-20T15:24:41Z</time>
      </trkpt>
      <trkpt lat="58.62931" lon="-3.31366">
        <ele>25</ele>
        <time>2021-03-20T15:24:49Z</time>
      </trkpt>
      <trkpt lat="58.62936" lon="-3.3127">
        <ele>25</ele>
        <time>2021-03-20T15:24:57Z</time>
      </trkpt>
      <trkpt lat="58.62936" lon="-3.31217">
        <ele>25</ele>
        <time>2021-03-20T15:25:05Z</time>
      </trkpt>
      <trkpt lat="58.62924" lon="-3.30931">
        <ele>23.74</ele>
        <time>2021-03-20T15:25:14Z</time>
      </trkpt>
      <trkpt lat="58.62911" lon="-3.30558">
        <ele>22.09</ele>
        <time>2021-03-20T15:25:22Z</time>
      </trkpt>
      <trkpt lat="58.62914" lon="-3.30521">
        <ele>21.74</ele>
        <time>2021-03-20T15:25:30Z</time>
      </trkpt>
      <trkpt lat="58.62921" lon="-3.30468">
        <ele>21</ele>
        <time>2021-03-20T15:25:38Z</time>
      </trkpt>
      <trkpt lat="58.62933" lon="-3.30411">
        <ele>21</ele>
        <time>2021-03-20T15:25:46Z</time>
      </trkpt>
      <trkpt lat="58.63146" lon="-3.29653">
        <ele>24.27</ele>
        <time>2021-03-20T15:25:54Z</time>
      </trkpt>
      <trkpt lat="58.63156" lon="-3.29572">
        <ele>24.77</ele>
        <time>2021-03-20T15:26:02Z</time>
      </trkpt>
      <trkpt lat="58.63354" lon="-3.26721">
        <ele>22.26</ele>
        <time>2021-03-20T15:26:10Z</time>
      </trkpt>
      <trkpt lat="58.6335" lon="-3.26163">
        <ele>17.38</ele>
        <time>2021-03-20T15:26:18Z</time>
      </trkpt>
      <trkpt lat="58.63354" lon="-3.26051">
        <ele>17.24</ele>
        <time>2021-03-20T15:26:26Z</time>
      </trkpt>
      <trkpt lat="58.63367" lon="-3.25833">
        <ele>19.22</ele>
        <time>2021-03-20T15:26:34Z</time>
      </trkpt>
      <trkpt lat="58.63389" lon="-3.25527">
        <ele>20</ele>
        <time>2021-03-20T15:26:42Z</time>
      </trkpt>
      <trkpt lat="58.63423" lon="-3.24983">
        <ele>22</ele>
        <time>2021-03-20T15:26:50Z</time>
      </trkpt>
      <trkpt lat="58.63427" lon="-3.24951">
        <ele>22.75</ele>
        <time>2021-03-20T15:26:58Z</time>
      </trkpt>
      <trkpt lat="58.63433" lon="-3.24921">
        <ele>23</ele>
        <time>2021-03-20T15:27:06Z</time>
      </trkpt>
      <trkpt lat="58.6351" lon="-3.24676">
        <ele>21.76</ele>
        <time>2021-03-20T15:27:14Z</time>
      </trkpt>
      <trkpt lat="58.63516" lon="-3.24636">
        <ele>21.38</ele>
        <time>2021-03-20T15:27:22Z</time>
      </trkpt>
      <trkpt lat="58.63515" lon="-3.2458">
        <ele>21.11</ele>
        <time>2021-03-20T15:27:30Z</time>
      </trkpt>
      <trkpt lat="58.63502" lon="-3.24298">
        <ele>22.92</ele>
        <time>2021-03-20T15:27:38Z</time>
      </trkpt>
      <trkpt lat="58.63505" lon="-3.24226">
        <ele>22.98</ele>
        <time>2021-03-20T15:27:46Z</time>
      </trkpt>
      <trkpt lat="58.63595" lon="-3.23352">
        <ele>34.33</ele>
        <time>2021-03-20T15:27:54Z</time>
      </trkpt>
      <trkpt lat="58.63712" lon="-3.22709">
        <ele>36</ele>
        <time>2021-03-20T15:28:02Z</time>
      </trkpt>
      <trkpt lat="58.63768" lon="-3.22411">
        <ele>38</ele>
        <time>2021-03-20T15:28:10Z</time>
      </trkpt>
      <trkpt lat="58.63818" lon="-3.22132">
        <ele>37.1</ele>
        <time>2021-03-20T15:28:18Z</time>
      </trkpt>
      <trkpt lat="58.6384" lon="-3.22063">
        <ele>37.94</ele>
        <time>2021-03-20T15:28:27Z</time>
      </trkpt>
      <trkpt lat="58.63972" lon="-3.21718">
        <ele>39.99</ele>
        <time>2021-03-20T15:28:35Z</time>
      </trkpt>
      <trkpt lat="58.64012" lon="-3.21621">
        <ele>40.27</ele>
        <time>2021-03-20T15:28:43Z</time>
      </trkpt>
      <trkpt lat="58.64049" lon="-3.21568">
        <ele>41</ele>
        <time>2021-03-20T15:28:51Z</time>
      </trkpt>
      <trkpt lat="58.64201" lon="-3.21383">
        <ele>37.75</ele>
        <time>2021-03-20T15:28:59Z</time>
      </trkpt>
      <trkpt lat="58.6423" lon="-3.21344">
        <ele>36.72</ele>
        <time>2021-03-20T15:29:07Z</time>
      </trkpt>
      <trkpt lat="58.64349" lon="-3.21146">
        <ele>37</ele>
        <time>2021-03-20T15:29:15Z</time>
      </trkpt>
      <trkpt lat="58.64569" lon="-3.20772">
        <ele>48.49</ele>
        <time>2021-03-20T15:29:23Z</time>
      </trkpt>
      <trkpt lat="58.64618" lon="-3.20651">
        <ele>51.25</ele>
        <time>2021-03-20T15:29:31Z</time>
      </trkpt>
      <trkpt lat="58.64668" lon="-3.20432">
        <ele>55.68</ele>
        <time>2021-03-20T15:29:39Z</time>
      </trkpt>
      <trkpt lat="58.64668" lon="-3.20432">
        <ele>55.68</ele>
        <time>2021-03-20T15:29:39Z</time>
      </trkpt>
      <trkpt lat="58.64786" lon="-3.19921">
        <ele>64</ele>
        <time>2021-03-20T15:29:44Z</time>
      </trkpt>
      <trkpt lat="58.64821" lon="-3.19752">
        <ele>65.57</ele>
        <time>2021-03-20T15:29:50Z</time>
      </trkpt>
      <trkpt lat="58.64828" lon="-3.19707">
        <ele>65.8</ele>
        <time>2021-03-20T15:29:55Z</time>
      </trkpt>
      <trkpt lat="58.64831" lon="-3.19665">
        <ele>66.9</ele>
        <time>2021-03-20T15:30:01Z</time>
      </trkpt>
      <trkpt lat="58.6483" lon="-3.19607">
        <ele>66.88</ele>
        <time>2021-03-20T15:30:06Z</time>
      </trkpt>
      <trkpt lat="58.64823" lon="-3.19506">
        <ele>65.22</ele>
        <time>2021-03-20T15:30:12Z</time>
      </trkpt>
      <trkpt lat="58.6479" lon="-3.19134">
        <ele>63.64</ele>
        <time>2021-03-20T15:30:17Z</time>
      </trkpt>
      <trkpt lat="58.64772" lon="-3.19027">
        <ele>64.81</ele>
        <time>2021-03-20T15:30:23Z</time>
      </trkpt>
      <trkpt lat="58.64695" lon="-3.18842">
        <ele>64.72</ele>
        <time>2021-03-20T15:30:28Z</time>
      </trkpt>
      <trkpt lat="58.64617" lon="-3.1866">
        <ele>63.21</ele>
        <time>2021-03-20T15:30:34Z</time>
      </trkpt>
      <trkpt lat="58.646" lon="-3.18635">
        <ele>63</ele>
        <time>2021-03-20T15:30:39Z</time>
      </trkpt>
      <trkpt lat="58.64495" lon="-3.18561">
        <ele>63.35</ele>
        <time>2021-03-20T15:30:45Z</time>
      </trkpt>
      <trkpt lat="58.64468" lon="-3.18518">
        <ele>63.77</ele>
        <time>2021-03-20T15:30:50Z</time>
      </trkpt>
      <trkpt lat="58.64027" lon="-3.17432">
        <ele>40.01</ele>
        <time>2021-03-20T15:30:56Z</time>
      </trkpt>
      <trkpt lat="58.63892" lon="-3.17106">
        <ele>36.69</ele>
        <time>2021-03-20T15:31:01Z</time>
      </trkpt>
      <trkpt lat="58.63843" lon="-3.16967">
        <ele>34.14</ele>
        <time>2021-03-20T15:31:07Z</time>
      </trkpt>
      <trkpt lat="58.63701" lon="-3.16615">
        <ele>30.14</ele>
        <time>2021-03-20T15:31:12Z</time>
      </trkpt>
      <trkpt lat="58.63644" lon="-3.16465">
        <ele>24.82</ele>
        <time>2021-03-20T15:31:18Z</time>
      </trkpt>
      <trkpt lat="58.63629" lon="-3.16411">
        <ele>26.87</ele>
        <time>2021-03-20T15:31:23Z</time>
      </trkpt>
      <trkpt lat="58.63616" lon="-3.16335">
        <ele>26.07</ele>
        <time>2021-03-20T15:31:29Z</time>
      </trkpt>
      <trkpt lat="58.63609" lon="-3.16257">
        <ele>23.27</ele>
        <time>2021-03-20T15:31:34Z</time>
      </trkpt>
      <trkpt lat="58.63613" lon="-3.16139">
        <ele>17.95</ele>
        <time>2021-03-20T15:31:40Z</time>
      </trkpt>
      <trkpt lat="58.6367" lon="-3.15674">
        <ele>15.41</ele>
        <time>2021-03-20T15:31:45Z</time>
      </trkpt>
      <trkpt lat="58.63676" lon="-3.15601">
        <ele>13.72</ele>
        <time>2021-03-20T15:31:50Z</time>
      </trkpt>
      <trkpt lat="58.63669" lon="-3.15502">
        <ele>15.64</ele>
        <time>2021-03-20T15:31:56Z</time>
      </trkpt>
      <trkpt lat="58.63653" lon="-3.15423">
        <ele>16.48</ele>
        <time>2021-03-20T15:32:01Z</time>
      </trkpt>
      <trkpt lat="58.63647" lon="-3.1532">
        <ele>15.72</ele>
        <time>2021-03-20T15:32:07Z</time>
      </trkpt>
      <trkpt lat="58.63656" lon="-3.15236">
        <ele>16</ele>
        <time>2021-03-20T15:32:12Z</time>
      </trkpt>
      <trkpt lat="58.63682" lon="-3.15102">
        <ele>15.43</ele>
        <time>2021-03-20T15:32:18Z</time>
      </trkpt>
      <trkpt lat="58.63712" lon="-3.14682">
        <ele>16.65</ele>
        <time>2021-03-20T15:32:23Z</time>
      </trkpt>
      <trkpt lat="58.63716" lon="-3.14389">
        <ele>19.22</ele>
        <time>2021-03-20T15:32:29Z</time>
      </trkpt>
      <trkpt lat="58.6372" lon="-3.14358">
        <ele>19.09</ele>
        <time>2021-03-20T15:32:34Z</time>
      </trkpt>
      <trkpt lat="58.63779" lon="-3.14145">
        <ele>19</ele>
        <time>2021-03-20T15:32:40Z</time>
      </trkpt>
      <trkpt lat="58.63782" lon="-3.14112">
        <ele>19</ele>
        <time>2021-03-20T15:32:45Z</time>
      </trkpt>
      <trkpt lat="58.6378" lon="-3.13867">
        <ele>19.91</ele>
        <time>2021-03-20T15:32:51Z</time>
      </trkpt>
      <trkpt lat="58.63777" lon="-3.1356">
        <ele>18.17</ele>
        <time>2021-03-20T15:32:56Z</time>
      </trkpt>
      <trkpt lat="58.6378" lon="-3.13493">
        <ele>17.92</ele>
        <time>2021-03-20T15:33:02Z</time>
      </trkpt>
      <trkpt lat="58.63786" lon="-3.13439">
        <ele>17.71</ele>
        <time>2021-03-20T15:33:07Z</time>
      </trkpt>
      <trkpt lat="58.63793" lon="-3.13396">
        <ele>17.77</ele>
        <time>2021-03-20T15:33:13Z</time>
      </trkpt>
      <trkpt lat="58.63833" lon="-3.13223">
        <ele>17</ele>
        <time>2021-03-20T15:33:18Z</time>
      </trkpt>
      <trkpt lat="58.63839" lon="-3.13184">
        <ele>16.41</ele>
        <time>2021-03-20T15:33:24Z</time>
      </trkpt>
      <trkpt lat="58.63846" lon="-3.13104">
        <ele>15.55</ele>
        <time>2021-03-20T15:33:29Z</time>
      </trkpt>
      <trkpt lat="58.63865" lon="-3.12638">
        <ele>13.87</ele>
        <time>2021-03-20T15:33:35Z</time>
      </trkpt>
      <trkpt lat="58.63845" lon="-3.11872">
        <ele>16.58</ele>
        <time>2021-03-20T15:33:40Z</time>
      </trkpt>
      <trkpt lat="58.63844" lon="-3.11766">
        <ele>16.62</ele>
        <time>2021-03-20T15:33:46Z</time>
      </trkpt>
      <trkpt lat="58.63849" lon="-3.11702">
        <ele>16.43</ele>
        <time>2021-03-20T15:33:51Z</time>
      </trkpt>
      <trkpt lat="58.63861" lon="-3.11638">
        <ele>16.01</ele>
        <time>2021-03-20T15:33:57Z</time>
      </trkpt>
      <trkpt lat="58.63871" lon="-3.11606">
        <ele>15.64</ele>
        <time>2021-03-20T15:34:02Z</time>
      </trkpt>
      <trkpt lat="58.6389" lon="-3.11561">
        <ele>14.99</ele>
        <time>2021-03-20T15:34:08Z</time>
      </trkpt>
      <trkpt lat="58.64281" lon="-3.10891">
        <ele>7.88</ele>
        <time>2021-03-20T15:34:13Z</time>
      </trkpt>
      <trkpt lat="58.64299" lon="-3.10855">
        <ele>7.44</ele>
        <time>2021-03-20T15:34:18Z</time>
      </trkpt>
      <trkpt lat="58.64309" lon="-3.10829">
        <ele>7.89</ele>
        <time>2021-03-20T15:34:24Z</time>
      </trkpt>
      <trkpt lat="58.64314" lon="-3.10806">
        <ele>7.69</ele>
        <time>2021-03-20T15:34:29Z</time>
      </trkpt>
      <trkpt lat="58.64317" lon="-3.10784">
        <ele>8.34</ele>
        <time>2021-03-20T15:34:35Z</time>
      </trkpt>
      <trkpt lat="58.64318" lon="-3.10758">
        <ele>8.55</ele>
        <time>2021-03-20T15:34:40Z</time>
      </trkpt>
      <trkpt lat="58.64316" lon="-3.10729">
        <ele>9.39</ele>
        <time>2021-03-20T15:34:46Z</time>
      </trkpt>
      <trkpt lat="58.6431" lon="-3.10693">
        <ele>9.84</ele>
        <time>2021-03-20T15:34:51Z</time>
      </trkpt>
      <trkpt lat="58.643" lon="-3.10653">
        <ele>10.21</ele>
        <time>2021-03-20T15:34:57Z</time>
      </trkpt>
      <trkpt lat="58.64157" lon="-3.1015">
        <ele>19.36</ele>
        <time>2021-03-20T15:35:02Z</time>
      </trkpt>
      <trkpt lat="58.6415" lon="-3.1011">
        <ele>19.61</ele>
        <time>2021-03-20T15:35:08Z</time>
      </trkpt>
      <trkpt lat="58.64147" lon="-3.10056">
        <ele>20.39</ele>
        <time>2021-03-20T15:35:13Z</time>
      </trkpt>
      <trkpt lat="58.64151" lon="-3.09977">
        <ele>20.55</ele>
        <time>2021-03-20T15:35:19Z</time>
      </trkpt>
      <trkpt lat="58.64244" lon="-3.08772">
        <ele>16</ele>
        <time>2021-03-20T15:35:24Z</time>
      </trkpt>
      <trkpt lat="58.64276" lon="-3.086">
        <ele>17</ele>
        <time>2021-03-20T15:35:30Z</time>
      </trkpt>
      <trkpt lat="58.64289" lon="-3.08514">
        <ele>15.81</ele>
        <time>2021-03-20T15:35:35Z</time>
      </trkpt>
      <trkpt lat="58.64291" lon="-3.08481">
        <ele>15.52</ele>
        <time>2021-03-20T15:35:41Z</time>
      </trkpt>
      <trkpt lat="58.64292" lon="-3.08365">
        <ele>15.49</ele>
        <time>2021-03-20T15:35:46Z</time>
      </trkpt>
      <trkpt lat="58.64287" lon="-3.08338">
        <ele>15.95</ele>
        <time>2021-03-20T15:35:52Z</time>
      </trkpt>
      <trkpt lat="58.64275" lon="-3.08295">
        <ele>16</ele>
        <time>2021-03-20T15:35:57Z</time>
      </trkpt>
      <trkpt lat="58.64071" lon="-3.07627">
        <ele>18</ele>
        <time>2021-03-20T15:36:03Z</time>
      </trkpt>
      <trkpt lat="58.64003" lon="-3.07391">
        <ele>19.77</ele>
        <time>2021-03-20T15:36:08Z</time>
      </trkpt>
      <trkpt lat="58.63965" lon="-3.0727">
        <ele>20.39</ele>
        <time>2021-03-20T15:36:14Z</time>
      </trkpt>
      <trkpt lat="58.63965" lon="-3.0727">
        <ele>20.39</ele>
        <time>2021-03-20T15:36:14Z</time>
      </trkpt>
      <trkpt lat="58.63948" lon="-3.07215">
        <ele>21</ele>
        <time>2021-03-20T15:36:18Z</time>
      </trkpt>
      <trkpt lat="58.63864" lon="-3.06936">
        <ele>23.91</ele>
        <time>2021-03-20T15:36:22Z</time>
      </trkpt>
      <trkpt lat="58.63856" lon="-3.0691">
        <ele>24.18</ele>
        <time>2021-03-20T15:36:26Z</time>
      </trkpt>
      <trkpt lat="58.63854" lon="-3.06892">
        <ele>24.25</ele>
        <time>2021-03-20T15:36:30Z</time>
      </trkpt>
      <trkpt lat="58.63431" lon="-3.06909">
        <ele>30.48</ele>
        <time>2021-03-20T15:36:38Z</time>
      </trkpt>
      <trkpt lat="58.63272" lon="-3.0692">
        <ele>38.43</ele>
        <time>2021-03-20T15:36:45Z</time>
      </trkpt>
      <trkpt lat="58.63252" lon="-3.06927">
        <ele>39.84</ele>
        <time>2021-03-20T15:36:53Z</time>
      </trkpt>
      <trkpt lat="58.63095" lon="-3.07001">
        <ele>45.55</ele>
        <time>2021-03-20T15:37:00Z</time>
      </trkpt>
      <trkpt lat="58.63081" lon="-3.07014">
        <ele>45.5</ele>
        <time>2021-03-20T15:37:08Z</time>
      </trkpt>
      <trkpt lat="58.63063" lon="-3.07039">
        <ele>45</ele>
        <time>2021-03-20T15:37:16Z</time>
      </trkpt>
      <trkpt lat="58.63043" lon="-3.07079">
        <ele>45</ele>
        <time>2021-03-20T15:37:23Z</time>
      </trkpt>
      <trkpt lat="58.63033" lon="-3.07112">
        <ele>44.99</ele>
        <time>2021-03-20T15:37:31Z</time>
      </trkpt>
      <trkpt lat="58.63025" lon="-3.07153">
        <ele>45.08</ele>
        <time>2021-03-20T15:37:38Z</time>
      </trkpt>
      <trkpt lat="58.63007" lon="-3.07327">
        <ele>46.47</ele>
        <time>2021-03-20T15:37:46Z</time>
      </trkpt>
      <trkpt lat="58.62993" lon="-3.07434">
        <ele>49.51</ele>
        <time>2021-03-20T15:37:53Z</time>
      </trkpt>
      <trkpt lat="58.62978" lon="-3.07503">
        <ele>50.79</ele>
        <time>2021-03-20T15:38:01Z</time>
      </trkpt>
      <trkpt lat="58.62906" lon="-3.07713">
        <ele>52.38</ele>
        <time>2021-03-20T15:38:08Z</time>
      </trkpt>
      <trkpt lat="58.62826" lon="-3.07944">
        <ele>54.56</ele>
        <time>2021-03-20T15:38:16Z</time>
      </trkpt>
      <trkpt lat="58.62708" lon="-3.08313">
        <ele>63.52</ele>
        <time>2021-03-20T15:38:24Z</time>
      </trkpt>
      <trkpt lat="58.62644" lon="-3.08458">
        <ele>67.65</ele>
        <time>2021-03-20T15:38:31Z</time>
      </trkpt>
      <trkpt lat="58.62584" lon="-3.08535">
        <ele>69.96</ele>
        <time>2021-03-20T15:38:39Z</time>
      </trkpt>
      <trkpt lat="58.62532" lon="-3.08579">
        <ele>71.85</ele>
        <time>2021-03-20T15:38:46Z</time>
      </trkpt>
      <trkpt lat="58.6249" lon="-3.08607">
        <ele>72</ele>
        <time>2021-03-20T15:38:54Z</time>
      </trkpt>
      <trkpt lat="58.6244" lon="-3.08618">
        <ele>72.75</ele>
        <time>2021-03-20T15:39:01Z</time>
      </trkpt>
      <trkpt lat="58.62379" lon="-3.08608">
        <ele>73.34</ele>
        <time>2021-03-20T15:39:09Z</time>
      </trkpt>
      <trkpt lat="58.61772" lon="-3.0833">
        <ele>90.2</ele>
        <time>2021-03-20T15:39:17Z</time>
      </trkpt>
      <trkpt lat="58.61635" lon="-3.08185">
        <ele>95.14</ele>
        <time>2021-03-20T15:39:24Z</time>
      </trkpt>
      <trkpt lat="58.61505" lon="-3.08059">
        <ele>98.7</ele>
        <time>2021-03-20T15:39:32Z</time>
      </trkpt>
      <trkpt lat="58.61505" lon="-3.08059">
        <ele>98.7</ele>
        <time>2021-03-20T15:39:32Z</time>
      </trkpt>
      <trkpt lat="58.61343" lon="-3.079">
        <ele>97.42</ele>
        <time>2021-03-20T15:39:36Z</time>
      </trkpt>
      <trkpt lat="58.61115" lon="-3.07815">
        <ele>92.32</ele>
        <time>2021-03-20T15:39:41Z</time>
      </trkpt>
      <trkpt lat="58.61021" lon="-3.07823">
        <ele>91.4</ele>
        <time>2021-03-20T15:39:46Z</time>
      </trkpt>
      <trkpt lat="58.60963" lon="-3.07875">
        <ele>89.68</ele>
        <time>2021-03-20T15:39:51Z</time>
      </trkpt>
      <trkpt lat="58.60909" lon="-3.07945">
        <ele>87.47</ele>
        <time>2021-03-20T15:39:55Z</time>
      </trkpt>
      <trkpt lat="58.60869" lon="-3.08021">
        <ele>86.11</ele>
        <time>2021-03-20T15:40:00Z</time>
      </trkpt>
      <trkpt lat="58.60765" lon="-3.08252">
        <ele>78.53</ele>
        <time>2021-03-20T15:40:05Z</time>
      </trkpt>
      <trkpt lat="58.60713" lon="-3.08394">
        <ele>75.19</ele>
        <time>2021-03-20T15:40:10Z</time>
      </trkpt>
      <trkpt lat="58.60638" lon="-3.08654">
        <ele>64.96</ele>
        <time>2021-03-20T15:40:14Z</time>
      </trkpt>
      <trkpt lat="58.6061" lon="-3.08729">
        <ele>62.72</ele>
        <time>2021-03-20T15:40:19Z</time>
      </trkpt>
      <trkpt lat="58.60571" lon="-3.08787">
        <ele>60.23</ele>
        <time>2021-03-20T15:40:24Z</time>
      </trkpt>
      <trkpt lat="58.60537" lon="-3.08819">
        <ele>57.86</ele>
        <time>2021-03-20T15:40:28Z</time>
      </trkpt>
      <trkpt lat="58.60497" lon="-3.08849">
        <ele>54.33</ele>
        <time>2021-03-20T15:40:33Z</time>
      </trkpt>
      <trkpt lat="58.60455" lon="-3.08855">
        <ele>52.57</ele>
        <time>2021-03-20T15:40:38Z</time>
      </trkpt>
      <trkpt lat="58.60386" lon="-3.08844">
        <ele>46.4</ele>
        <time>2021-03-20T15:40:43Z</time>
      </trkpt>
      <trkpt lat="58.60387" lon="-3.08868">
        <ele>45.57</ele>
        <time>2021-03-20T15:41:01Z</time>
      </trkpt>
      <trkpt lat="58.6039" lon="-3.08886">
        <ele>45.19</ele>
        <time>2021-03-20T15:41:19Z</time>
      </trkpt>
      <trkpt lat="58.60539" lon="-3.09163">
        <ele>47.35</ele>
        <time>2021-03-20T15:41:38Z</time>
      </trkpt>
      <trkpt lat="58.60617" lon="-3.09299">
        <ele>49.88</ele>
        <time>2021-03-20T15:41:56Z</time>
      </trkpt>
      <trkpt lat="58.60767" lon="-3.09539">
        <ele>54.81</ele>
        <time>2021-03-20T15:42:14Z</time>
      </trkpt>
      <trkpt lat="58.60892" lon="-3.09746">
        <ele>59.54</ele>
        <time>2021-03-20T15:42:32Z</time>
      </trkpt>
      <trkpt lat="58.61147" lon="-3.1012">
        <ele>65.95</ele>
        <time>2021-03-20T15:42:51Z</time>
      </trkpt>
      <trkpt lat="58.61197" lon="-3.10227">
        <ele>65.93</ele>
        <time>2021-03-20T15:43:09Z</time>
      </trkpt>
      <trkpt lat="58.6126" lon="-3.10447">
        <ele>65.63</ele>
        <time>2021-03-20T15:43:27Z</time>
      </trkpt>
      <trkpt lat="58.61302" lon="-3.10631">
        <ele>65.03</ele>
        <time>2021-03-20T15:43:45Z</time>
      </trkpt>
      <trkpt lat="58.61345" lon="-3.10931">
        <ele>66.86</ele>
        <time>2021-03-20T15:44:04Z</time>
      </trkpt>
      <trkpt lat="58.61453" lon="-3.11416">
        <ele>70.67</ele>
        <time>2021-03-20T15:44:22Z</time>
      </trkpt>
      <trkpt lat="58.61625" lon="-3.11753">
        <ele>71.38</ele>
        <time>2021-03-20T15:44:40Z</time>
      </trkpt>
      <trkpt lat="58.61727" lon="-3.11979">
        <ele>67</ele>
        <time>2021-03-20T15:44:59Z</time>
      </trkpt>
      <trkpt lat="58.61852" lon="-3.12245">
        <ele>62.33</ele>
        <time>2021-03-20T15:45:17Z</time>
      </trkpt>
      <trkpt lat="58.61947" lon="-3.12446">
        <ele>59.91</ele>
        <time>2021-03-20T15:45:35Z</time>
      </trkpt>
      <trkpt lat="58.62035" lon="-3.12622">
        <ele>57.14</ele>
        <time>2021-03-20T15:45:53Z</time>
      </trkpt>
      <trkpt lat="58.62116" lon="-3.12777">
        <ele>56</ele>
        <time>2021-03-20T15:46:12Z</time>
      </trkpt>
      <trkpt lat="58.62232" lon="-3.12897">
        <ele>52.19</ele>
        <time>2021-03-20T15:46:30Z</time>
      </trkpt>
      <trkpt lat="58.62313" lon="-3.12985">
        <ele>51.74</ele>
        <time>2021-03-20T15:46:48Z</time>
      </trkpt>
      <trkpt lat="58.62439" lon="-3.13101">
        <ele>52.13</ele>
        <time>2021-03-20T15:47:06Z</time>
      </trkpt>
      <trkpt lat="58.62546" lon="-3.1321">
        <ele>53</ele>
        <time>2021-03-20T15:47:25Z</time>
      </trkpt>
      <trkpt lat="58.62642" lon="-3.13352">
        <ele>53.62</ele>
        <time>2021-03-20T15:47:43Z</time>
      </trkpt>
      <trkpt lat="58.62782" lon="-3.1359">
        <ele>56.83</ele>
        <time>2021-03-20T15:48:01Z</time>
      </trkpt>
      <trkpt lat="58.62811" lon="-3.13671">
        <ele>56</ele>
        <time>2021-03-20T15:48:20Z</time>
      </trkpt>
      <trkpt lat="58.62874" lon="-3.13971">
        <ele>57.04</ele>
        <time>2021-03-20T15:48:38Z</time>
      </trkpt>
      <trkpt lat="58.62921" lon="-3.14361">
        <ele>57.56</ele>
        <time>2021-03-20T15:48:56Z</time>
      </trkpt>
      <trkpt lat="58.62926" lon="-3.14462">
        <ele>57.18</ele>
        <time>2021-03-20T15:49:14Z</time>
      </trkpt>
      <trkpt lat="58.62923" lon="-3.14768">
        <ele>55.76</ele>
        <time>2021-03-20T15:49:33Z</time>
      </trkpt>
      <trkpt lat="58.62932" lon="-3.14953">
        <ele>54.14</ele>
        <time>2021-03-20T15:49:51Z</time>
      </trkpt>
      <trkpt lat="58.6295" lon="-3.15225">
        <ele>50.68</ele>
        <time>2021-03-20T15:50:09Z</time>
      </trkpt>
      <trkpt lat="58.62967" lon="-3.15419">
        <ele>49.2</ele>
        <time>2021-03-20T15:50:27Z</time>
      </trkpt>
      <trkpt lat="58.63" lon="-3.15773">
        <ele>46.01</ele>
        <time>2021-03-20T15:50:46Z</time>
      </trkpt>
      <trkpt lat="58.63034" lon="-3.16223">
        <ele>42.02</ele>
        <time>2021-03-20T15:51:04Z</time>
      </trkpt>
      <trkpt lat="58.6315" lon="-3.1761">
        <ele>50</ele>
        <time>2021-03-20T15:51:22Z</time>
      </trkpt>
      <trkpt lat="58.63205" lon="-3.18314">
        <ele>55</ele>
        <time>2021-03-20T15:51:41Z</time>
      </trkpt>
      <trkpt lat="58.63234" lon="-3.18494">
        <ele>55.58</ele>
        <time>2021-03-20T15:51:59Z</time>
      </trkpt>
      <trkpt lat="58.63612" lon="-3.1977">
        <ele>54.92</ele>
        <time>2021-03-20T15:52:17Z</time>
      </trkpt>
      <trkpt lat="58.63635" lon="-3.19928">
        <ele>55.31</ele>
        <time>2021-03-20T15:52:35Z</time>
      </trkpt>
      <trkpt lat="58.63656" lon="-3.20107">
        <ele>53.8</ele>
        <time>2021-03-20T15:52:54Z</time>
      </trkpt>
      <trkpt lat="58.6368" lon="-3.20346">
        <ele>52.02</ele>
        <time>2021-03-20T15:53:12Z</time>
      </trkpt>
      <trkpt lat="58.63675" lon="-3.20451">
        <ele>51.13</ele>
        <time>2021-03-20T15:53:30Z</time>
      </trkpt>
      <trkpt lat="58.63665" lon="-3.20557">
        <ele>50.09</ele>
        <time>2021-03-20T15:53:48Z</time>
      </trkpt>
      <trkpt lat="58.63624" lon="-3.20829">
        <ele>46.54</ele>
        <time>2021-03-20T15:54:07Z</time>
      </trkpt>
      <trkpt lat="58.63589" lon="-3.21028">
        <ele>43</ele>
        <time>2021-03-20T15:54:25Z</time>
      </trkpt>
      <trkpt lat="58.6355" lon="-3.21239">
        <ele>40</ele>
        <time>2021-03-20T15:54:43Z</time>
      </trkpt>
      <trkpt lat="58.63446" lon="-3.21745">
        <ele>43</ele>
        <time>2021-03-20T15:55:02Z</time>
      </trkpt>
      <trkpt lat="58.63221" lon="-3.22661">
        <ele>43</ele>
        <time>2021-03-20T15:55:20Z</time>
      </trkpt>
      <trkpt lat="58.63015" lon="-3.23481">
        <ele>33.48</ele>
        <time>2021-03-20T15:55:38Z</time>
      </trkpt>
      <trkpt lat="58.62887" lon="-3.24001">
        <ele>34.08</ele>
        <time>2021-03-20T15:55:56Z</time>
      </trkpt>
      <trkpt lat="58.62429" lon="-3.25803">
        <ele>31.05</ele>
        <time>2021-03-20T15:56:15Z</time>
      </trkpt>
      <trkpt lat="58.62299" lon="-3.26331">
        <ele>35.94</ele>
        <time>2021-03-20T15:56:33Z</time>
      </trkpt>
      <trkpt lat="58.62058" lon="-3.27281">
        <ele>55.01</ele>
        <time>2021-03-20T15:56:51Z</time>
      </trkpt>
      <trkpt lat="58.61991" lon="-3.27399">
        <ele>54.38</ele>
        <time>2021-03-20T15:57:09Z</time>
      </trkpt>
      <trkpt lat="58.61899" lon="-3.27511">
        <ele>54.15</ele>
        <time>2021-03-20T15:57:28Z</time>
      </trkpt>
      <trkpt lat="58.61791" lon="-3.27595">
        <ele>54</ele>
        <time>2021-03-20T15:57:46Z</time>
      </trkpt>
      <trkpt lat="58.61685" lon="-3.27639">
        <ele>54</ele>
        <time>2021-03-20T15:58:04Z</time>
      </trkpt>
      <trkpt lat="58.61581" lon="-3.27649">
        <ele>55</ele>
        <time>2021-03-20T15:58:23Z</time>
      </trkpt>
      <trkpt lat="58.61497" lon="-3.27645">
        <ele>56</ele>
        <time>2021-03-20T15:58:41Z</time>
      </trkpt>
      <trkpt lat="58.61441" lon="-3.2767">
        <ele>56.11</ele>
        <time>2021-03-20T15:58:59Z</time>
      </trkpt>
      <trkpt lat="58.6141" lon="-3.27702">
        <ele>56.77</ele>
        <time>2021-03-20T15:59:17Z</time>
      </trkpt>
      <trkpt lat="58.61172" lon="-3.28113">
        <ele>50.95</ele>
        <time>2021-03-20T15:59:36Z</time>
      </trkpt>
      <trkpt lat="58.59064" lon="-3.31667">
        <ele>31.98</ele>
        <time>2021-03-20T15:59:54Z</time>
      </trkpt>
      <trkpt lat="58.59109" lon="-3.31779">
        <ele>29</ele>
        <time>2021-03-20T16:00:16Z</time>
      </trkpt>
      <trkpt lat="58.59114" lon="-3.3183">
        <ele>29</ele>
        <time>2021-03-20T16:00:38Z</time>
      </trkpt>
      <trkpt lat="58.58933" lon="-3.34206">
        <ele>29.4</ele>
        <time>2021-03-20T16:01:00Z</time>
      </trkpt>
      <trkpt lat="58.58956" lon="-3.34987">
        <ele>22.58</ele>
        <time>2021-03-20T16:01:22Z</time>
      </trkpt>
      <trkpt lat="58.58951" lon="-3.35014">
        <ele>22.38</ele>
        <time>2021-03-20T16:01:44Z</time>
      </trkpt>
      <trkpt lat="58.58749" lon="-3.35358">
        <ele>21</ele>
        <time>2021-03-20T16:02:06Z</time>
      </trkpt>
      <trkpt lat="58.58715" lon="-3.35436">
        <ele>21.25</ele>
        <time>2021-03-20T16:02:28Z</time>
      </trkpt>
      <trkpt lat="58.58412" lon="-3.35984">
        <ele>25.18</ele>
        <time>2021-03-20T16:02:50Z</time>
      </trkpt>
      <trkpt lat="58.58293" lon="-3.36195">
        <ele>24.45</ele>
        <time>2021-03-20T16:03:12Z</time>
      </trkpt>
      <trkpt lat="58.58141" lon="-3.36418">
        <ele>27</ele>
        <time>2021-03-20T16:03:34Z</time>
      </trkpt>
      <trkpt lat="58.58331" lon="-3.36873">
        <ele>23</ele>
        <time>2021-03-20T16:03:41Z</time>
      </trkpt>
      <trkpt lat="58.5848" lon="-3.37135">
        <ele>24.09</ele>
        <time>2021-03-20T16:03:47Z</time>
      </trkpt>
      <trkpt lat="58.58516" lon="-3.37212">
        <ele>23</ele>
        <time>2021-03-20T16:03:54Z</time>
      </trkpt>
      <trkpt lat="58.58603" lon="-3.37481">
        <ele>24.71</ele>
        <time>2021-03-20T16:04:01Z</time>
      </trkpt>
      <trkpt lat="58.58624" lon="-3.37555">
        <ele>23.49</ele>
        <time>2021-03-20T16:04:07Z</time>
      </trkpt>
      <trkpt lat="58.5863" lon="-3.37604">
        <ele>22.68</ele>
        <time>2021-03-20T16:04:14Z</time>
      </trkpt>
      <trkpt lat="58.58632" lon="-3.37655">
        <ele>22.76</ele>
        <time>2021-03-20T16:04:21Z</time>
      </trkpt>
      <trkpt lat="58.58635" lon="-3.37899">
        <ele>25.37</ele>
        <time>2021-03-20T16:04:28Z</time>
      </trkpt>
      <trkpt lat="58.58637" lon="-3.37931">
        <ele>26</ele>
        <time>2021-03-20T16:04:34Z</time>
      </trkpt>
      <trkpt lat="58.58643" lon="-3.37961">
        <ele>26.48</ele>
        <time>2021-03-20T16:04:41Z</time>
      </trkpt>
      <trkpt lat="58.58647" lon="-3.37977">
        <ele>26.7</ele>
        <time>2021-03-20T16:04:48Z</time>
      </trkpt>
      <trkpt lat="58.5866" lon="-3.38003">
        <ele>26.24</ele>
        <time>2021-03-20T16:04:54Z</time>
      </trkpt>
      <trkpt lat="58.58848" lon="-3.38292">
        <ele>23.74</ele>
        <time>2021-03-20T16:05:01Z</time>
      </trkpt>
      <trkpt lat="58.5864" lon="-3.38705">
        <ele>23.97</ele>
        <time>2021-03-20T16:05:15Z</time>
      </trkpt>
      <trkpt lat="58.58501" lon="-3.38955">
        <ele>28.36</ele>
        <time>2021-03-20T16:05:29Z</time>
      </trkpt>
      <trkpt lat="58.58374" lon="-3.39196">
        <ele>28</ele>
        <time>2021-03-20T16:05:43Z</time>
      </trkpt>
      <trkpt lat="58.58328" lon="-3.39258">
        <ele>29.59</ele>
        <time>2021-03-20T16:05:57Z</time>
      </trkpt>
      <trkpt lat="58.58398" lon="-3.39506">
        <ele>29.67</ele>
        <time>2021-03-20T16:06:08Z</time>
      </trkpt>
      <trkpt lat="58.58407" lon="-3.39528">
        <ele>29.36</ele>
        <time>2021-03-20T16:06:20Z</time>
      </trkpt>
      <trkpt lat="58.58533" lon="-3.39809">
        <ele>28</ele>
        <time>2021-03-20T16:06:32Z</time>
      </trkpt>
      <trkpt lat="58.58783" lon="-3.40392">
        <ele>29.11</ele>
        <time>2021-03-20T16:06:43Z</time>
      </trkpt>
      <trkpt lat="58.5911" lon="-3.41115">
        <ele>45.2</ele>
        <time>2021-03-20T16:06:55Z</time>
      </trkpt>
      <trkpt lat="58.59133" lon="-3.41159">
        <ele>45.78</ele>
        <time>2021-03-20T16:07:07Z</time>
      </trkpt>
      <trkpt lat="58.5916" lon="-3.41188">
        <ele>48.26</ele>
        <time>2021-03-20T16:07:18Z</time>
      </trkpt>
      <trkpt lat="58.59175" lon="-3.41198">
        <ele>49.12</ele>
        <time>2021-03-20T16:07:30Z</time>
      </trkpt>
      <trkpt lat="58.59309" lon="-3.41245">
        <ele>50.7</ele>
        <time>2021-03-20T16:07:41Z</time>
      </trkpt>
      <trkpt lat="58.59323" lon="-3.41253">
        <ele>50.5</ele>
        <time>2021-03-20T16:07:53Z</time>
      </trkpt>
      <trkpt lat="58.59351" lon="-3.41284">
        <ele>50.62</ele>
        <time>2021-03-20T16:08:05Z</time>
      </trkpt>
      <trkpt lat="58.59368" lon="-3.41317">
        <ele>51.15</ele>
        <time>2021-03-20T16:08:16Z</time>
      </trkpt>
      <trkpt lat="58.59386" lon="-3.41355">
        <ele>51.21</ele>
        <time>2021-03-20T16:08:28Z</time>
      </trkpt>
      <trkpt lat="58.59399" lon="-3.41392">
        <ele>50.77</ele>
        <time>2021-03-20T16:08:40Z</time>
      </trkpt>
      <trkpt lat="58.59408" lon="-3.41427">
        <ele>51.33</ele>
        <time>2021-03-20T16:08:51Z</time>
      </trkpt>
      <trkpt lat="58.59421" lon="-3.41497">
        <ele>50.72</ele>
        <time>2021-03-20T16:09:03Z</time>
      </trkpt>
      <trkpt lat="58.59439" lon="-3.41572">
        <ele>48.42</ele>
        <time>2021-03-20T16:09:15Z</time>
      </trkpt>
      <trkpt lat="58.59506" lon="-3.41796">
        <ele>43.79</ele>
        <time>2021-03-20T16:09:26Z</time>
      </trkpt>
      <trkpt lat="58.59432" lon="-3.43764">
        <ele>35.43</ele>
        <time>2021-03-20T16:09:36Z</time>
      </trkpt>
      <trkpt lat="58.5941" lon="-3.44446">
        <ele>21.96</ele>
        <time>2021-03-20T16:09:46Z</time>
      </trkpt>
      <trkpt lat="58.59389" lon="-3.44992">
        <ele>18</ele>
        <time>2021-03-20T16:09:56Z</time>
      </trkpt>
      <trkpt lat="58.59372" lon="-3.45511">
        <ele>23</ele>
        <time>2021-03-20T16:10:07Z</time>
      </trkpt>
      <trkpt lat="58.59315" lon="-3.4708">
        <ele>41.96</ele>
        <time>2021-03-20T16:10:17Z</time>
      </trkpt>
      <trkpt lat="58.59244" lon="-3.49109">
        <ele>34.23</ele>
        <time>2021-03-20T16:10:27Z</time>
      </trkpt>
      <trkpt lat="58.59236" lon="-3.49293">
        <ele>33.52</ele>
        <time>2021-03-20T16:10:37Z</time>
      </trkpt>
      <trkpt lat="58.59237" lon="-3.49366">
        <ele>33.46</ele>
        <time>2021-03-20T16:10:47Z</time>
      </trkpt>
      <trkpt lat="58.59245" lon="-3.49423">
        <ele>34</ele>
        <time>2021-03-20T16:10:57Z</time>
      </trkpt>
      <trkpt lat="58.59258" lon="-3.49473">
        <ele>34.73</ele>
        <time>2021-03-20T16:11:07Z</time>
      </trkpt>
      <trkpt lat="58.59357" lon="-3.49721">
        <ele>32.16</ele>
        <time>2021-03-20T16:11:17Z</time>
      </trkpt>
      <trkpt lat="58.59367" lon="-3.49759">
        <ele>32.78</ele>
        <time>2021-03-20T16:11:27Z</time>
      </trkpt>
      <trkpt lat="58.59374" lon="-3.49791">
        <ele>32.54</ele>
        <time>2021-03-20T16:11:37Z</time>
      </trkpt>
      <trkpt lat="58.59384" lon="-3.49877">
        <ele>32.16</ele>
        <time>2021-03-20T16:11:47Z</time>
      </trkpt>
      <trkpt lat="58.5942" lon="-3.50239">
        <ele>29.92</ele>
        <time>2021-03-20T16:11:57Z</time>
      </trkpt>
      <trkpt lat="58.59432" lon="-3.5031">
        <ele>29.46</ele>
        <time>2021-03-20T16:12:07Z</time>
      </trkpt>
      <trkpt lat="58.59459" lon="-3.50419">
        <ele>27.48</ele>
        <time>2021-03-20T16:12:18Z</time>
      </trkpt>
      <trkpt lat="58.59498" lon="-3.50515">
        <ele>25.07</ele>
        <time>2021-03-20T16:12:28Z</time>
      </trkpt>
      <trkpt lat="58.59526" lon="-3.50578">
        <ele>24.06</ele>
        <time>2021-03-20T16:12:38Z</time>
      </trkpt>
      <trkpt lat="58.59542" lon="-3.50622">
        <ele>23.1</ele>
        <time>2021-03-20T16:12:48Z</time>
      </trkpt>
      <trkpt lat="58.59552" lon="-3.50656">
        <ele>22.12</ele>
        <time>2021-03-20T16:12:58Z</time>
      </trkpt>
      <trkpt lat="58.59559" lon="-3.50688">
        <ele>20.99</ele>
        <time>2021-03-20T16:13:08Z</time>
      </trkpt>
      <trkpt lat="58.59563" lon="-3.50732">
        <ele>19.75</ele>
        <time>2021-03-20T16:13:18Z</time>
      </trkpt>
      <trkpt lat="58.59561" lon="-3.5076">
        <ele>19.81</ele>
        <time>2021-03-20T16:13:28Z</time>
      </trkpt>
      <trkpt lat="58.59557" lon="-3.50789">
        <ele>19.54</ele>
        <time>2021-03-20T16:13:38Z</time>
      </trkpt>
      <trkpt lat="58.59539" lon="-3.50852">
        <ele>17.93</ele>
        <time>2021-03-20T16:13:48Z</time>
      </trkpt>
      <trkpt lat="58.59314" lon="-3.5123">
        <ele>11.41</ele>
        <time>2021-03-20T16:13:58Z</time>
      </trkpt>
      <trkpt lat="58.59267" lon="-3.51318">
        <ele>9.94</ele>
        <time>2021-03-20T16:14:08Z</time>
      </trkpt>
      <trkpt lat="58.59223" lon="-3.5141">
        <ele>8.45</ele>
        <time>2021-03-20T16:14:19Z</time>
      </trkpt>
      <trkpt lat="58.59194" lon="-3.51496">
        <ele>6.22</ele>
        <time>2021-03-20T16:14:29Z</time>
      </trkpt>
      <trkpt lat="58.5918" lon="-3.51585">
        <ele>5.51</ele>
        <time>2021-03-20T16:14:39Z</time>
      </trkpt>
      <trkpt lat="58.59163" lon="-3.51717">
        <ele>5.12</ele>
        <time>2021-03-20T16:14:49Z</time>
      </trkpt>
      <trkpt lat="58.59165" lon="-3.51738">
        <ele>5.59</ele>
        <time>2021-03-20T16:14:59Z</time>
      </trkpt>
      <trkpt lat="58.5917" lon="-3.51754">
        <ele>5.9</ele>
        <time>2021-03-20T16:15:09Z</time>
      </trkpt>
      <trkpt lat="58.59191" lon="-3.51805">
        <ele>5</ele>
        <time>2021-03-20T16:15:19Z</time>
      </trkpt>
      <trkpt lat="58.59276" lon="-3.52024">
        <ele>5.84</ele>
        <time>2021-03-20T16:15:29Z</time>
      </trkpt>
      <trkpt lat="58.59288" lon="-3.52048">
        <ele>7.08</ele>
        <time>2021-03-20T16:15:39Z</time>
      </trkpt>
      <trkpt lat="58.59281" lon="-3.52054">
        <ele>7.09</ele>
        <time>2021-03-20T16:15:53Z</time>
      </trkpt>
      <trkpt lat="58.5905" lon="-3.52421">
        <ele>10.93</ele>
        <time>2021-03-20T16:16:06Z</time>
      </trkpt>
      <trkpt lat="58.58979" lon="-3.52537">
        <ele>14.49</ele>
        <time>2021-03-20T16:16:20Z</time>
      </trkpt>
      <trkpt lat="58.59049" lon="-3.52769">
        <ele>26.21</ele>
        <time>2021-03-20T16:16:28Z</time>
      </trkpt>
      <trkpt lat="58.59058" lon="-3.5278">
        <ele>27.28</ele>
        <time>2021-03-20T16:16:36Z</time>
      </trkpt>
      <trkpt lat="58.59034" lon="-3.52859">
        <ele>28.61</ele>
        <time>2021-03-20T16:16:47Z</time>
      </trkpt>
      <trkpt lat="58.59001" lon="-3.52927">
        <ele>29.79</ele>
        <time>2021-03-20T16:16:59Z</time>
      </trkpt>
      <trkpt lat="58.58904" lon="-3.53101">
        <ele>35.99</ele>
        <time>2021-03-20T16:17:10Z</time>
      </trkpt>
      <trkpt lat="58.58774" lon="-3.53307">
        <ele>42.86</ele>
        <time>2021-03-20T16:17:21Z</time>
      </trkpt>
      <trkpt lat="58.58584" lon="-3.53577">
        <ele>44.78</ele>
        <time>2021-03-20T16:17:33Z</time>
      </trkpt>
      <trkpt lat="58.58374" lon="-3.53758">
        <ele>47</ele>
        <time>2021-03-20T16:17:44Z</time>
      </trkpt>
      <trkpt lat="58.58318" lon="-3.538">
        <ele>47.61</ele>
        <time>2021-03-20T16:17:56Z</time>
      </trkpt>
      <trkpt lat="58.58183" lon="-3.5389">
        <ele>47.28</ele>
        <time>2021-03-20T16:18:07Z</time>
      </trkpt>
      <trkpt lat="58.58144" lon="-3.53925">
        <ele>47.95</ele>
        <time>2021-03-20T16:18:19Z</time>
      </trkpt>
      <trkpt lat="58.58055" lon="-3.54027">
        <ele>51.96</ele>
        <time>2021-03-20T16:18:30Z</time>
      </trkpt>
      <trkpt lat="58.5798" lon="-3.54123">
        <ele>53.73</ele>
        <time>2021-03-20T16:18:42Z</time>
      </trkpt>
      <trkpt lat="58.57921" lon="-3.54209">
        <ele>53.15</ele>
        <time>2021-03-20T16:18:53Z</time>
      </trkpt>
      <trkpt lat="58.57805" lon="-3.54407">
        <ele>53.63</ele>
        <time>2021-03-20T16:19:05Z</time>
      </trkpt>
      <trkpt lat="58.57744" lon="-3.54518">
        <ele>54.42</ele>
        <time>2021-03-20T16:19:16Z</time>
      </trkpt>
      <trkpt lat="58.57659" lon="-3.54655">
        <ele>59.59</ele>
        <time>2021-03-20T16:19:28Z</time>
      </trkpt>
      <trkpt lat="58.57616" lon="-3.54765">
        <ele>62.17</ele>
        <time>2021-03-20T16:19:39Z</time>
      </trkpt>
      <trkpt lat="58.57485" lon="-3.55281">
        <ele>68.53</ele>
        <time>2021-03-20T16:19:51Z</time>
      </trkpt>
      <trkpt lat="58.57335" lon="-3.55904">
        <ele>69.51</ele>
        <time>2021-03-20T16:20:02Z</time>
      </trkpt>
      <trkpt lat="58.56934" lon="-3.57099">
        <ele>71</ele>
        <time>2021-03-20T16:20:14Z</time>
      </trkpt>
      <trkpt lat="58.56916" lon="-3.57145">
        <ele>72</ele>
        <time>2021-03-20T16:20:25Z</time>
      </trkpt>
      <trkpt lat="58.56891" lon="-3.57191">
        <ele>72.87</ele>
        <time>2021-03-20T16:20:37Z</time>
      </trkpt>
      <trkpt lat="58.56788" lon="-3.57315">
        <ele>73</ele>
        <time>2021-03-20T16:20:48Z</time>
      </trkpt>
      <trkpt lat="58.56572" lon="-3.57571">
        <ele>75.15</ele>
        <time>2021-03-20T16:21:00Z</time>
      </trkpt>
      <trkpt lat="58.56508" lon="-3.5765">
        <ele>74</ele>
        <time>2021-03-20T16:21:11Z</time>
      </trkpt>
      <trkpt lat="58.56465" lon="-3.57711">
        <ele>73.73</ele>
        <time>2021-03-20T16:21:23Z</time>
      </trkpt>
      <trkpt lat="58.56447" lon="-3.57744">
        <ele>73.86</ele>
        <time>2021-03-20T16:21:34Z</time>
      </trkpt>
      <trkpt lat="58.56428" lon="-3.57787">
        <ele>73.41</ele>
        <time>2021-03-20T16:21:46Z</time>
      </trkpt>
      <trkpt lat="58.5638" lon="-3.57919">
        <ele>72</ele>
        <time>2021-03-20T16:21:57Z</time>
      </trkpt>
      <trkpt lat="58.56346" lon="-3.58168">
        <ele>71.99</ele>
        <time>2021-03-20T16:22:08Z</time>
      </trkpt>
      <trkpt lat="58.56139" lon="-3.59817">
        <ele>64</ele>
        <time>2021-03-20T16:22:20Z</time>
      </trkpt>
      <trkpt lat="58.56072" lon="-3.60329">
        <ele>57.59</ele>
        <time>2021-03-20T16:22:31Z</time>
      </trkpt>
      <trkpt lat="58.56042" lon="-3.60478">
        <ele>55.5</ele>
        <time>2021-03-20T16:22:43Z</time>
      </trkpt>
      <trkpt lat="58.56016" lon="-3.60573">
        <ele>55</ele>
        <time>2021-03-20T16:22:54Z</time>
      </trkpt>
      <trkpt lat="58.55988" lon="-3.60653">
        <ele>55</ele>
        <time>2021-03-20T16:23:06Z</time>
      </trkpt>
      <trkpt lat="58.55966" lon="-3.60701">
        <ele>54.79</ele>
        <time>2021-03-20T16:23:17Z</time>
      </trkpt>
      <trkpt lat="58.55573" lon="-3.61446">
        <ele>58.66</ele>
        <time>2021-03-20T16:23:29Z</time>
      </trkpt>
      <trkpt lat="58.55545" lon="-3.61509">
        <ele>58.52</ele>
        <time>2021-03-20T16:23:40Z</time>
      </trkpt>
      <trkpt lat="58.55526" lon="-3.61573">
        <ele>56.83</ele>
        <time>2021-03-20T16:23:52Z</time>
      </trkpt>
      <trkpt lat="58.55513" lon="-3.61664">
        <ele>54.96</ele>
        <time>2021-03-20T16:24:03Z</time>
      </trkpt>
      <trkpt lat="58.55511" lon="-3.61721">
        <ele>54.77</ele>
        <time>2021-03-20T16:24:15Z</time>
      </trkpt>
      <trkpt lat="58.55512" lon="-3.61767">
        <ele>54.43</ele>
        <time>2021-03-20T16:24:26Z</time>
      </trkpt>
      <trkpt lat="58.55538" lon="-3.62147">
        <ele>46.05</ele>
        <time>2021-03-20T16:24:38Z</time>
      </trkpt>
      <trkpt lat="58.55579" lon="-3.62365">
        <ele>42.69</ele>
        <time>2021-03-20T16:24:49Z</time>
      </trkpt>
      <trkpt lat="58.55581" lon="-3.62408">
        <ele>42.01</ele>
        <time>2021-03-20T16:25:01Z</time>
      </trkpt>
      <trkpt lat="58.5557" lon="-3.62442">
        <ele>39.65</ele>
        <time>2021-03-20T16:25:12Z</time>
      </trkpt>
      <trkpt lat="58.55545" lon="-3.62477">
        <ele>37.37</ele>
        <time>2021-03-20T16:25:24Z</time>
      </trkpt>
      <trkpt lat="58.55481" lon="-3.62549">
        <ele>40.76</ele>
        <time>2021-03-20T16:25:35Z</time>
      </trkpt>
      <trkpt lat="58.55448" lon="-3.62581">
        <ele>42.79</ele>
        <time>2021-03-20T16:25:47Z</time>
      </trkpt>
      <trkpt lat="58.55384" lon="-3.62593">
        <ele>45.35</ele>
        <time>2021-03-20T16:25:58Z</time>
      </trkpt>
      <trkpt lat="58.55289" lon="-3.6258">
        <ele>49.49</ele>
        <time>2021-03-20T16:26:10Z</time>
      </trkpt>
      <trkpt lat="58.55253" lon="-3.62592">
        <ele>51.21</ele>
        <time>2021-03-20T16:26:21Z</time>
      </trkpt>
      <trkpt lat="58.55221" lon="-3.62618">
        <ele>51.26</ele>
        <time>2021-03-20T16:26:33Z</time>
      </trkpt>
      <trkpt lat="58.55178" lon="-3.62673">
        <ele>53.23</ele>
        <time>2021-03-20T16:26:44Z</time>
      </trkpt>
      <trkpt lat="58.55163" lon="-3.62839">
        <ele>56.89</ele>
        <time>2021-03-20T16:26:55Z</time>
      </trkpt>
      <trkpt lat="58.55181" lon="-3.63558">
        <ele>62.51</ele>
        <time>2021-03-20T16:27:07Z</time>
      </trkpt>
      <trkpt lat="58.55216" lon="-3.63928">
        <ele>64.79</ele>
        <time>2021-03-20T16:27:18Z</time>
      </trkpt>
      <trkpt lat="58.55243" lon="-3.64079">
        <ele>64.75</ele>
        <time>2021-03-20T16:27:30Z</time>
      </trkpt>
      <trkpt lat="58.55339" lon="-3.64495">
        <ele>65.44</ele>
        <time>2021-03-20T16:27:41Z</time>
      </trkpt>
      <trkpt lat="58.55499" lon="-3.6515">
        <ele>66.98</ele>
        <time>2021-03-20T16:27:53Z</time>
      </trkpt>
      <trkpt lat="58.55533" lon="-3.65342">
        <ele>67.89</ele>
        <time>2021-03-20T16:28:04Z</time>
      </trkpt>
      <trkpt lat="58.55549" lon="-3.65507">
        <ele>68.18</ele>
        <time>2021-03-20T16:28:16Z</time>
      </trkpt>
      <trkpt lat="58.55552" lon="-3.65564">
        <ele>68.89</ele>
        <time>2021-03-20T16:28:27Z</time>
      </trkpt>
      <trkpt lat="58.55556" lon="-3.6565">
        <ele>69</ele>
        <time>2021-03-20T16:28:39Z</time>
      </trkpt>
      <trkpt lat="58.55556" lon="-3.65728">
        <ele>69.02</ele>
        <time>2021-03-20T16:28:50Z</time>
      </trkpt>
      <trkpt lat="58.55552" lon="-3.65828">
        <ele>69</ele>
        <time>2021-03-20T16:29:02Z</time>
      </trkpt>
      <trkpt lat="58.55543" lon="-3.65942">
        <ele>70.54</ele>
        <time>2021-03-20T16:29:13Z</time>
      </trkpt>
      <trkpt lat="58.55516" lon="-3.66148">
        <ele>72.15</ele>
        <time>2021-03-20T16:29:25Z</time>
      </trkpt>
      <trkpt lat="58.5532" lon="-3.67557">
        <ele>78.51</ele>
        <time>2021-03-20T16:29:36Z</time>
      </trkpt>
      <trkpt lat="58.55218" lon="-3.69198">
        <ele>83.84</ele>
        <time>2021-03-20T16:29:48Z</time>
      </trkpt>
      <trkpt lat="58.55214" lon="-3.69316">
        <ele>83.71</ele>
        <time>2021-03-20T16:29:59Z</time>
      </trkpt>
      <trkpt lat="58.55221" lon="-3.69436">
        <ele>83.91</ele>
        <time>2021-03-20T16:30:11Z</time>
      </trkpt>
      <trkpt lat="58.55232" lon="-3.69548">
        <ele>80.93</ele>
        <time>2021-03-20T16:30:22Z</time>
      </trkpt>
      <trkpt lat="58.55259" lon="-3.69791">
        <ele>78.54</ele>
        <time>2021-03-20T16:30:34Z</time>
      </trkpt>
      <trkpt lat="58.5527" lon="-3.69943">
        <ele>77.23</ele>
        <time>2021-03-20T16:30:45Z</time>
      </trkpt>
      <trkpt lat="58.55275" lon="-3.70109">
        <ele>74.74</ele>
        <time>2021-03-20T16:30:57Z</time>
      </trkpt>
      <trkpt lat="58.55281" lon="-3.70378">
        <ele>73.63</ele>
        <time>2021-03-20T16:31:08Z</time>
      </trkpt>
      <trkpt lat="58.55314" lon="-3.70552">
        <ele>71.63</ele>
        <time>2021-03-20T16:31:20Z</time>
      </trkpt>
      <trkpt lat="58.55342" lon="-3.70661">
        <ele>69.81</ele>
        <time>2021-03-20T16:31:31Z</time>
      </trkpt>
      <trkpt lat="58.55374" lon="-3.70742">
        <ele>66.51</ele>
        <time>2021-03-20T16:31:42Z</time>
      </trkpt>
      <trkpt lat="58.55426" lon="-3.7082">
        <ele>66.18</ele>
        <time>2021-03-20T16:31:54Z</time>
      </trkpt>
      <trkpt lat="58.55478" lon="-3.70912">
        <ele>64.17</ele>
        <time>2021-03-20T16:32:05Z</time>
      </trkpt>
      <trkpt lat="58.55505" lon="-3.70994">
        <ele>63.45</ele>
        <time>2021-03-20T16:32:17Z</time>
      </trkpt>
      <trkpt lat="58.5561" lon="-3.71519">
        <ele>54.97</ele>
        <time>2021-03-20T16:32:28Z</time>
      </trkpt>
      <trkpt lat="58.55861" lon="-3.72699">
        <ele>51.02</ele>
        <time>2021-03-20T16:32:40Z</time>
      </trkpt>
      <trkpt lat="58.55995" lon="-3.73349">
        <ele>46.08</ele>
        <time>2021-03-20T16:32:51Z</time>
      </trkpt>
      <trkpt lat="58.56001" lon="-3.73398">
        <ele>45.64</ele>
        <time>2021-03-20T16:33:03Z</time>
      </trkpt>
      <trkpt lat="58.56029" lon="-3.74085">
        <ele>37.97</ele>
        <time>2021-03-20T16:33:14Z</time>
      </trkpt>
      <trkpt lat="58.5604" lon="-3.74389">
        <ele>39</ele>
        <time>2021-03-20T16:33:26Z</time>
      </trkpt>
      <trkpt lat="58.56058" lon="-3.74663">
        <ele>40</ele>
        <time>2021-03-20T16:33:37Z</time>
      </trkpt>
      <trkpt lat="58.56064" lon="-3.74866">
        <ele>40.69</ele>
        <time>2021-03-20T16:33:49Z</time>
      </trkpt>
      <trkpt lat="58.56072" lon="-3.75001">
        <ele>39.83</ele>
        <time>2021-03-20T16:34:00Z</time>
      </trkpt>
      <trkpt lat="58.56075" lon="-3.75128">
        <ele>37.7</ele>
        <time>2021-03-20T16:34:12Z</time>
      </trkpt>
      <trkpt lat="58.56096" lon="-3.75424">
        <ele>31.47</ele>
        <time>2021-03-20T16:34:23Z</time>
      </trkpt>
      <trkpt lat="58.56124" lon="-3.75767">
        <ele>27</ele>
        <time>2021-03-20T16:34:35Z</time>
      </trkpt>
      <trkpt lat="58.56144" lon="-3.75983">
        <ele>25.83</ele>
        <time>2021-03-20T16:34:46Z</time>
      </trkpt>
      <trkpt lat="58.56147" lon="-3.76078">
        <ele>23.5</ele>
        <time>2021-03-20T16:34:58Z</time>
      </trkpt>
      <trkpt lat="58.56111" lon="-3.76106">
        <ele>22.99</ele>
        <time>2021-03-20T16:35:01Z</time>
      </trkpt>
      <trkpt lat="58.56098" lon="-3.76125">
        <ele>22.98</ele>
        <time>2021-03-20T16:35:04Z</time>
      </trkpt>
      <trkpt lat="58.56088" lon="-3.76149">
        <ele>23.68</ele>
        <time>2021-03-20T16:35:07Z</time>
      </trkpt>
      <trkpt lat="58.56085" lon="-3.76176">
        <ele>23.54</ele>
        <time>2021-03-20T16:35:10Z</time>
      </trkpt>
      <trkpt lat="58.56089" lon="-3.76392">
        <ele>23.9</ele>
        <time>2021-03-20T16:35:13Z</time>
      </trkpt>
      <trkpt lat="58.56095" lon="-3.76586">
        <ele>27.18</ele>
        <time>2021-03-20T16:35:16Z</time>
      </trkpt>
      <trkpt lat="58.56094" lon="-3.76647">
        <ele>27.6</ele>
        <time>2021-03-20T16:35:19Z</time>
      </trkpt>
      <trkpt lat="58.56092" lon="-3.76709">
        <ele>26.69</ele>
        <time>2021-03-20T16:35:22Z</time>
      </trkpt>
      <trkpt lat="58.56083" lon="-3.76809">
        <ele>25</ele>
        <time>2021-03-20T16:35:25Z</time>
      </trkpt>
      <trkpt lat="58.56073" lon="-3.76911">
        <ele>22.6</ele>
        <time>2021-03-20T16:35:28Z</time>
      </trkpt>
      <trkpt lat="58.56061" lon="-3.76993">
        <ele>20.24</ele>
        <time>2021-03-20T16:35:31Z</time>
      </trkpt>
      <trkpt lat="58.56051" lon="-3.77047">
        <ele>18.33</ele>
        <time>2021-03-20T16:35:34Z</time>
      </trkpt>
      <trkpt lat="58.56034" lon="-3.7712">
        <ele>16.68</ele>
        <time>2021-03-20T16:35:38Z</time>
      </trkpt>
      <trkpt lat="58.56021" lon="-3.77166">
        <ele>16</ele>
        <time>2021-03-20T16:35:41Z</time>
      </trkpt>
      <trkpt lat="58.56006" lon="-3.77205">
        <ele>14.61</ele>
        <time>2021-03-20T16:35:44Z</time>
      </trkpt>
      <trkpt lat="58.55986" lon="-3.77245">
        <ele>14.01</ele>
        <time>2021-03-20T16:35:47Z</time>
      </trkpt>
      <trkpt lat="58.55945" lon="-3.77335">
        <ele>15.97</ele>
        <time>2021-03-20T16:35:50Z</time>
      </trkpt>
      <trkpt lat="58.55915" lon="-3.77415">
        <ele>16.87</ele>
        <time>2021-03-20T16:35:53Z</time>
      </trkpt>
      <trkpt lat="58.55905" lon="-3.77454">
        <ele>16.38</ele>
        <time>2021-03-20T16:35:56Z</time>
      </trkpt>
      <trkpt lat="58.55899" lon="-3.77501">
        <ele>16</ele>
        <time>2021-03-20T16:35:59Z</time>
      </trkpt>
      <trkpt lat="58.55897" lon="-3.77548">
        <ele>16</ele>
        <time>2021-03-20T16:36:02Z</time>
      </trkpt>
      <trkpt lat="58.55896" lon="-3.77603">
        <ele>17.72</ele>
        <time>2021-03-20T16:36:05Z</time>
      </trkpt>
      <trkpt lat="58.55899" lon="-3.77659">
        <ele>19.27</ele>
        <time>2021-03-20T16:36:08Z</time>
      </trkpt>
      <trkpt lat="58.5591" lon="-3.77718">
        <ele>19.74</ele>
        <time>2021-03-20T16:36:11Z</time>
      </trkpt>
      <trkpt lat="58.55915" lon="-3.77762">
        <ele>18.95</ele>
        <time>2021-03-20T16:36:14Z</time>
      </trkpt>
      <trkpt lat="58.55918" lon="-3.778">
        <ele>19</ele>
        <time>2021-03-20T16:36:17Z</time>
      </trkpt>
      <trkpt lat="58.55921" lon="-3.77901">
        <ele>18.08</ele>
        <time>2021-03-20T16:36:20Z</time>
      </trkpt>
      <trkpt lat="58.55914" lon="-3.78157">
        <ele>16.1</ele>
        <time>2021-03-20T16:36:23Z</time>
      </trkpt>
      <trkpt lat="58.55909" lon="-3.78239">
        <ele>16.39</ele>
        <time>2021-03-20T16:36:26Z</time>
      </trkpt>
      <trkpt lat="58.55769" lon="-3.79082">
        <ele>15.31</ele>
        <time>2021-03-20T16:36:30Z</time>
      </trkpt>
      <trkpt lat="58.5574" lon="-3.79244">
        <ele>15.57</ele>
        <time>2021-03-20T16:36:33Z</time>
      </trkpt>
      <trkpt lat="58.55711" lon="-3.79348">
        <ele>15.86</ele>
        <time>2021-03-20T16:36:36Z</time>
      </trkpt>
      <trkpt lat="58.55685" lon="-3.79413">
        <ele>16.34</ele>
        <time>2021-03-20T16:36:39Z</time>
      </trkpt>
      <trkpt lat="58.55677" lon="-3.79446">
        <ele>16.66</ele>
        <time>2021-03-20T16:36:42Z</time>
      </trkpt>
      <trkpt lat="58.55671" lon="-3.79485">
        <ele>18.24</ele>
        <time>2021-03-20T16:36:45Z</time>
      </trkpt>
      <trkpt lat="58.55647" lon="-3.79816">
        <ele>25.86</ele>
        <time>2021-03-20T16:36:48Z</time>
      </trkpt>
      <trkpt lat="58.55645" lon="-3.79871">
        <ele>26.46</ele>
        <time>2021-03-20T16:36:51Z</time>
      </trkpt>
      <trkpt lat="58.55685" lon="-3.80697">
        <ele>39.66</ele>
        <time>2021-03-20T16:36:54Z</time>
      </trkpt>
      <trkpt lat="58.55689" lon="-3.80943">
        <ele>37.84</ele>
        <time>2021-03-20T16:36:57Z</time>
      </trkpt>
      <trkpt lat="58.55688" lon="-3.8099">
        <ele>36.76</ele>
        <time>2021-03-20T16:37:00Z</time>
      </trkpt>
      <trkpt lat="58.55681" lon="-3.81032">
        <ele>37.69</ele>
        <time>2021-03-20T16:37:03Z</time>
      </trkpt>
      <trkpt lat="58.55649" lon="-3.81164">
        <ele>43.26</ele>
        <time>2021-03-20T16:37:06Z</time>
      </trkpt>
      <trkpt lat="58.55634" lon="-3.81246">
        <ele>45.54</ele>
        <time>2021-03-20T16:37:09Z</time>
      </trkpt>
      <trkpt lat="58.5563" lon="-3.81307">
        <ele>46.37</ele>
        <time>2021-03-20T16:37:12Z</time>
      </trkpt>
      <trkpt lat="58.5564" lon="-3.81705">
        <ele>52.05</ele>
        <time>2021-03-20T16:37:15Z</time>
      </trkpt>
      <trkpt lat="58.55579" lon="-3.82294">
        <ele>57.44</ele>
        <time>2021-03-20T16:37:19Z</time>
      </trkpt>
      <trkpt lat="58.55544" lon="-3.82523">
        <ele>59.9</ele>
        <time>2021-03-20T16:37:22Z</time>
      </trkpt>
      <trkpt lat="58.55512" lon="-3.82814">
        <ele>65.56</ele>
        <time>2021-03-20T16:37:25Z</time>
      </trkpt>
      <trkpt lat="58.55467" lon="-3.83073">
        <ele>75.82</ele>
        <time>2021-03-20T16:37:28Z</time>
      </trkpt>
      <trkpt lat="58.55454" lon="-3.83158">
        <ele>79.35</ele>
        <time>2021-03-20T16:37:31Z</time>
      </trkpt>
      <trkpt lat="58.55451" lon="-3.83257">
        <ele>81</ele>
        <time>2021-03-20T16:37:34Z</time>
      </trkpt>
      <trkpt lat="58.55454" lon="-3.83386">
        <ele>82.66</ele>
        <time>2021-03-20T16:37:37Z</time>
      </trkpt>
      <trkpt lat="58.55459" lon="-3.83433">
        <ele>83.49</ele>
        <time>2021-03-20T16:37:40Z</time>
      </trkpt>
      <trkpt lat="58.55467" lon="-3.83476">
        <ele>84.3</ele>
        <time>2021-03-20T16:37:43Z</time>
      </trkpt>
      <trkpt lat="58.55483" lon="-3.83523">
        <ele>85.43</ele>
        <time>2021-03-20T16:37:46Z</time>
      </trkpt>
      <trkpt lat="58.55508" lon="-3.83564">
        <ele>86.63</ele>
        <time>2021-03-20T16:37:49Z</time>
      </trkpt>
      <trkpt lat="58.55533" lon="-3.83588">
        <ele>88</ele>
        <time>2021-03-20T16:37:52Z</time>
      </trkpt>
      <trkpt lat="58.55583" lon="-3.83624">
        <ele>89.37</ele>
        <time>2021-03-20T16:37:55Z</time>
      </trkpt>
      <trkpt lat="58.55608" lon="-3.83651">
        <ele>90.96</ele>
        <time>2021-03-20T16:37:58Z</time>
      </trkpt>
      <trkpt lat="58.55633" lon="-3.83687">
        <ele>92.1</ele>
        <time>2021-03-20T16:38:01Z</time>
      </trkpt>
      <trkpt lat="58.55652" lon="-3.83749">
        <ele>93.02</ele>
        <time>2021-03-20T16:38:04Z</time>
      </trkpt>
      <trkpt lat="58.55661" lon="-3.83792">
        <ele>93.9</ele>
        <time>2021-03-20T16:38:07Z</time>
      </trkpt>
      <trkpt lat="58.55667" lon="-3.83843">
        <ele>94.31</ele>
        <time>2021-03-20T16:38:11Z</time>
      </trkpt>
      <trkpt lat="58.55663" lon="-3.83919">
        <ele>95.25</ele>
        <time>2021-03-20T16:38:14Z</time>
      </trkpt>
      <trkpt lat="58.55653" lon="-3.84001">
        <ele>96.01</ele>
        <time>2021-03-20T16:38:17Z</time>
      </trkpt>
      <trkpt lat="58.55582" lon="-3.84385">
        <ele>98.06</ele>
        <time>2021-03-20T16:38:20Z</time>
      </trkpt>
      <trkpt lat="58.55479" lon="-3.84706">
        <ele>99.53</ele>
        <time>2021-03-20T16:38:23Z</time>
      </trkpt>
      <trkpt lat="58.55453" lon="-3.84796">
        <ele>99.16</ele>
        <time>2021-03-20T16:38:26Z</time>
      </trkpt>
      <trkpt lat="58.55431" lon="-3.849">
        <ele>97.91</ele>
        <time>2021-03-20T16:38:29Z</time>
      </trkpt>
      <trkpt lat="58.55424" lon="-3.84975">
        <ele>95.48</ele>
        <time>2021-03-20T16:38:32Z</time>
      </trkpt>
      <trkpt lat="58.55424" lon="-3.85063">
        <ele>95.53</ele>
        <time>2021-03-20T16:38:35Z</time>
      </trkpt>
      <trkpt lat="58.55437" lon="-3.85156">
        <ele>95.26</ele>
        <time>2021-03-20T16:38:38Z</time>
      </trkpt>
      <trkpt lat="58.55468" lon="-3.85335">
        <ele>94.78</ele>
        <time>2021-03-20T16:38:41Z</time>
      </trkpt>
      <trkpt lat="58.55481" lon="-3.85546">
        <ele>95.04</ele>
        <time>2021-03-20T16:38:44Z</time>
      </trkpt>
      <trkpt lat="58.55491" lon="-3.85731">
        <ele>95.65</ele>
        <time>2021-03-20T16:38:47Z</time>
      </trkpt>
      <trkpt lat="58.55491" lon="-3.85812">
        <ele>96.34</ele>
        <time>2021-03-20T16:38:50Z</time>
      </trkpt>
      <trkpt lat="58.55462" lon="-3.86207">
        <ele>92.17</ele>
        <time>2021-03-20T16:38:53Z</time>
      </trkpt>
      <trkpt lat="58.55457" lon="-3.86386">
        <ele>88.9</ele>
        <time>2021-03-20T16:38:56Z</time>
      </trkpt>
      <trkpt lat="58.55467" lon="-3.86525">
        <ele>85.93</ele>
        <time>2021-03-20T16:39:00Z</time>
      </trkpt>
      <trkpt lat="58.55473" lon="-3.86657">
        <ele>83.04</ele>
        <time>2021-03-20T16:39:03Z</time>
      </trkpt>
      <trkpt lat="58.55467" lon="-3.86766">
        <ele>82.61</ele>
        <time>2021-03-20T16:39:06Z</time>
      </trkpt>
      <trkpt lat="58.55459" lon="-3.86823">
        <ele>82.01</ele>
        <time>2021-03-20T16:39:09Z</time>
      </trkpt>
      <trkpt lat="58.55445" lon="-3.86877">
        <ele>80.02</ele>
        <time>2021-03-20T16:39:12Z</time>
      </trkpt>
      <trkpt lat="58.55418" lon="-3.86932">
        <ele>79.03</ele>
        <time>2021-03-20T16:39:15Z</time>
      </trkpt>
      <trkpt lat="58.55349" lon="-3.87041">
        <ele>75.58</ele>
        <time>2021-03-20T16:39:18Z</time>
      </trkpt>
      <trkpt lat="58.5533" lon="-3.87077">
        <ele>75.55</ele>
        <time>2021-03-20T16:39:21Z</time>
      </trkpt>
      <trkpt lat="58.55317" lon="-3.87118">
        <ele>74.85</ele>
        <time>2021-03-20T16:39:24Z</time>
      </trkpt>
      <trkpt lat="58.55306" lon="-3.87169">
        <ele>73.95</ele>
        <time>2021-03-20T16:39:27Z</time>
      </trkpt>
      <trkpt lat="58.553" lon="-3.8722">
        <ele>71.84</ele>
        <time>2021-03-20T16:39:30Z</time>
      </trkpt>
      <trkpt lat="58.55301" lon="-3.87331">
        <ele>65.94</ele>
        <time>2021-03-20T16:39:33Z</time>
      </trkpt>
      <trkpt lat="58.55299" lon="-3.87365">
        <ele>63.85</ele>
        <time>2021-03-20T16:39:36Z</time>
      </trkpt>
      <trkpt lat="58.55292" lon="-3.87402">
        <ele>62.53</ele>
        <time>2021-03-20T16:39:39Z</time>
      </trkpt>
      <trkpt lat="58.55261" lon="-3.8752">
        <ele>59.29</ele>
        <time>2021-03-20T16:39:42Z</time>
      </trkpt>
      <trkpt lat="58.55195" lon="-3.87707">
        <ele>58.03</ele>
        <time>2021-03-20T16:39:45Z</time>
      </trkpt>
      <trkpt lat="58.55182" lon="-3.87776">
        <ele>56.13</ele>
        <time>2021-03-20T16:39:49Z</time>
      </trkpt>
      <trkpt lat="58.55177" lon="-3.87843">
        <ele>55.15</ele>
        <time>2021-03-20T16:39:52Z</time>
      </trkpt>
      <trkpt lat="58.55178" lon="-3.87867">
        <ele>55.2</ele>
        <time>2021-03-20T16:39:55Z</time>
      </trkpt>
      <trkpt lat="58.5519" lon="-3.88032">
        <ele>54.55</ele>
        <time>2021-03-20T16:39:58Z</time>
      </trkpt>
      <trkpt lat="58.55191" lon="-3.88079">
        <ele>53.81</ele>
        <time>2021-03-20T16:40:01Z</time>
      </trkpt>
      <trkpt lat="58.55187" lon="-3.88255">
        <ele>50.46</ele>
        <time>2021-03-20T16:40:04Z</time>
      </trkpt>
      <trkpt lat="58.55183" lon="-3.88317">
        <ele>50.8</ele>
        <time>2021-03-20T16:40:07Z</time>
      </trkpt>
      <trkpt lat="58.55176" lon="-3.88386">
        <ele>49.39</ele>
        <time>2021-03-20T16:40:10Z</time>
      </trkpt>
      <trkpt lat="58.55145" lon="-3.88587">
        <ele>47.61</ele>
        <time>2021-03-20T16:40:13Z</time>
      </trkpt>
      <trkpt lat="58.55136" lon="-3.88624">
        <ele>46.76</ele>
        <time>2021-03-20T16:40:16Z</time>
      </trkpt>
      <trkpt lat="58.55125" lon="-3.88659">
        <ele>46.01</ele>
        <time>2021-03-20T16:40:19Z</time>
      </trkpt>
      <trkpt lat="58.5509" lon="-3.88741">
        <ele>43.98</ele>
        <time>2021-03-20T16:40:22Z</time>
      </trkpt>
      <trkpt lat="58.55062" lon="-3.8878">
        <ele>43.31</ele>
        <time>2021-03-20T16:40:25Z</time>
      </trkpt>
      <trkpt lat="58.55043" lon="-3.88798">
        <ele>43.26</ele>
        <time>2021-03-20T16:40:28Z</time>
      </trkpt>
      <trkpt lat="58.54919" lon="-3.88882">
        <ele>40.24</ele>
        <time>2021-03-20T16:40:31Z</time>
      </trkpt>
      <trkpt lat="58.54869" lon="-3.88919">
        <ele>40.63</ele>
        <time>2021-03-20T16:40:34Z</time>
      </trkpt>
      <trkpt lat="58.54757" lon="-3.89029">
        <ele>37.98</ele>
        <time>2021-03-20T16:40:37Z</time>
      </trkpt>
      <trkpt lat="58.54706" lon="-3.89073">
        <ele>35.98</ele>
        <time>2021-03-20T16:40:41Z</time>
      </trkpt>
      <trkpt lat="58.54537" lon="-3.89165">
        <ele>30.07</ele>
        <time>2021-03-20T16:40:44Z</time>
      </trkpt>
      <trkpt lat="58.54475" lon="-3.89211">
        <ele>29.32</ele>
        <time>2021-03-20T16:40:47Z</time>
      </trkpt>
      <trkpt lat="58.54455" lon="-3.8923">
        <ele>28.72</ele>
        <time>2021-03-20T16:40:50Z</time>
      </trkpt>
      <trkpt lat="58.54408" lon="-3.89284">
        <ele>25.78</ele>
        <time>2021-03-20T16:40:53Z</time>
      </trkpt>
      <trkpt lat="58.54375" lon="-3.89326">
        <ele>24.48</ele>
        <time>2021-03-20T16:40:56Z</time>
      </trkpt>
      <trkpt lat="58.5434" lon="-3.89379">
        <ele>24</ele>
        <time>2021-03-20T16:40:59Z</time>
      </trkpt>
      <trkpt lat="58.54312" lon="-3.89433">
        <ele>23</ele>
        <time>2021-03-20T16:41:02Z</time>
      </trkpt>
      <trkpt lat="58.54297" lon="-3.89464">
        <ele>21.9</ele>
        <time>2021-03-20T16:41:05Z</time>
      </trkpt>
      <trkpt lat="58.54276" lon="-3.89516">
        <ele>20.39</ele>
        <time>2021-03-20T16:41:08Z</time>
      </trkpt>
      <trkpt lat="58.54244" lon="-3.89617">
        <ele>16</ele>
        <time>2021-03-20T16:41:11Z</time>
      </trkpt>
      <trkpt lat="58.54221" lon="-3.89719">
        <ele>14.01</ele>
        <time>2021-03-20T16:41:14Z</time>
      </trkpt>
      <trkpt lat="58.5421" lon="-3.89786">
        <ele>13</ele>
        <time>2021-03-20T16:41:17Z</time>
      </trkpt>
      <trkpt lat="58.54201" lon="-3.89861">
        <ele>12.01</ele>
        <time>2021-03-20T16:41:20Z</time>
      </trkpt>
      <trkpt lat="58.54198" lon="-3.89904">
        <ele>10.9</ele>
        <time>2021-03-20T16:41:23Z</time>
      </trkpt>
      <trkpt lat="58.54195" lon="-3.89997">
        <ele>6.09</ele>
        <time>2021-03-20T16:41:26Z</time>
      </trkpt>
      <trkpt lat="58.54199" lon="-3.90099">
        <ele>4</ele>
        <time>2021-03-20T16:41:30Z</time>
      </trkpt>
      <trkpt lat="58.54203" lon="-3.90152">
        <ele>5.33</ele>
        <time>2021-03-20T16:41:33Z</time>
      </trkpt>
      <trkpt lat="58.54208" lon="-3.90197">
        <ele>6.52</ele>
        <time>2021-03-20T16:41:36Z</time>
      </trkpt>
      <trkpt lat="58.54218" lon="-3.90267">
        <ele>7.75</ele>
        <time>2021-03-20T16:41:39Z</time>
      </trkpt>
      <trkpt lat="58.54238" lon="-3.90358">
        <ele>11.96</ele>
        <time>2021-03-20T16:41:42Z</time>
      </trkpt>
      <trkpt lat="58.54265" lon="-3.90452">
        <ele>15.65</ele>
        <time>2021-03-20T16:41:45Z</time>
      </trkpt>
      <trkpt lat="58.5429" lon="-3.90523">
        <ele>17.28</ele>
        <time>2021-03-20T16:41:48Z</time>
      </trkpt>
      <trkpt lat="58.54329" lon="-3.9061">
        <ele>21.08</ele>
        <time>2021-03-20T16:41:51Z</time>
      </trkpt>
      <trkpt lat="58.54344" lon="-3.90635">
        <ele>22.34</ele>
        <time>2021-03-20T16:41:54Z</time>
      </trkpt>
      <trkpt lat="58.54395" lon="-3.90703">
        <ele>23.68</ele>
        <time>2021-03-20T16:41:57Z</time>
      </trkpt>
      <trkpt lat="58.54423" lon="-3.90734">
        <ele>23.87</ele>
        <time>2021-03-20T16:42:00Z</time>
      </trkpt>
      <trkpt lat="58.54453" lon="-3.90761">
        <ele>24</ele>
        <time>2021-03-20T16:42:03Z</time>
      </trkpt>
      <trkpt lat="58.54829" lon="-3.91041">
        <ele>20</ele>
        <time>2021-03-20T16:42:06Z</time>
      </trkpt>
      <trkpt lat="58.54865" lon="-3.91073">
        <ele>20.61</ele>
        <time>2021-03-20T16:42:09Z</time>
      </trkpt>
      <trkpt lat="58.54883" lon="-3.91092">
        <ele>21</ele>
        <time>2021-03-20T16:42:12Z</time>
      </trkpt>
      <trkpt lat="58.54921" lon="-3.91142">
        <ele>22.19</ele>
        <time>2021-03-20T16:42:15Z</time>
      </trkpt>
      <trkpt lat="58.54954" lon="-3.912">
        <ele>25</ele>
        <time>2021-03-20T16:42:18Z</time>
      </trkpt>
      <trkpt lat="58.54984" lon="-3.91268">
        <ele>26</ele>
        <time>2021-03-20T16:42:22Z</time>
      </trkpt>
      <trkpt lat="58.55048" lon="-3.91432">
        <ele>29.82</ele>
        <time>2021-03-20T16:42:25Z</time>
      </trkpt>
      <trkpt lat="58.5506" lon="-3.91456">
        <ele>30.63</ele>
        <time>2021-03-20T16:42:28Z</time>
      </trkpt>
      <trkpt lat="58.55083" lon="-3.91495">
        <ele>30.87</ele>
        <time>2021-03-20T16:42:31Z</time>
      </trkpt>
      <trkpt lat="58.55114" lon="-3.91535">
        <ele>32.26</ele>
        <time>2021-03-20T16:42:34Z</time>
      </trkpt>
      <trkpt lat="58.55183" lon="-3.91609">
        <ele>36.3</ele>
        <time>2021-03-20T16:42:37Z</time>
      </trkpt>
      <trkpt lat="58.55326" lon="-3.91785">
        <ele>36.09</ele>
        <time>2021-03-20T16:42:40Z</time>
      </trkpt>
      <trkpt lat="58.55423" lon="-3.91878">
        <ele>40.08</ele>
        <time>2021-03-20T16:42:43Z</time>
      </trkpt>
      <trkpt lat="58.55442" lon="-3.91901">
        <ele>40.94</ele>
        <time>2021-03-20T16:42:46Z</time>
      </trkpt>
      <trkpt lat="58.55489" lon="-3.91968">
        <ele>43.2</ele>
        <time>2021-03-20T16:42:49Z</time>
      </trkpt>
      <trkpt lat="58.55513" lon="-3.92019">
        <ele>45.35</ele>
        <time>2021-03-20T16:42:52Z</time>
      </trkpt>
      <trkpt lat="58.55536" lon="-3.9208">
        <ele>47.58</ele>
        <time>2021-03-20T16:42:55Z</time>
      </trkpt>
      <trkpt lat="58.55628" lon="-3.92342">
        <ele>51.65</ele>
        <time>2021-03-20T16:42:58Z</time>
      </trkpt>
      <trkpt lat="58.55655" lon="-3.92423">
        <ele>53.6</ele>
        <time>2021-03-20T16:43:01Z</time>
      </trkpt>
      <trkpt lat="58.55668" lon="-3.92478">
        <ele>54.85</ele>
        <time>2021-03-20T16:43:04Z</time>
      </trkpt>
      <trkpt lat="58.557" lon="-3.92697">
        <ele>56.48</ele>
        <time>2021-03-20T16:43:07Z</time>
      </trkpt>
      <trkpt lat="58.55726" lon="-3.9284">
        <ele>57.09</ele>
        <time>2021-03-20T16:43:11Z</time>
      </trkpt>
      <trkpt lat="58.55757" lon="-3.92966">
        <ele>59.24</ele>
        <time>2021-03-20T16:43:14Z</time>
      </trkpt>
      <trkpt lat="58.55774" lon="-3.9303">
        <ele>60.43</ele>
        <time>2021-03-20T16:43:17Z</time>
      </trkpt>
      <trkpt lat="58.55797" lon="-3.93084">
        <ele>62.31</ele>
        <time>2021-03-20T16:43:20Z</time>
      </trkpt>
      <trkpt lat="58.55807" lon="-3.93102">
        <ele>62.61</ele>
        <time>2021-03-20T16:43:23Z</time>
      </trkpt>
      <trkpt lat="58.55831" lon="-3.93134">
        <ele>63.77</ele>
        <time>2021-03-20T16:43:26Z</time>
      </trkpt>
      <trkpt lat="58.55852" lon="-3.93158">
        <ele>64.7</ele>
        <time>2021-03-20T16:43:29Z</time>
      </trkpt>
      <trkpt lat="58.55908" lon="-3.93203">
        <ele>67.64</ele>
        <time>2021-03-20T16:43:32Z</time>
      </trkpt>
      <trkpt lat="58.55929" lon="-3.93232">
        <ele>67.96</ele>
        <time>2021-03-20T16:43:35Z</time>
      </trkpt>
      <trkpt lat="58.55938" lon="-3.93249">
        <ele>68.64</ele>
        <time>2021-03-20T16:43:38Z</time>
      </trkpt>
      <trkpt lat="58.5595" lon="-3.93281">
        <ele>69.67</ele>
        <time>2021-03-20T16:43:41Z</time>
      </trkpt>
      <trkpt lat="58.5596" lon="-3.93324">
        <ele>70.98</ele>
        <time>2021-03-20T16:43:44Z</time>
      </trkpt>
      <trkpt lat="58.55972" lon="-3.93398">
        <ele>72.36</ele>
        <time>2021-03-20T16:43:47Z</time>
      </trkpt>
      <trkpt lat="58.55982" lon="-3.93501">
        <ele>75.05</ele>
        <time>2021-03-20T16:43:50Z</time>
      </trkpt>
      <trkpt lat="58.55986" lon="-3.93566">
        <ele>76.7</ele>
        <time>2021-03-20T16:43:53Z</time>
      </trkpt>
      <trkpt lat="58.5599" lon="-3.9366">
        <ele>79.12</ele>
        <time>2021-03-20T16:43:56Z</time>
      </trkpt>
      <trkpt lat="58.5599" lon="-3.93718">
        <ele>82.21</ele>
        <time>2021-03-20T16:44:00Z</time>
      </trkpt>
      <trkpt lat="58.55986" lon="-3.93844">
        <ele>84.22</ele>
        <time>2021-03-20T16:44:03Z</time>
      </trkpt>
      <trkpt lat="58.55975" lon="-3.93964">
        <ele>84.27</ele>
        <time>2021-03-20T16:44:06Z</time>
      </trkpt>
      <trkpt lat="58.55955" lon="-3.94115">
        <ele>79.11</ele>
        <time>2021-03-20T16:44:09Z</time>
      </trkpt>
      <trkpt lat="58.55947" lon="-3.94197">
        <ele>75.63</ele>
        <time>2021-03-20T16:44:12Z</time>
      </trkpt>
      <trkpt lat="58.55943" lon="-3.94283">
        <ele>70.84</ele>
        <time>2021-03-20T16:44:15Z</time>
      </trkpt>
      <trkpt lat="58.55944" lon="-3.94327">
        <ele>69.23</ele>
        <time>2021-03-20T16:44:18Z</time>
      </trkpt>
      <trkpt lat="58.55949" lon="-3.94408">
        <ele>70.36</ele>
        <time>2021-03-20T16:44:21Z</time>
      </trkpt>
      <trkpt lat="58.5596" lon="-3.94485">
        <ele>74.04</ele>
        <time>2021-03-20T16:44:24Z</time>
      </trkpt>
      <trkpt lat="58.5598" lon="-3.9458">
        <ele>76.87</ele>
        <time>2021-03-20T16:44:27Z</time>
      </trkpt>
      <trkpt lat="58.56157" lon="-3.95321">
        <ele>75.89</ele>
        <time>2021-03-20T16:44:30Z</time>
      </trkpt>
      <trkpt lat="58.56188" lon="-3.95449">
        <ele>78.65</ele>
        <time>2021-03-20T16:44:33Z</time>
      </trkpt>
      <trkpt lat="58.56213" lon="-3.95563">
        <ele>80.7</ele>
        <time>2021-03-20T16:44:36Z</time>
      </trkpt>
      <trkpt lat="58.56222" lon="-3.95622">
        <ele>83.24</ele>
        <time>2021-03-20T16:44:39Z</time>
      </trkpt>
      <trkpt lat="58.56227" lon="-3.95697">
        <ele>87.75</ele>
        <time>2021-03-20T16:44:42Z</time>
      </trkpt>
      <trkpt lat="58.56227" lon="-3.95735">
        <ele>88.63</ele>
        <time>2021-03-20T16:44:45Z</time>
      </trkpt>
      <trkpt lat="58.56226" lon="-3.95775">
        <ele>88.75</ele>
        <time>2021-03-20T16:44:48Z</time>
      </trkpt>
      <trkpt lat="58.56219" lon="-3.95836">
        <ele>89.2</ele>
        <time>2021-03-20T16:44:52Z</time>
      </trkpt>
      <trkpt lat="58.56211" lon="-3.95886">
        <ele>89.4</ele>
        <time>2021-03-20T16:44:55Z</time>
      </trkpt>
      <trkpt lat="58.56204" lon="-3.95918">
        <ele>88.65</ele>
        <time>2021-03-20T16:44:58Z</time>
      </trkpt>
      <trkpt lat="58.56193" lon="-3.95955">
        <ele>88.41</ele>
        <time>2021-03-20T16:45:01Z</time>
      </trkpt>
      <trkpt lat="58.56171" lon="-3.96014">
        <ele>87.43</ele>
        <time>2021-03-20T16:45:04Z</time>
      </trkpt>
      <trkpt lat="58.56131" lon="-3.96099">
        <ele>84.49</ele>
        <time>2021-03-20T16:45:07Z</time>
      </trkpt>
      <trkpt lat="58.56073" lon="-3.96211">
        <ele>83.16</ele>
        <time>2021-03-20T16:45:10Z</time>
      </trkpt>
      <trkpt lat="58.56046" lon="-3.9627">
        <ele>83.33</ele>
        <time>2021-03-20T16:45:13Z</time>
      </trkpt>
      <trkpt lat="58.56028" lon="-3.96316">
        <ele>82.97</ele>
        <time>2021-03-20T16:45:16Z</time>
      </trkpt>
      <trkpt lat="58.56003" lon="-3.96394">
        <ele>82.71</ele>
        <time>2021-03-20T16:45:19Z</time>
      </trkpt>
      <trkpt lat="58.55988" lon="-3.96449">
        <ele>82.42</ele>
        <time>2021-03-20T16:45:22Z</time>
      </trkpt>
      <trkpt lat="58.55973" lon="-3.9652">
        <ele>82.23</ele>
        <time>2021-03-20T16:45:25Z</time>
      </trkpt>
      <trkpt lat="58.55958" lon="-3.96625">
        <ele>79.51</ele>
        <time>2021-03-20T16:45:28Z</time>
      </trkpt>
      <trkpt lat="58.55952" lon="-3.96699">
        <ele>76.96</ele>
        <time>2021-03-20T16:45:31Z</time>
      </trkpt>
      <trkpt lat="58.55948" lon="-3.96782">
        <ele>77.03</ele>
        <time>2021-03-20T16:45:34Z</time>
      </trkpt>
      <trkpt lat="58.55911" lon="-3.98054">
        <ele>77.73</ele>
        <time>2021-03-20T16:45:37Z</time>
      </trkpt>
      <trkpt lat="58.5591" lon="-3.98153">
        <ele>72.52</ele>
        <time>2021-03-20T16:45:41Z</time>
      </trkpt>
      <trkpt lat="58.5591" lon="-3.98197">
        <ele>70.9</ele>
        <time>2021-03-20T16:45:44Z</time>
      </trkpt>
      <trkpt lat="58.55916" lon="-3.98291">
        <ele>68.58</ele>
        <time>2021-03-20T16:45:47Z</time>
      </trkpt>
      <trkpt lat="58.55922" lon="-3.98349">
        <ele>66.9</ele>
        <time>2021-03-20T16:45:50Z</time>
      </trkpt>
      <trkpt lat="58.55929" lon="-3.98401">
        <ele>66.57</ele>
        <time>2021-03-20T16:45:53Z</time>
      </trkpt>
      <trkpt lat="58.55959" lon="-3.98593">
        <ele>66</ele>
        <time>2021-03-20T16:45:56Z</time>
      </trkpt>
      <trkpt lat="58.55968" lon="-3.98654">
        <ele>66</ele>
        <time>2021-03-20T16:45:59Z</time>
      </trkpt>
      <trkpt lat="58.55975" lon="-3.98723">
        <ele>65.21</ele>
        <time>2021-03-20T16:46:02Z</time>
      </trkpt>
      <trkpt lat="58.5598" lon="-3.98796">
        <ele>64.63</ele>
        <time>2021-03-20T16:46:05Z</time>
      </trkpt>
      <trkpt lat="58.55981" lon="-3.98863">
        <ele>63.3</ele>
        <time>2021-03-20T16:46:08Z</time>
      </trkpt>
      <trkpt lat="58.5598" lon="-3.98926">
        <ele>61.65</ele>
        <time>2021-03-20T16:46:11Z</time>
      </trkpt>
      <trkpt lat="58.55977" lon="-3.98949">
        <ele>60.82</ele>
        <time>2021-03-20T16:46:14Z</time>
      </trkpt>
      <trkpt lat="58.55969" lon="-3.98987">
        <ele>59.8</ele>
        <time>2021-03-20T16:46:17Z</time>
      </trkpt>
      <trkpt lat="58.5596" lon="-3.99013">
        <ele>59.31</ele>
        <time>2021-03-20T16:46:20Z</time>
      </trkpt>
      <trkpt lat="58.55942" lon="-3.99047">
        <ele>58.83</ele>
        <time>2021-03-20T16:46:23Z</time>
      </trkpt>
      <trkpt lat="58.55904" lon="-3.991">
        <ele>57.42</ele>
        <time>2021-03-20T16:46:26Z</time>
      </trkpt>
      <trkpt lat="58.55894" lon="-3.99111">
        <ele>56.56</ele>
        <time>2021-03-20T16:46:29Z</time>
      </trkpt>
      <trkpt lat="58.55846" lon="-3.99149">
        <ele>50.79</ele>
        <time>2021-03-20T16:46:33Z</time>
      </trkpt>
      <trkpt lat="58.55831" lon="-3.99166">
        <ele>48.7</ele>
        <time>2021-03-20T16:46:36Z</time>
      </trkpt>
      <trkpt lat="58.55822" lon="-3.99183">
        <ele>47.12</ele>
        <time>2021-03-20T16:46:39Z</time>
      </trkpt>
      <trkpt lat="58.55815" lon="-3.99202">
        <ele>45.52</ele>
        <time>2021-03-20T16:46:42Z</time>
      </trkpt>
      <trkpt lat="58.55802" lon="-3.9925">
        <ele>41.47</ele>
        <time>2021-03-20T16:46:45Z</time>
      </trkpt>
      <trkpt lat="58.55781" lon="-3.99342">
        <ele>36.15</ele>
        <time>2021-03-20T16:46:48Z</time>
      </trkpt>
      <trkpt lat="58.55759" lon="-3.99456">
        <ele>30.19</ele>
        <time>2021-03-20T16:46:51Z</time>
      </trkpt>
      <trkpt lat="58.55747" lon="-3.99522">
        <ele>28.21</ele>
        <time>2021-03-20T16:46:54Z</time>
      </trkpt>
      <trkpt lat="58.55743" lon="-3.99568">
        <ele>26.82</ele>
        <time>2021-03-20T16:46:57Z</time>
      </trkpt>
      <trkpt lat="58.55742" lon="-3.99594">
        <ele>26.19</ele>
        <time>2021-03-20T16:47:00Z</time>
      </trkpt>
      <trkpt lat="58.55744" lon="-3.99635">
        <ele>25.15</ele>
        <time>2021-03-20T16:47:03Z</time>
      </trkpt>
      <trkpt lat="58.55752" lon="-3.99677">
        <ele>23.61</ele>
        <time>2021-03-20T16:47:06Z</time>
      </trkpt>
      <trkpt lat="58.55835" lon="-3.99986">
        <ele>8.43</ele>
        <time>2021-03-20T16:47:09Z</time>
      </trkpt>
      <trkpt lat="58.55967" lon="-4.00322">
        <ele>12.33</ele>
        <time>2021-03-20T16:47:12Z</time>
      </trkpt>
      <trkpt lat="58.56007" lon="-4.00411">
        <ele>16.8</ele>
        <time>2021-03-20T16:47:15Z</time>
      </trkpt>
      <trkpt lat="58.56043" lon="-4.00483">
        <ele>19.84</ele>
        <time>2021-03-20T16:47:18Z</time>
      </trkpt>
      <trkpt lat="58.5606" lon="-4.0051">
        <ele>20.88</ele>
        <time>2021-03-20T16:47:22Z</time>
      </trkpt>
      <trkpt lat="58.56083" lon="-4.00541">
        <ele>22.97</ele>
        <time>2021-03-20T16:47:25Z</time>
      </trkpt>
      <trkpt lat="58.56141" lon="-4.00611">
        <ele>25.93</ele>
        <time>2021-03-20T16:47:28Z</time>
      </trkpt>
      <trkpt lat="58.56158" lon="-4.00639">
        <ele>29.61</ele>
        <time>2021-03-20T16:47:31Z</time>
      </trkpt>
      <trkpt lat="58.56175" lon="-4.00682">
        <ele>32.39</ele>
        <time>2021-03-20T16:47:34Z</time>
      </trkpt>
      <trkpt lat="58.56187" lon="-4.00737">
        <ele>35.2</ele>
        <time>2021-03-20T16:47:37Z</time>
      </trkpt>
      <trkpt lat="58.56208" lon="-4.00848">
        <ele>43.33</ele>
        <time>2021-03-20T16:47:40Z</time>
      </trkpt>
      <trkpt lat="58.56216" lon="-4.00903">
        <ele>45.75</ele>
        <time>2021-03-20T16:47:43Z</time>
      </trkpt>
      <trkpt lat="58.56223" lon="-4.01107">
        <ele>53.85</ele>
        <time>2021-03-20T16:47:46Z</time>
      </trkpt>
      <trkpt lat="58.56224" lon="-4.01168">
        <ele>56.12</ele>
        <time>2021-03-20T16:47:49Z</time>
      </trkpt>
      <trkpt lat="58.5622" lon="-4.01233">
        <ele>59.28</ele>
        <time>2021-03-20T16:47:52Z</time>
      </trkpt>
      <trkpt lat="58.56216" lon="-4.01272">
        <ele>60.54</ele>
        <time>2021-03-20T16:47:55Z</time>
      </trkpt>
      <trkpt lat="58.56185" lon="-4.01448">
        <ele>66.14</ele>
        <time>2021-03-20T16:47:58Z</time>
      </trkpt>
      <trkpt lat="58.56173" lon="-4.01504">
        <ele>67.93</ele>
        <time>2021-03-20T16:48:01Z</time>
      </trkpt>
      <trkpt lat="58.56161" lon="-4.01547">
        <ele>69.76</ele>
        <time>2021-03-20T16:48:04Z</time>
      </trkpt>
      <trkpt lat="58.56124" lon="-4.01652">
        <ele>72.53</ele>
        <time>2021-03-20T16:48:07Z</time>
      </trkpt>
      <trkpt lat="58.56092" lon="-4.01726">
        <ele>74.85</ele>
        <time>2021-03-20T16:48:11Z</time>
      </trkpt>
      <trkpt lat="58.55923" lon="-4.02061">
        <ele>91.97</ele>
        <time>2021-03-20T16:48:14Z</time>
      </trkpt>
      <trkpt lat="58.55906" lon="-4.02103">
        <ele>93</ele>
        <time>2021-03-20T16:48:17Z</time>
      </trkpt>
      <trkpt lat="58.5589" lon="-4.02167">
        <ele>94</ele>
        <time>2021-03-20T16:48:20Z</time>
      </trkpt>
      <trkpt lat="58.55841" lon="-4.02408">
        <ele>95.74</ele>
        <time>2021-03-20T16:48:23Z</time>
      </trkpt>
      <trkpt lat="58.5582" lon="-4.02481">
        <ele>95.97</ele>
        <time>2021-03-20T16:48:26Z</time>
      </trkpt>
      <trkpt lat="58.55806" lon="-4.02521">
        <ele>96.21</ele>
        <time>2021-03-20T16:48:29Z</time>
      </trkpt>
      <trkpt lat="58.55779" lon="-4.02584">
        <ele>95.96</ele>
        <time>2021-03-20T16:48:32Z</time>
      </trkpt>
      <trkpt lat="58.55729" lon="-4.02684">
        <ele>93.39</ele>
        <time>2021-03-20T16:48:35Z</time>
      </trkpt>
      <trkpt lat="58.55703" lon="-4.02738">
        <ele>92.1</ele>
        <time>2021-03-20T16:48:38Z</time>
      </trkpt>
      <trkpt lat="58.55678" lon="-4.02807">
        <ele>89.97</ele>
        <time>2021-03-20T16:48:41Z</time>
      </trkpt>
      <trkpt lat="58.5566" lon="-4.02871">
        <ele>88.74</ele>
        <time>2021-03-20T16:48:44Z</time>
      </trkpt>
      <trkpt lat="58.55651" lon="-4.0291">
        <ele>87.8</ele>
        <time>2021-03-20T16:48:47Z</time>
      </trkpt>
      <trkpt lat="58.55643" lon="-4.02957">
        <ele>87.84</ele>
        <time>2021-03-20T16:48:50Z</time>
      </trkpt>
      <trkpt lat="58.55634" lon="-4.03032">
        <ele>89.18</ele>
        <time>2021-03-20T16:48:53Z</time>
      </trkpt>
      <trkpt lat="58.55629" lon="-4.03112">
        <ele>89.37</ele>
        <time>2021-03-20T16:48:56Z</time>
      </trkpt>
      <trkpt lat="58.55613" lon="-4.03934">
        <ele>96</ele>
        <time>2021-03-20T16:48:59Z</time>
      </trkpt>
      <trkpt lat="58.5561" lon="-4.03991">
        <ele>97.15</ele>
        <time>2021-03-20T16:49:03Z</time>
      </trkpt>
      <trkpt lat="58.55599" lon="-4.04099">
        <ele>97.33</ele>
        <time>2021-03-20T16:49:06Z</time>
      </trkpt>
      <trkpt lat="58.55584" lon="-4.04186">
        <ele>95.28</ele>
        <time>2021-03-20T16:49:09Z</time>
      </trkpt>
      <trkpt lat="58.55308" lon="-4.05517">
        <ele>100.06</ele>
        <time>2021-03-20T16:49:12Z</time>
      </trkpt>
      <trkpt lat="58.55289" lon="-4.05637">
        <ele>101</ele>
        <time>2021-03-20T16:49:15Z</time>
      </trkpt>
      <trkpt lat="58.55278" lon="-4.05725">
        <ele>99.89</ele>
        <time>2021-03-20T16:49:18Z</time>
      </trkpt>
      <trkpt lat="58.55265" lon="-4.05812">
        <ele>98.36</ele>
        <time>2021-03-20T16:49:21Z</time>
      </trkpt>
      <trkpt lat="58.55246" lon="-4.05896">
        <ele>96.76</ele>
        <time>2021-03-20T16:49:24Z</time>
      </trkpt>
      <trkpt lat="58.5523" lon="-4.05948">
        <ele>94.87</ele>
        <time>2021-03-20T16:49:27Z</time>
      </trkpt>
      <trkpt lat="58.55216" lon="-4.05985">
        <ele>94.12</ele>
        <time>2021-03-20T16:49:30Z</time>
      </trkpt>
      <trkpt lat="58.55195" lon="-4.06032">
        <ele>91.88</ele>
        <time>2021-03-20T16:49:33Z</time>
      </trkpt>
      <trkpt lat="58.55166" lon="-4.06084">
        <ele>89.96</ele>
        <time>2021-03-20T16:49:36Z</time>
      </trkpt>
      <trkpt lat="58.55129" lon="-4.06135">
        <ele>87.26</ele>
        <time>2021-03-20T16:49:39Z</time>
      </trkpt>
      <trkpt lat="58.55095" lon="-4.06171">
        <ele>85.13</ele>
        <time>2021-03-20T16:49:42Z</time>
      </trkpt>
      <trkpt lat="58.55029" lon="-4.06223">
        <ele>80.03</ele>
        <time>2021-03-20T16:49:45Z</time>
      </trkpt>
      <trkpt lat="58.54843" lon="-4.06355">
        <ele>65.89</ele>
        <time>2021-03-20T16:49:48Z</time>
      </trkpt>
      <trkpt lat="58.54799" lon="-4.06394">
        <ele>62.78</ele>
        <time>2021-03-20T16:49:52Z</time>
      </trkpt>
      <trkpt lat="58.54763" lon="-4.06441">
        <ele>60.9</ele>
        <time>2021-03-20T16:49:55Z</time>
      </trkpt>
      <trkpt lat="58.54739" lon="-4.06482">
        <ele>59.45</ele>
        <time>2021-03-20T16:49:58Z</time>
      </trkpt>
      <trkpt lat="58.54712" lon="-4.0654">
        <ele>56.84</ele>
        <time>2021-03-20T16:50:01Z</time>
      </trkpt>
      <trkpt lat="58.54701" lon="-4.06571">
        <ele>55.13</ele>
        <time>2021-03-20T16:50:04Z</time>
      </trkpt>
      <trkpt lat="58.54681" lon="-4.06646">
        <ele>50.37</ele>
        <time>2021-03-20T16:50:07Z</time>
      </trkpt>
      <trkpt lat="58.54669" lon="-4.06713">
        <ele>43.92</ele>
        <time>2021-03-20T16:50:10Z</time>
      </trkpt>
      <trkpt lat="58.54662" lon="-4.06778">
        <ele>37</ele>
        <time>2021-03-20T16:50:13Z</time>
      </trkpt>
      <trkpt lat="58.5466" lon="-4.06846">
        <ele>33.09</ele>
        <time>2021-03-20T16:50:16Z</time>
      </trkpt>
      <trkpt lat="58.54663" lon="-4.06914">
        <ele>30.8</ele>
        <time>2021-03-20T16:50:19Z</time>
      </trkpt>
      <trkpt lat="58.54671" lon="-4.06989">
        <ele>28.73</ele>
        <time>2021-03-20T16:50:22Z</time>
      </trkpt>
      <trkpt lat="58.54691" lon="-4.07088">
        <ele>22.52</ele>
        <time>2021-03-20T16:50:25Z</time>
      </trkpt>
      <trkpt lat="58.54718" lon="-4.07193">
        <ele>18.09</ele>
        <time>2021-03-20T16:50:28Z</time>
      </trkpt>
      <trkpt lat="58.54729" lon="-4.07246">
        <ele>18.36</ele>
        <time>2021-03-20T16:50:31Z</time>
      </trkpt>
      <trkpt lat="58.54735" lon="-4.07288">
        <ele>19.42</ele>
        <time>2021-03-20T16:50:34Z</time>
      </trkpt>
      <trkpt lat="58.5474" lon="-4.07333">
        <ele>20.34</ele>
        <time>2021-03-20T16:50:37Z</time>
      </trkpt>
      <trkpt lat="58.54742" lon="-4.07384">
        <ele>20.28</ele>
        <time>2021-03-20T16:50:41Z</time>
      </trkpt>
      <trkpt lat="58.54742" lon="-4.07425">
        <ele>20.29</ele>
        <time>2021-03-20T16:50:44Z</time>
      </trkpt>
      <trkpt lat="58.54733" lon="-4.07642">
        <ele>23.19</ele>
        <time>2021-03-20T16:50:47Z</time>
      </trkpt>
      <trkpt lat="58.54729" lon="-4.07691">
        <ele>24.4</ele>
        <time>2021-03-20T16:50:50Z</time>
      </trkpt>
      <trkpt lat="58.54721" lon="-4.07721">
        <ele>25.13</ele>
        <time>2021-03-20T16:50:53Z</time>
      </trkpt>
      <trkpt lat="58.54709" lon="-4.07746">
        <ele>26.5</ele>
        <time>2021-03-20T16:50:56Z</time>
      </trkpt>
      <trkpt lat="58.547" lon="-4.07759">
        <ele>27.45</ele>
        <time>2021-03-20T16:50:59Z</time>
      </trkpt>
      <trkpt lat="58.54614" lon="-4.07854">
        <ele>30.05</ele>
        <time>2021-03-20T16:51:02Z</time>
      </trkpt>
      <trkpt lat="58.54494" lon="-4.07978">
        <ele>32.22</ele>
        <time>2021-03-20T16:51:05Z</time>
      </trkpt>
      <trkpt lat="58.5447" lon="-4.08007">
        <ele>32.75</ele>
        <time>2021-03-20T16:51:08Z</time>
      </trkpt>
      <trkpt lat="58.5446" lon="-4.08029">
        <ele>32</ele>
        <time>2021-03-20T16:51:11Z</time>
      </trkpt>
      <trkpt lat="58.54454" lon="-4.08054">
        <ele>32</ele>
        <time>2021-03-20T16:51:14Z</time>
      </trkpt>
      <trkpt lat="58.54452" lon="-4.0808">
        <ele>30.26</ele>
        <time>2021-03-20T16:51:17Z</time>
      </trkpt>
      <trkpt lat="58.54477" lon="-4.08344">
        <ele>24.28</ele>
        <time>2021-03-20T16:51:20Z</time>
      </trkpt>
      <trkpt lat="58.54475" lon="-4.08392">
        <ele>26.19</ele>
        <time>2021-03-20T16:51:23Z</time>
      </trkpt>
      <trkpt lat="58.5447" lon="-4.08423">
        <ele>28.23</ele>
        <time>2021-03-20T16:51:26Z</time>
      </trkpt>
      <trkpt lat="58.54461" lon="-4.08454">
        <ele>29.68</ele>
        <time>2021-03-20T16:51:29Z</time>
      </trkpt>
      <trkpt lat="58.54454" lon="-4.08471">
        <ele>30.92</ele>
        <time>2021-03-20T16:51:33Z</time>
      </trkpt>
      <trkpt lat="58.54427" lon="-4.08515">
        <ele>32.8</ele>
        <time>2021-03-20T16:51:36Z</time>
      </trkpt>
      <trkpt lat="58.54387" lon="-4.08568">
        <ele>37.29</ele>
        <time>2021-03-20T16:51:39Z</time>
      </trkpt>
      <trkpt lat="58.54344" lon="-4.08618">
        <ele>42.02</ele>
        <time>2021-03-20T16:51:42Z</time>
      </trkpt>
      <trkpt lat="58.54283" lon="-4.08673">
        <ele>47.64</ele>
        <time>2021-03-20T16:51:45Z</time>
      </trkpt>
      <trkpt lat="58.54252" lon="-4.08695">
        <ele>50.96</ele>
        <time>2021-03-20T16:51:48Z</time>
      </trkpt>
      <trkpt lat="58.54231" lon="-4.08706">
        <ele>52.81</ele>
        <time>2021-03-20T16:51:51Z</time>
      </trkpt>
      <trkpt lat="58.5418" lon="-4.08724">
        <ele>56.12</ele>
        <time>2021-03-20T16:51:54Z</time>
      </trkpt>
      <trkpt lat="58.5417" lon="-4.0873">
        <ele>56.82</ele>
        <time>2021-03-20T16:51:57Z</time>
      </trkpt>
      <trkpt lat="58.54155" lon="-4.08745">
        <ele>57.58</ele>
        <time>2021-03-20T16:52:00Z</time>
      </trkpt>
      <trkpt lat="58.54142" lon="-4.08766">
        <ele>58.87</ele>
        <time>2021-03-20T16:52:03Z</time>
      </trkpt>
      <trkpt lat="58.54131" lon="-4.08796">
        <ele>59.97</ele>
        <time>2021-03-20T16:52:06Z</time>
      </trkpt>
      <trkpt lat="58.54109" lon="-4.08871">
        <ele>63.55</ele>
        <time>2021-03-20T16:52:09Z</time>
      </trkpt>
      <trkpt lat="58.54103" lon="-4.08909">
        <ele>65.35</ele>
        <time>2021-03-20T16:52:12Z</time>
      </trkpt>
      <trkpt lat="58.54102" lon="-4.0894">
        <ele>66.5</ele>
        <time>2021-03-20T16:52:15Z</time>
      </trkpt>
      <trkpt lat="58.54103" lon="-4.08955">
        <ele>67.08</ele>
        <time>2021-03-20T16:52:18Z</time>
      </trkpt>
      <trkpt lat="58.54108" lon="-4.08983">
        <ele>67.88</ele>
        <time>2021-03-20T16:52:22Z</time>
      </trkpt>
      <trkpt lat="58.54118" lon="-4.09015">
        <ele>68.77</ele>
        <time>2021-03-20T16:52:25Z</time>
      </trkpt>
      <trkpt lat="58.54264" lon="-4.09382">
        <ele>91.61</ele>
        <time>2021-03-20T16:52:28Z</time>
      </trkpt>
      <trkpt lat="58.5429" lon="-4.09429">
        <ele>93.79</ele>
        <time>2021-03-20T16:52:31Z</time>
      </trkpt>
      <trkpt lat="58.54364" lon="-4.09525">
        <ele>96.66</ele>
        <time>2021-03-20T16:52:34Z</time>
      </trkpt>
      <trkpt lat="58.54392" lon="-4.09551">
        <ele>97.83</ele>
        <time>2021-03-20T16:52:37Z</time>
      </trkpt>
      <trkpt lat="58.54437" lon="-4.09583">
        <ele>98.97</ele>
        <time>2021-03-20T16:52:40Z</time>
      </trkpt>
      <trkpt lat="58.54454" lon="-4.09602">
        <ele>99</ele>
        <time>2021-03-20T16:52:43Z</time>
      </trkpt>
      <trkpt lat="58.54476" lon="-4.09639">
        <ele>100</ele>
        <time>2021-03-20T16:52:46Z</time>
      </trkpt>
      <trkpt lat="58.54539" lon="-4.09816">
        <ele>105.17</ele>
        <time>2021-03-20T16:52:49Z</time>
      </trkpt>
      <trkpt lat="58.54558" lon="-4.09882">
        <ele>107.43</ele>
        <time>2021-03-20T16:52:52Z</time>
      </trkpt>
      <trkpt lat="58.54566" lon="-4.09912">
        <ele>108.59</ele>
        <time>2021-03-20T16:52:55Z</time>
      </trkpt>
      <trkpt lat="58.54577" lon="-4.0997">
        <ele>111.79</ele>
        <time>2021-03-20T16:52:58Z</time>
      </trkpt>
      <trkpt lat="58.54579" lon="-4.1001">
        <ele>115.08</ele>
        <time>2021-03-20T16:53:01Z</time>
      </trkpt>
      <trkpt lat="58.54577" lon="-4.10049">
        <ele>117.26</ele>
        <time>2021-03-20T16:53:04Z</time>
      </trkpt>
      <trkpt lat="58.5457" lon="-4.10085">
        <ele>118.53</ele>
        <time>2021-03-20T16:53:07Z</time>
      </trkpt>
      <trkpt lat="58.54557" lon="-4.10118">
        <ele>119</ele>
        <time>2021-03-20T16:53:10Z</time>
      </trkpt>
      <trkpt lat="58.54544" lon="-4.10139">
        <ele>119.41</ele>
        <time>2021-03-20T16:53:14Z</time>
      </trkpt>
      <trkpt lat="58.54528" lon="-4.10156">
        <ele>119.99</ele>
        <time>2021-03-20T16:53:17Z</time>
      </trkpt>
      <trkpt lat="58.54512" lon="-4.10165">
        <ele>120.61</ele>
        <time>2021-03-20T16:53:20Z</time>
      </trkpt>
      <trkpt lat="58.5445" lon="-4.10171">
        <ele>121.21</ele>
        <time>2021-03-20T16:53:23Z</time>
      </trkpt>
      <trkpt lat="58.54421" lon="-4.10178">
        <ele>120.66</ele>
        <time>2021-03-20T16:53:26Z</time>
      </trkpt>
      <trkpt lat="58.54402" lon="-4.10185">
        <ele>119.8</ele>
        <time>2021-03-20T16:53:29Z</time>
      </trkpt>
      <trkpt lat="58.54287" lon="-4.10248">
        <ele>116.84</ele>
        <time>2021-03-20T16:53:32Z</time>
      </trkpt>
      <trkpt lat="58.54265" lon="-4.10266">
        <ele>117.89</ele>
        <time>2021-03-20T16:53:35Z</time>
      </trkpt>
      <trkpt lat="58.54243" lon="-4.10295">
        <ele>119.4</ele>
        <time>2021-03-20T16:53:38Z</time>
      </trkpt>
      <trkpt lat="58.54232" lon="-4.10312">
        <ele>120</ele>
        <time>2021-03-20T16:53:41Z</time>
      </trkpt>
      <trkpt lat="58.54214" lon="-4.10349">
        <ele>120.05</ele>
        <time>2021-03-20T16:53:44Z</time>
      </trkpt>
      <trkpt lat="58.54207" lon="-4.10367">
        <ele>120</ele>
        <time>2021-03-20T16:53:47Z</time>
      </trkpt>
      <trkpt lat="58.54179" lon="-4.10459">
        <ele>120.35</ele>
        <time>2021-03-20T16:53:50Z</time>
      </trkpt>
      <trkpt lat="58.54132" lon="-4.10569">
        <ele>122.47</ele>
        <time>2021-03-20T16:53:53Z</time>
      </trkpt>
      <trkpt lat="58.5411" lon="-4.10627">
        <ele>124.52</ele>
        <time>2021-03-20T16:53:56Z</time>
      </trkpt>
      <trkpt lat="58.54088" lon="-4.10693">
        <ele>126.13</ele>
        <time>2021-03-20T16:53:59Z</time>
      </trkpt>
      <trkpt lat="58.5407" lon="-4.10756">
        <ele>126.76</ele>
        <time>2021-03-20T16:54:03Z</time>
      </trkpt>
      <trkpt lat="58.54062" lon="-4.10798">
        <ele>127.93</ele>
        <time>2021-03-20T16:54:06Z</time>
      </trkpt>
      <trkpt lat="58.54058" lon="-4.10825">
        <ele>128.78</ele>
        <time>2021-03-20T16:54:09Z</time>
      </trkpt>
      <trkpt lat="58.54059" lon="-4.10872">
        <ele>129.27</ele>
        <time>2021-03-20T16:54:12Z</time>
      </trkpt>
      <trkpt lat="58.54062" lon="-4.10891">
        <ele>129.43</ele>
        <time>2021-03-20T16:54:15Z</time>
      </trkpt>
      <trkpt lat="58.54071" lon="-4.10927">
        <ele>130.1</ele>
        <time>2021-03-20T16:54:18Z</time>
      </trkpt>
      <trkpt lat="58.54102" lon="-4.11004">
        <ele>131.31</ele>
        <time>2021-03-20T16:54:21Z</time>
      </trkpt>
      <trkpt lat="58.54112" lon="-4.11035">
        <ele>132.03</ele>
        <time>2021-03-20T16:54:24Z</time>
      </trkpt>
      <trkpt lat="58.54119" lon="-4.11076">
        <ele>131.52</ele>
        <time>2021-03-20T16:54:27Z</time>
      </trkpt>
      <trkpt lat="58.5412" lon="-4.11106">
        <ele>131.32</ele>
        <time>2021-03-20T16:54:30Z</time>
      </trkpt>
      <trkpt lat="58.54119" lon="-4.11131">
        <ele>131.27</ele>
        <time>2021-03-20T16:54:33Z</time>
      </trkpt>
      <trkpt lat="58.54114" lon="-4.11162">
        <ele>131.11</ele>
        <time>2021-03-20T16:54:36Z</time>
      </trkpt>
      <trkpt lat="58.54109" lon="-4.11184">
        <ele>131.36</ele>
        <time>2021-03-20T16:54:39Z</time>
      </trkpt>
      <trkpt lat="58.54102" lon="-4.11203">
        <ele>131.07</ele>
        <time>2021-03-20T16:54:42Z</time>
      </trkpt>
      <trkpt lat="58.54087" lon="-4.11229">
        <ele>130.79</ele>
        <time>2021-03-20T16:54:45Z</time>
      </trkpt>
      <trkpt lat="58.54055" lon="-4.11268">
        <ele>132.3</ele>
        <time>2021-03-20T16:54:48Z</time>
      </trkpt>
      <trkpt lat="58.54034" lon="-4.113">
        <ele>133.79</ele>
        <time>2021-03-20T16:54:52Z</time>
      </trkpt>
      <trkpt lat="58.54018" lon="-4.11341">
        <ele>134.95</ele>
        <time>2021-03-20T16:54:55Z</time>
      </trkpt>
      <trkpt lat="58.5401" lon="-4.11388">
        <ele>135.34</ele>
        <time>2021-03-20T16:54:58Z</time>
      </trkpt>
      <trkpt lat="58.53986" lon="-4.11646">
        <ele>136.22</ele>
        <time>2021-03-20T16:55:01Z</time>
      </trkpt>
      <trkpt lat="58.53977" lon="-4.11692">
        <ele>137.9</ele>
        <time>2021-03-20T16:55:04Z</time>
      </trkpt>
      <trkpt lat="58.5396" lon="-4.11746">
        <ele>139.4</ele>
        <time>2021-03-20T16:55:07Z</time>
      </trkpt>
      <trkpt lat="58.5392" lon="-4.11838">
        <ele>139.68</ele>
        <time>2021-03-20T16:55:10Z</time>
      </trkpt>
      <trkpt lat="58.53904" lon="-4.1189">
        <ele>140.13</ele>
        <time>2021-03-20T16:55:13Z</time>
      </trkpt>
      <trkpt lat="58.5389" lon="-4.11946">
        <ele>142.25</ele>
        <time>2021-03-20T16:55:16Z</time>
      </trkpt>
      <trkpt lat="58.53867" lon="-4.12108">
        <ele>147.5</ele>
        <time>2021-03-20T16:55:19Z</time>
      </trkpt>
      <trkpt lat="58.53861" lon="-4.12134">
        <ele>148.64</ele>
        <time>2021-03-20T16:55:22Z</time>
      </trkpt>
      <trkpt lat="58.53852" lon="-4.12163">
        <ele>149.54</ele>
        <time>2021-03-20T16:55:25Z</time>
      </trkpt>
      <trkpt lat="58.53837" lon="-4.122">
        <ele>150.34</ele>
        <time>2021-03-20T16:55:28Z</time>
      </trkpt>
      <trkpt lat="58.53816" lon="-4.1224">
        <ele>150.61</ele>
        <time>2021-03-20T16:55:31Z</time>
      </trkpt>
      <trkpt lat="58.53792" lon="-4.12277">
        <ele>149.51</ele>
        <time>2021-03-20T16:55:34Z</time>
      </trkpt>
      <trkpt lat="58.53777" lon="-4.12296">
        <ele>149.64</ele>
        <time>2021-03-20T16:55:37Z</time>
      </trkpt>
      <trkpt lat="58.53744" lon="-4.12327">
        <ele>150.16</ele>
        <time>2021-03-20T16:55:40Z</time>
      </trkpt>
      <trkpt lat="58.53728" lon="-4.12339">
        <ele>151.05</ele>
        <time>2021-03-20T16:55:44Z</time>
      </trkpt>
      <trkpt lat="58.53696" lon="-4.12357">
        <ele>151.72</ele>
        <time>2021-03-20T16:55:47Z</time>
      </trkpt>
      <trkpt lat="58.53601" lon="-4.12385">
        <ele>154.17</ele>
        <time>2021-03-20T16:55:50Z</time>
      </trkpt>
      <trkpt lat="58.53586" lon="-4.12392">
        <ele>155.01</ele>
        <time>2021-03-20T16:55:53Z</time>
      </trkpt>
      <trkpt lat="58.53572" lon="-4.124">
        <ele>155.41</ele>
        <time>2021-03-20T16:55:56Z</time>
      </trkpt>
      <trkpt lat="58.53552" lon="-4.12421">
        <ele>156.03</ele>
        <time>2021-03-20T16:55:59Z</time>
      </trkpt>
      <trkpt lat="58.53537" lon="-4.12447">
        <ele>156.41</ele>
        <time>2021-03-20T16:56:02Z</time>
      </trkpt>
      <trkpt lat="58.53524" lon="-4.12478">
        <ele>156.74</ele>
        <time>2021-03-20T16:56:05Z</time>
      </trkpt>
      <trkpt lat="58.53489" lon="-4.12598">
        <ele>155.59</ele>
        <time>2021-03-20T16:56:08Z</time>
      </trkpt>
      <trkpt lat="58.53478" lon="-4.12627">
        <ele>155.22</ele>
        <time>2021-03-20T16:56:11Z</time>
      </trkpt>
      <trkpt lat="58.53384" lon="-4.12865">
        <ele>147.44</ele>
        <time>2021-03-20T16:56:14Z</time>
      </trkpt>
      <trkpt lat="58.53371" lon="-4.12909">
        <ele>145.3</ele>
        <time>2021-03-20T16:56:17Z</time>
      </trkpt>
      <trkpt lat="58.53362" lon="-4.12961">
        <ele>142.55</ele>
        <time>2021-03-20T16:56:20Z</time>
      </trkpt>
      <trkpt lat="58.53361" lon="-4.13003">
        <ele>140.88</ele>
        <time>2021-03-20T16:56:23Z</time>
      </trkpt>
      <trkpt lat="58.53364" lon="-4.13109">
        <ele>138.3</ele>
        <time>2021-03-20T16:56:26Z</time>
      </trkpt>
      <trkpt lat="58.53361" lon="-4.13158">
        <ele>136.96</ele>
        <time>2021-03-20T16:56:29Z</time>
      </trkpt>
      <trkpt lat="58.53354" lon="-4.13197">
        <ele>136.92</ele>
        <time>2021-03-20T16:56:33Z</time>
      </trkpt>
      <trkpt lat="58.53344" lon="-4.13229">
        <ele>135.72</ele>
        <time>2021-03-20T16:56:36Z</time>
      </trkpt>
      <trkpt lat="58.53329" lon="-4.13259">
        <ele>134.89</ele>
        <time>2021-03-20T16:56:39Z</time>
      </trkpt>
      <trkpt lat="58.53249" lon="-4.13387">
        <ele>130.96</ele>
        <time>2021-03-20T16:56:42Z</time>
      </trkpt>
      <trkpt lat="58.53236" lon="-4.13419">
        <ele>129.99</ele>
        <time>2021-03-20T16:56:45Z</time>
      </trkpt>
      <trkpt lat="58.53228" lon="-4.1345">
        <ele>129.26</ele>
        <time>2021-03-20T16:56:48Z</time>
      </trkpt>
      <trkpt lat="58.53226" lon="-4.1347">
        <ele>128.43</ele>
        <time>2021-03-20T16:56:51Z</time>
      </trkpt>
      <trkpt lat="58.53223" lon="-4.13512">
        <ele>127.66</ele>
        <time>2021-03-20T16:56:54Z</time>
      </trkpt>
      <trkpt lat="58.53221" lon="-4.13606">
        <ele>124.09</ele>
        <time>2021-03-20T16:56:57Z</time>
      </trkpt>
      <trkpt lat="58.53218" lon="-4.13661">
        <ele>121.89</ele>
        <time>2021-03-20T16:57:00Z</time>
      </trkpt>
      <trkpt lat="58.5321" lon="-4.13701">
        <ele>120.13</ele>
        <time>2021-03-20T16:57:03Z</time>
      </trkpt>
      <trkpt lat="58.53192" lon="-4.1376">
        <ele>118.9</ele>
        <time>2021-03-20T16:57:06Z</time>
      </trkpt>
      <trkpt lat="58.53179" lon="-4.13809">
        <ele>117.86</ele>
        <time>2021-03-20T16:57:09Z</time>
      </trkpt>
      <trkpt lat="58.53174" lon="-4.13833">
        <ele>117.5</ele>
        <time>2021-03-20T16:57:12Z</time>
      </trkpt>
      <trkpt lat="58.53166" lon="-4.13887">
        <ele>115.99</ele>
        <time>2021-03-20T16:57:15Z</time>
      </trkpt>
      <trkpt lat="58.53164" lon="-4.13951">
        <ele>115.59</ele>
        <time>2021-03-20T16:57:18Z</time>
      </trkpt>
      <trkpt lat="58.53166" lon="-4.13982">
        <ele>114.57</ele>
        <time>2021-03-20T16:57:21Z</time>
      </trkpt>
      <trkpt lat="58.53187" lon="-4.14168">
        <ele>109.98</ele>
        <time>2021-03-20T16:57:25Z</time>
      </trkpt>
      <trkpt lat="58.5319" lon="-4.14208">
        <ele>109.14</ele>
        <time>2021-03-20T16:57:28Z</time>
      </trkpt>
      <trkpt lat="58.53191" lon="-4.14236">
        <ele>109.18</ele>
        <time>2021-03-20T16:57:31Z</time>
      </trkpt>
      <trkpt lat="58.53174" lon="-4.14497">
        <ele>106.72</ele>
        <time>2021-03-20T16:57:34Z</time>
      </trkpt>
      <trkpt lat="58.53166" lon="-4.14558">
        <ele>105.97</ele>
        <time>2021-03-20T16:57:37Z</time>
      </trkpt>
      <trkpt lat="58.53157" lon="-4.14593">
        <ele>105.85</ele>
        <time>2021-03-20T16:57:40Z</time>
      </trkpt>
      <trkpt lat="58.53125" lon="-4.14685">
        <ele>108.67</ele>
        <time>2021-03-20T16:57:43Z</time>
      </trkpt>
      <trkpt lat="58.53093" lon="-4.14802">
        <ele>112.03</ele>
        <time>2021-03-20T16:57:46Z</time>
      </trkpt>
      <trkpt lat="58.53077" lon="-4.14858">
        <ele>113.61</ele>
        <time>2021-03-20T16:57:49Z</time>
      </trkpt>
      <trkpt lat="58.5307" lon="-4.14874">
        <ele>114.23</ele>
        <time>2021-03-20T16:57:52Z</time>
      </trkpt>
      <trkpt lat="58.53054" lon="-4.149">
        <ele>116.19</ele>
        <time>2021-03-20T16:57:55Z</time>
      </trkpt>
      <trkpt lat="58.53038" lon="-4.14915">
        <ele>118.6</ele>
        <time>2021-03-20T16:57:58Z</time>
      </trkpt>
      <trkpt lat="58.53029" lon="-4.14919">
        <ele>119.78</ele>
        <time>2021-03-20T16:58:01Z</time>
      </trkpt>
      <trkpt lat="58.53004" lon="-4.14922">
        <ele>122.34</ele>
        <time>2021-03-20T16:58:04Z</time>
      </trkpt>
      <trkpt lat="58.52877" lon="-4.14911">
        <ele>128.2</ele>
        <time>2021-03-20T16:58:07Z</time>
      </trkpt>
      <trkpt lat="58.52841" lon="-4.14911">
        <ele>128.22</ele>
        <time>2021-03-20T16:58:10Z</time>
      </trkpt>
      <trkpt lat="58.52827" lon="-4.14913">
        <ele>128.36</ele>
        <time>2021-03-20T16:58:14Z</time>
      </trkpt>
      <trkpt lat="58.52811" lon="-4.14923">
        <ele>128.57</ele>
        <time>2021-03-20T16:58:17Z</time>
      </trkpt>
      <trkpt lat="58.52798" lon="-4.14942">
        <ele>128.07</ele>
        <time>2021-03-20T16:58:20Z</time>
      </trkpt>
      <trkpt lat="58.52787" lon="-4.14966">
        <ele>128</ele>
        <time>2021-03-20T16:58:23Z</time>
      </trkpt>
      <trkpt lat="58.52774" lon="-4.15011">
        <ele>128.48</ele>
        <time>2021-03-20T16:58:26Z</time>
      </trkpt>
      <trkpt lat="58.52759" lon="-4.151">
        <ele>128.32</ele>
        <time>2021-03-20T16:58:29Z</time>
      </trkpt>
      <trkpt lat="58.52755" lon="-4.15138">
        <ele>127.22</ele>
        <time>2021-03-20T16:58:32Z</time>
      </trkpt>
      <trkpt lat="58.52755" lon="-4.15159">
        <ele>126.56</ele>
        <time>2021-03-20T16:58:35Z</time>
      </trkpt>
      <trkpt lat="58.52757" lon="-4.15202">
        <ele>125.22</ele>
        <time>2021-03-20T16:58:38Z</time>
      </trkpt>
      <trkpt lat="58.52793" lon="-4.15416">
        <ele>115.73</ele>
        <time>2021-03-20T16:58:41Z</time>
      </trkpt>
      <trkpt lat="58.52796" lon="-4.15457">
        <ele>114.09</ele>
        <time>2021-03-20T16:58:44Z</time>
      </trkpt>
      <trkpt lat="58.52794" lon="-4.15494">
        <ele>111.94</ele>
        <time>2021-03-20T16:58:47Z</time>
      </trkpt>
      <trkpt lat="58.52783" lon="-4.15545">
        <ele>108.06</ele>
        <time>2021-03-20T16:58:50Z</time>
      </trkpt>
      <trkpt lat="58.52702" lon="-4.158">
        <ele>91</ele>
        <time>2021-03-20T16:58:53Z</time>
      </trkpt>
      <trkpt lat="58.52688" lon="-4.1585">
        <ele>89.6</ele>
        <time>2021-03-20T16:58:56Z</time>
      </trkpt>
      <trkpt lat="58.52684" lon="-4.15876">
        <ele>90</ele>
        <time>2021-03-20T16:58:59Z</time>
      </trkpt>
      <trkpt lat="58.52681" lon="-4.15902">
        <ele>90.23</ele>
        <time>2021-03-20T16:59:03Z</time>
      </trkpt>
      <trkpt lat="58.52677" lon="-4.15958">
        <ele>89.9</ele>
        <time>2021-03-20T16:59:06Z</time>
      </trkpt>
      <trkpt lat="58.52678" lon="-4.15988">
        <ele>89.39</ele>
        <time>2021-03-20T16:59:09Z</time>
      </trkpt>
      <trkpt lat="58.52682" lon="-4.16042">
        <ele>90</ele>
        <time>2021-03-20T16:59:12Z</time>
      </trkpt>
      <trkpt lat="58.52721" lon="-4.16298">
        <ele>91.33</ele>
        <time>2021-03-20T16:59:15Z</time>
      </trkpt>
      <trkpt lat="58.5273" lon="-4.16377">
        <ele>89.25</ele>
        <time>2021-03-20T16:59:18Z</time>
      </trkpt>
      <trkpt lat="58.52734" lon="-4.16446">
        <ele>87.19</ele>
        <time>2021-03-20T16:59:21Z</time>
      </trkpt>
      <trkpt lat="58.52734" lon="-4.16588">
        <ele>85.49</ele>
        <time>2021-03-20T16:59:24Z</time>
      </trkpt>
      <trkpt lat="58.52738" lon="-4.16683">
        <ele>85.01</ele>
        <time>2021-03-20T16:59:27Z</time>
      </trkpt>
      <trkpt lat="58.52745" lon="-4.16768">
        <ele>86.01</ele>
        <time>2021-03-20T16:59:30Z</time>
      </trkpt>
      <trkpt lat="58.52757" lon="-4.16855">
        <ele>89.73</ele>
        <time>2021-03-20T16:59:33Z</time>
      </trkpt>
      <trkpt lat="58.52771" lon="-4.16924">
        <ele>93.05</ele>
        <time>2021-03-20T16:59:36Z</time>
      </trkpt>
      <trkpt lat="58.52796" lon="-4.1702">
        <ele>94.26</ele>
        <time>2021-03-20T16:59:39Z</time>
      </trkpt>
      <trkpt lat="58.52812" lon="-4.17069">
        <ele>93.73</ele>
        <time>2021-03-20T16:59:42Z</time>
      </trkpt>
      <trkpt lat="58.52886" lon="-4.17262">
        <ele>91.34</ele>
        <time>2021-03-20T16:59:45Z</time>
      </trkpt>
      <trkpt lat="58.529" lon="-4.17307">
        <ele>89.35</ele>
        <time>2021-03-20T16:59:48Z</time>
      </trkpt>
      <trkpt lat="58.52912" lon="-4.17351">
        <ele>88.2</ele>
        <time>2021-03-20T16:59:51Z</time>
      </trkpt>
      <trkpt lat="58.52925" lon="-4.17411">
        <ele>86.15</ele>
        <time>2021-03-20T16:59:55Z</time>
      </trkpt>
      <trkpt lat="58.52931" lon="-4.17449">
        <ele>85.92</ele>
        <time>2021-03-20T16:59:58Z</time>
      </trkpt>
      <trkpt lat="58.52938" lon="-4.17508">
        <ele>85.78</ele>
        <time>2021-03-20T17:00:01Z</time>
      </trkpt>
      <trkpt lat="58.52982" lon="-4.1797">
        <ele>87.4</ele>
        <time>2021-03-20T17:00:04Z</time>
      </trkpt>
      <trkpt lat="58.52989" lon="-4.18057">
        <ele>87.56</ele>
        <time>2021-03-20T17:00:07Z</time>
      </trkpt>
      <trkpt lat="58.52995" lon="-4.18157">
        <ele>86.62</ele>
        <time>2021-03-20T17:00:10Z</time>
      </trkpt>
      <trkpt lat="58.52996" lon="-4.18195">
        <ele>85.85</ele>
        <time>2021-03-20T17:00:13Z</time>
      </trkpt>
      <trkpt lat="58.52996" lon="-4.18578">
        <ele>79.72</ele>
        <time>2021-03-20T17:00:16Z</time>
      </trkpt>
      <trkpt lat="58.53" lon="-4.18864">
        <ele>72.88</ele>
        <time>2021-03-20T17:00:19Z</time>
      </trkpt>
      <trkpt lat="58.52996" lon="-4.19053">
        <ele>70.51</ele>
        <time>2021-03-20T17:00:22Z</time>
      </trkpt>
      <trkpt lat="58.52989" lon="-4.19104">
        <ele>69.75</ele>
        <time>2021-03-20T17:00:25Z</time>
      </trkpt>
      <trkpt lat="58.52934" lon="-4.19315">
        <ele>69.84</ele>
        <time>2021-03-20T17:00:28Z</time>
      </trkpt>
      <trkpt lat="58.5293" lon="-4.19342">
        <ele>70.24</ele>
        <time>2021-03-20T17:00:31Z</time>
      </trkpt>
      <trkpt lat="58.52919" lon="-4.19467">
        <ele>69.35</ele>
        <time>2021-03-20T17:00:34Z</time>
      </trkpt>
      <trkpt lat="58.52917" lon="-4.19524">
        <ele>66.29</ele>
        <time>2021-03-20T17:00:37Z</time>
      </trkpt>
      <trkpt lat="58.52917" lon="-4.19595">
        <ele>61.23</ele>
        <time>2021-03-20T17:00:40Z</time>
      </trkpt>
      <trkpt lat="58.52915" lon="-4.19643">
        <ele>56.75</ele>
        <time>2021-03-20T17:00:44Z</time>
      </trkpt>
      <trkpt lat="58.52907" lon="-4.19722">
        <ele>52.02</ele>
        <time>2021-03-20T17:00:47Z</time>
      </trkpt>
      <trkpt lat="58.52908" lon="-4.19762">
        <ele>49.57</ele>
        <time>2021-03-20T17:00:50Z</time>
      </trkpt>
      <trkpt lat="58.52911" lon="-4.19793">
        <ele>47.87</ele>
        <time>2021-03-20T17:00:53Z</time>
      </trkpt>
      <trkpt lat="58.52918" lon="-4.19824">
        <ele>45.8</ele>
        <time>2021-03-20T17:00:56Z</time>
      </trkpt>
      <trkpt lat="58.52947" lon="-4.19909">
        <ele>39.81</ele>
        <time>2021-03-20T17:00:59Z</time>
      </trkpt>
      <trkpt lat="58.52951" lon="-4.19933">
        <ele>38.69</ele>
        <time>2021-03-20T17:01:02Z</time>
      </trkpt>
      <trkpt lat="58.52952" lon="-4.19952">
        <ele>38.24</ele>
        <time>2021-03-20T17:01:05Z</time>
      </trkpt>
      <trkpt lat="58.52949" lon="-4.19979">
        <ele>38.08</ele>
        <time>2021-03-20T17:01:08Z</time>
      </trkpt>
      <trkpt lat="58.52944" lon="-4.19998">
        <ele>36.99</ele>
        <time>2021-03-20T17:01:11Z</time>
      </trkpt>
      <trkpt lat="58.52908" lon="-4.20083">
        <ele>33.12</ele>
        <time>2021-03-20T17:01:14Z</time>
      </trkpt>
      <trkpt lat="58.52903" lon="-4.20106">
        <ele>32.36</ele>
        <time>2021-03-20T17:01:17Z</time>
      </trkpt>
      <trkpt lat="58.529" lon="-4.20123">
        <ele>31.91</ele>
        <time>2021-03-20T17:01:20Z</time>
      </trkpt>
      <trkpt lat="58.52901" lon="-4.20155">
        <ele>31.93</ele>
        <time>2021-03-20T17:01:23Z</time>
      </trkpt>
      <trkpt lat="58.5292" lon="-4.20318">
        <ele>25.04</ele>
        <time>2021-03-20T17:01:26Z</time>
      </trkpt>
      <trkpt lat="58.52923" lon="-4.20374">
        <ele>21.58</ele>
        <time>2021-03-20T17:01:29Z</time>
      </trkpt>
      <trkpt lat="58.52919" lon="-4.20417">
        <ele>17.49</ele>
        <time>2021-03-20T17:01:32Z</time>
      </trkpt>
      <trkpt lat="58.52907" lon="-4.20472">
        <ele>14.32</ele>
        <time>2021-03-20T17:01:36Z</time>
      </trkpt>
      <trkpt lat="58.52863" lon="-4.20624">
        <ele>12.86</ele>
        <time>2021-03-20T17:01:39Z</time>
      </trkpt>
      <trkpt lat="58.52857" lon="-4.20652">
        <ele>14.4</ele>
        <time>2021-03-20T17:01:42Z</time>
      </trkpt>
      <trkpt lat="58.52853" lon="-4.20678">
        <ele>15.88</ele>
        <time>2021-03-20T17:01:45Z</time>
      </trkpt>
      <trkpt lat="58.52839" lon="-4.20844">
        <ele>18.31</ele>
        <time>2021-03-20T17:01:48Z</time>
      </trkpt>
      <trkpt lat="58.52805" lon="-4.21167">
        <ele>14.11</ele>
        <time>2021-03-20T17:01:51Z</time>
      </trkpt>
      <trkpt lat="58.52804" lon="-4.21196">
        <ele>15.06</ele>
        <time>2021-03-20T17:01:54Z</time>
      </trkpt>
      <trkpt lat="58.52804" lon="-4.21245">
        <ele>16.38</ele>
        <time>2021-03-20T17:01:57Z</time>
      </trkpt>
      <trkpt lat="58.52812" lon="-4.2133">
        <ele>18.41</ele>
        <time>2021-03-20T17:02:00Z</time>
      </trkpt>
      <trkpt lat="58.52813" lon="-4.21351">
        <ele>18.78</ele>
        <time>2021-03-20T17:02:03Z</time>
      </trkpt>
      <trkpt lat="58.52809" lon="-4.21392">
        <ele>20.08</ele>
        <time>2021-03-20T17:02:06Z</time>
      </trkpt>
      <trkpt lat="58.52801" lon="-4.21426">
        <ele>21.29</ele>
        <time>2021-03-20T17:02:09Z</time>
      </trkpt>
      <trkpt lat="58.52784" lon="-4.21462">
        <ele>23.78</ele>
        <time>2021-03-20T17:02:12Z</time>
      </trkpt>
      <trkpt lat="58.52663" lon="-4.21666">
        <ele>31.88</ele>
        <time>2021-03-20T17:02:15Z</time>
      </trkpt>
      <trkpt lat="58.52647" lon="-4.21697">
        <ele>34.46</ele>
        <time>2021-03-20T17:02:18Z</time>
      </trkpt>
      <trkpt lat="58.52628" lon="-4.21744">
        <ele>37.6</ele>
        <time>2021-03-20T17:02:21Z</time>
      </trkpt>
      <trkpt lat="58.5255" lon="-4.21994">
        <ele>53.27</ele>
        <time>2021-03-20T17:02:25Z</time>
      </trkpt>
      <trkpt lat="58.52544" lon="-4.22019">
        <ele>54.84</ele>
        <time>2021-03-20T17:02:28Z</time>
      </trkpt>
      <trkpt lat="58.52539" lon="-4.22124">
        <ele>57.88</ele>
        <time>2021-03-20T17:02:31Z</time>
      </trkpt>
      <trkpt lat="58.52535" lon="-4.22149">
        <ele>59.02</ele>
        <time>2021-03-20T17:02:34Z</time>
      </trkpt>
      <trkpt lat="58.52514" lon="-4.2223">
        <ele>61.44</ele>
        <time>2021-03-20T17:02:37Z</time>
      </trkpt>
      <trkpt lat="58.5249" lon="-4.22333">
        <ele>62.7</ele>
        <time>2021-03-20T17:02:40Z</time>
      </trkpt>
      <trkpt lat="58.52484" lon="-4.22357">
        <ele>62.31</ele>
        <time>2021-03-20T17:02:43Z</time>
      </trkpt>
      <trkpt lat="58.52471" lon="-4.22391">
        <ele>61.97</ele>
        <time>2021-03-20T17:02:46Z</time>
      </trkpt>
      <trkpt lat="58.52454" lon="-4.22417">
        <ele>60.63</ele>
        <time>2021-03-20T17:02:49Z</time>
      </trkpt>
      <trkpt lat="58.52446" lon="-4.22427">
        <ele>60.25</ele>
        <time>2021-03-20T17:02:52Z</time>
      </trkpt>
      <trkpt lat="58.52416" lon="-4.22451">
        <ele>57.77</ele>
        <time>2021-03-20T17:02:55Z</time>
      </trkpt>
      <trkpt lat="58.52305" lon="-4.22526">
        <ele>46.22</ele>
        <time>2021-03-20T17:02:58Z</time>
      </trkpt>
      <trkpt lat="58.5229" lon="-4.22531">
        <ele>44.55</ele>
        <time>2021-03-20T17:03:01Z</time>
      </trkpt>
      <trkpt lat="58.52261" lon="-4.22525">
        <ele>43.18</ele>
        <time>2021-03-20T17:03:04Z</time>
      </trkpt>
      <trkpt lat="58.52223" lon="-4.22509">
        <ele>41.11</ele>
        <time>2021-03-20T17:03:07Z</time>
      </trkpt>
      <trkpt lat="58.52197" lon="-4.22491">
        <ele>39.33</ele>
        <time>2021-03-20T17:03:10Z</time>
      </trkpt>
      <trkpt lat="58.52129" lon="-4.22426">
        <ele>38.67</ele>
        <time>2021-03-20T17:03:14Z</time>
      </trkpt>
      <trkpt lat="58.52056" lon="-4.22368">
        <ele>34.25</ele>
        <time>2021-03-20T17:03:17Z</time>
      </trkpt>
      <trkpt lat="58.52041" lon="-4.22353">
        <ele>33.71</ele>
        <time>2021-03-20T17:03:20Z</time>
      </trkpt>
      <trkpt lat="58.52016" lon="-4.22318">
        <ele>32.88</ele>
        <time>2021-03-20T17:03:23Z</time>
      </trkpt>
      <trkpt lat="58.5194" lon="-4.22203">
        <ele>29.02</ele>
        <time>2021-03-20T17:03:26Z</time>
      </trkpt>
      <trkpt lat="58.5192" lon="-4.22187">
        <ele>28.77</ele>
        <time>2021-03-20T17:03:29Z</time>
      </trkpt>
      <trkpt lat="58.51814" lon="-4.22163">
        <ele>23.77</ele>
        <time>2021-03-20T17:03:32Z</time>
      </trkpt>
      <trkpt lat="58.5178" lon="-4.22152">
        <ele>22.74</ele>
        <time>2021-03-20T17:03:35Z</time>
      </trkpt>
      <trkpt lat="58.51733" lon="-4.22133">
        <ele>21.39</ele>
        <time>2021-03-20T17:03:38Z</time>
      </trkpt>
      <trkpt lat="58.51712" lon="-4.22122">
        <ele>20.62</ele>
        <time>2021-03-20T17:03:41Z</time>
      </trkpt>
      <trkpt lat="58.51689" lon="-4.22107">
        <ele>19.91</ele>
        <time>2021-03-20T17:03:44Z</time>
      </trkpt>
      <trkpt lat="58.51578" lon="-4.21981">
        <ele>20.2</ele>
        <time>2021-03-20T17:03:47Z</time>
      </trkpt>
      <trkpt lat="58.51552" lon="-4.21956">
        <ele>19.52</ele>
        <time>2021-03-20T17:03:50Z</time>
      </trkpt>
      <trkpt lat="58.51342" lon="-4.21786">
        <ele>15.24</ele>
        <time>2021-03-20T17:03:53Z</time>
      </trkpt>
      <trkpt lat="58.51252" lon="-4.21698">
        <ele>12.91</ele>
        <time>2021-03-20T17:03:56Z</time>
      </trkpt>
      <trkpt lat="58.51224" lon="-4.21665">
        <ele>14.31</ele>
        <time>2021-03-20T17:03:59Z</time>
      </trkpt>
      <trkpt lat="58.51122" lon="-4.21517">
        <ele>12.41</ele>
        <time>2021-03-20T17:04:02Z</time>
      </trkpt>
      <trkpt lat="58.51108" lon="-4.21501">
        <ele>11.44</ele>
        <time>2021-03-20T17:04:06Z</time>
      </trkpt>
      <trkpt lat="58.511" lon="-4.21497">
        <ele>10.79</ele>
        <time>2021-03-20T17:04:09Z</time>
      </trkpt>
      <trkpt lat="58.5109" lon="-4.21498">
        <ele>9.24</ele>
        <time>2021-03-20T17:04:12Z</time>
      </trkpt>
      <trkpt lat="58.51082" lon="-4.21504">
        <ele>7.49</ele>
        <time>2021-03-20T17:04:15Z</time>
      </trkpt>
      <trkpt lat="58.51076" lon="-4.21514">
        <ele>6.36</ele>
        <time>2021-03-20T17:04:18Z</time>
      </trkpt>
      <trkpt lat="58.51032" lon="-4.21693">
        <ele>5.83</ele>
        <time>2021-03-20T17:04:21Z</time>
      </trkpt>
      <trkpt lat="58.51027" lon="-4.21707">
        <ele>6.09</ele>
        <time>2021-03-20T17:04:24Z</time>
      </trkpt>
      <trkpt lat="58.51015" lon="-4.21727">
        <ele>6.77</ele>
        <time>2021-03-20T17:04:27Z</time>
      </trkpt>
      <trkpt lat="58.50997" lon="-4.21747">
        <ele>7.34</ele>
        <time>2021-03-20T17:04:30Z</time>
      </trkpt>
      <trkpt lat="58.50942" lon="-4.21796">
        <ele>11.66</ele>
        <time>2021-03-20T17:04:33Z</time>
      </trkpt>
      <trkpt lat="58.50926" lon="-4.21816">
        <ele>12</ele>
        <time>2021-03-20T17:04:36Z</time>
      </trkpt>
      <trkpt lat="58.50854" lon="-4.21943">
        <ele>13.24</ele>
        <time>2021-03-20T17:04:39Z</time>
      </trkpt>
      <trkpt lat="58.50829" lon="-4.2198">
        <ele>15.44</ele>
        <time>2021-03-20T17:04:42Z</time>
      </trkpt>
      <trkpt lat="58.50807" lon="-4.21999">
        <ele>16.93</ele>
        <time>2021-03-20T17:04:45Z</time>
      </trkpt>
      <trkpt lat="58.50781" lon="-4.22008">
        <ele>17.3</ele>
        <time>2021-03-20T17:04:48Z</time>
      </trkpt>
      <trkpt lat="58.50706" lon="-4.22004">
        <ele>16.06</ele>
        <time>2021-03-20T17:04:51Z</time>
      </trkpt>
      <trkpt lat="58.50672" lon="-4.21995">
        <ele>16</ele>
        <time>2021-03-20T17:04:55Z</time>
      </trkpt>
      <trkpt lat="58.5059" lon="-4.21958">
        <ele>19</ele>
        <time>2021-03-20T17:04:58Z</time>
      </trkpt>
      <trkpt lat="58.50497" lon="-4.21897">
        <ele>16.58</ele>
        <time>2021-03-20T17:05:01Z</time>
      </trkpt>
      <trkpt lat="58.50339" lon="-4.21826">
        <ele>18.61</ele>
        <time>2021-03-20T17:05:04Z</time>
      </trkpt>
      <trkpt lat="58.503" lon="-4.21796">
        <ele>20.06</ele>
        <time>2021-03-20T17:05:07Z</time>
      </trkpt>
      <trkpt lat="58.50255" lon="-4.21757">
        <ele>20.26</ele>
        <time>2021-03-20T17:05:10Z</time>
      </trkpt>
      <trkpt lat="58.50227" lon="-4.21741">
        <ele>19.53</ele>
        <time>2021-03-20T17:05:13Z</time>
      </trkpt>
      <trkpt lat="58.50152" lon="-4.21717">
        <ele>22.03</ele>
        <time>2021-03-20T17:05:16Z</time>
      </trkpt>
      <trkpt lat="58.50122" lon="-4.21716">
        <ele>23.2</ele>
        <time>2021-03-20T17:05:19Z</time>
      </trkpt>
      <trkpt lat="58.50025" lon="-4.21745">
        <ele>26.64</ele>
        <time>2021-03-20T17:05:22Z</time>
      </trkpt>
      <trkpt lat="58.49997" lon="-4.21748">
        <ele>27.86</ele>
        <time>2021-03-20T17:05:25Z</time>
      </trkpt>
      <trkpt lat="58.49936" lon="-4.21736">
        <ele>28.79</ele>
        <time>2021-03-20T17:05:28Z</time>
      </trkpt>
      <trkpt lat="58.49776" lon="-4.21729">
        <ele>29</ele>
        <time>2021-03-20T17:05:31Z</time>
      </trkpt>
      <trkpt lat="58.4968" lon="-4.21706">
        <ele>25.69</ele>
        <time>2021-03-20T17:05:34Z</time>
      </trkpt>
      <trkpt lat="58.49593" lon="-4.21657">
        <ele>20</ele>
        <time>2021-03-20T17:05:37Z</time>
      </trkpt>
      <trkpt lat="58.49537" lon="-4.21618">
        <ele>18.45</ele>
        <time>2021-03-20T17:05:40Z</time>
      </trkpt>
      <trkpt lat="58.49469" lon="-4.21566">
        <ele>16.97</ele>
        <time>2021-03-20T17:05:43Z</time>
      </trkpt>
      <trkpt lat="58.4943" lon="-4.21539">
        <ele>17.53</ele>
        <time>2021-03-20T17:05:47Z</time>
      </trkpt>
      <trkpt lat="58.49397" lon="-4.21521">
        <ele>16.92</ele>
        <time>2021-03-20T17:05:50Z</time>
      </trkpt>
      <trkpt lat="58.49375" lon="-4.21511">
        <ele>16.66</ele>
        <time>2021-03-20T17:05:53Z</time>
      </trkpt>
      <trkpt lat="58.4929" lon="-4.21483">
        <ele>20.39</ele>
        <time>2021-03-20T17:05:56Z</time>
      </trkpt>
      <trkpt lat="58.49204" lon="-4.21449">
        <ele>23.74</ele>
        <time>2021-03-20T17:05:59Z</time>
      </trkpt>
      <trkpt lat="58.49181" lon="-4.2143">
        <ele>24.7</ele>
        <time>2021-03-20T17:06:02Z</time>
      </trkpt>
      <trkpt lat="58.49163" lon="-4.21412">
        <ele>24.69</ele>
        <time>2021-03-20T17:06:05Z</time>
      </trkpt>
      <trkpt lat="58.49098" lon="-4.21337">
        <ele>22.99</ele>
        <time>2021-03-20T17:06:08Z</time>
      </trkpt>
      <trkpt lat="58.49062" lon="-4.21311">
        <ele>22.96</ele>
        <time>2021-03-20T17:06:11Z</time>
      </trkpt>
      <trkpt lat="58.4895" lon="-4.21257">
        <ele>18.34</ele>
        <time>2021-03-20T17:06:14Z</time>
      </trkpt>
      <trkpt lat="58.4891" lon="-4.21243">
        <ele>19.58</ele>
        <time>2021-03-20T17:06:17Z</time>
      </trkpt>
      <trkpt lat="58.48851" lon="-4.21235">
        <ele>21.76</ele>
        <time>2021-03-20T17:06:20Z</time>
      </trkpt>
      <trkpt lat="58.48815" lon="-4.21239">
        <ele>24.89</ele>
        <time>2021-03-20T17:06:23Z</time>
      </trkpt>
      <trkpt lat="58.48772" lon="-4.21255">
        <ele>28.59</ele>
        <time>2021-03-20T17:06:26Z</time>
      </trkpt>
      <trkpt lat="58.48748" lon="-4.2127">
        <ele>30.9</ele>
        <time>2021-03-20T17:06:29Z</time>
      </trkpt>
      <trkpt lat="58.48726" lon="-4.21295">
        <ele>34.59</ele>
        <time>2021-03-20T17:06:32Z</time>
      </trkpt>
      <trkpt lat="58.48713" lon="-4.21317">
        <ele>36.48</ele>
        <time>2021-03-20T17:06:36Z</time>
      </trkpt>
      <trkpt lat="58.48529" lon="-4.21673">
        <ele>57.19</ele>
        <time>2021-03-20T17:06:39Z</time>
      </trkpt>
      <trkpt lat="58.48515" lon="-4.21716">
        <ele>61.28</ele>
        <time>2021-03-20T17:06:42Z</time>
      </trkpt>
      <trkpt lat="58.48508" lon="-4.21741">
        <ele>63.86</ele>
        <time>2021-03-20T17:06:45Z</time>
      </trkpt>
      <trkpt lat="58.485" lon="-4.21797">
        <ele>69.05</ele>
        <time>2021-03-20T17:06:48Z</time>
      </trkpt>
      <trkpt lat="58.48493" lon="-4.21913">
        <ele>76.78</ele>
        <time>2021-03-20T17:06:51Z</time>
      </trkpt>
      <trkpt lat="58.48484" lon="-4.21995">
        <ele>80.03</ele>
        <time>2021-03-20T17:06:54Z</time>
      </trkpt>
      <trkpt lat="58.48458" lon="-4.22202">
        <ele>84.77</ele>
        <time>2021-03-20T17:06:57Z</time>
      </trkpt>
      <trkpt lat="58.48453" lon="-4.22261">
        <ele>86.33</ele>
        <time>2021-03-20T17:07:00Z</time>
      </trkpt>
      <trkpt lat="58.48443" lon="-4.22854">
        <ele>104.83</ele>
        <time>2021-03-20T17:07:03Z</time>
      </trkpt>
      <trkpt lat="58.48447" lon="-4.23082">
        <ele>116.99</ele>
        <time>2021-03-20T17:07:06Z</time>
      </trkpt>
      <trkpt lat="58.48443" lon="-4.23161">
        <ele>120.78</ele>
        <time>2021-03-20T17:07:09Z</time>
      </trkpt>
      <trkpt lat="58.48445" lon="-4.23227">
        <ele>122.17</ele>
        <time>2021-03-20T17:07:12Z</time>
      </trkpt>
      <trkpt lat="58.48452" lon="-4.23282">
        <ele>123.31</ele>
        <time>2021-03-20T17:07:15Z</time>
      </trkpt>
      <trkpt lat="58.48454" lon="-4.23362">
        <ele>124.71</ele>
        <time>2021-03-20T17:07:18Z</time>
      </trkpt>
      <trkpt lat="58.48452" lon="-4.23413">
        <ele>124.57</ele>
        <time>2021-03-20T17:07:21Z</time>
      </trkpt>
      <trkpt lat="58.48439" lon="-4.23566">
        <ele>127.17</ele>
        <time>2021-03-20T17:07:25Z</time>
      </trkpt>
      <trkpt lat="58.48438" lon="-4.23624">
        <ele>128.5</ele>
        <time>2021-03-20T17:07:28Z</time>
      </trkpt>
      <trkpt lat="58.4844" lon="-4.23688">
        <ele>128.69</ele>
        <time>2021-03-20T17:07:31Z</time>
      </trkpt>
      <trkpt lat="58.48446" lon="-4.23742">
        <ele>129.14</ele>
        <time>2021-03-20T17:07:34Z</time>
      </trkpt>
      <trkpt lat="58.48446" lon="-4.2381">
        <ele>130.29</ele>
        <time>2021-03-20T17:07:37Z</time>
      </trkpt>
      <trkpt lat="58.48439" lon="-4.23872">
        <ele>133</ele>
        <time>2021-03-20T17:07:40Z</time>
      </trkpt>
      <trkpt lat="58.48417" lon="-4.2401">
        <ele>137.4</ele>
        <time>2021-03-20T17:07:43Z</time>
      </trkpt>
      <trkpt lat="58.48409" lon="-4.24108">
        <ele>140.78</ele>
        <time>2021-03-20T17:07:46Z</time>
      </trkpt>
      <trkpt lat="58.48396" lon="-4.24307">
        <ele>146.2</ele>
        <time>2021-03-20T17:07:49Z</time>
      </trkpt>
      <trkpt lat="58.48383" lon="-4.24433">
        <ele>154.79</ele>
        <time>2021-03-20T17:07:52Z</time>
      </trkpt>
      <trkpt lat="58.48381" lon="-4.24499">
        <ele>156.4</ele>
        <time>2021-03-20T17:07:55Z</time>
      </trkpt>
      <trkpt lat="58.48381" lon="-4.24696">
        <ele>154.45</ele>
        <time>2021-03-20T17:07:58Z</time>
      </trkpt>
      <trkpt lat="58.48374" lon="-4.24779">
        <ele>153.4</ele>
        <time>2021-03-20T17:08:01Z</time>
      </trkpt>
      <trkpt lat="58.48372" lon="-4.24928">
        <ele>151.4</ele>
        <time>2021-03-20T17:08:04Z</time>
      </trkpt>
      <trkpt lat="58.48379" lon="-4.24969">
        <ele>151.07</ele>
        <time>2021-03-20T17:08:07Z</time>
      </trkpt>
      <trkpt lat="58.48398" lon="-4.25023">
        <ele>150.22</ele>
        <time>2021-03-20T17:08:10Z</time>
      </trkpt>
      <trkpt lat="58.48413" lon="-4.25055">
        <ele>149.01</ele>
        <time>2021-03-20T17:08:13Z</time>
      </trkpt>
      <trkpt lat="58.48494" lon="-4.25167">
        <ele>146.42</ele>
        <time>2021-03-20T17:08:17Z</time>
      </trkpt>
      <trkpt lat="58.48537" lon="-4.25245">
        <ele>143.36</ele>
        <time>2021-03-20T17:08:20Z</time>
      </trkpt>
      <trkpt lat="58.48557" lon="-4.25353">
        <ele>141.24</ele>
        <time>2021-03-20T17:08:23Z</time>
      </trkpt>
      <trkpt lat="58.48579" lon="-4.25562">
        <ele>137.39</ele>
        <time>2021-03-20T17:08:26Z</time>
      </trkpt>
      <trkpt lat="58.48589" lon="-4.25624">
        <ele>138.04</ele>
        <time>2021-03-20T17:08:29Z</time>
      </trkpt>
      <trkpt lat="58.48617" lon="-4.25722">
        <ele>136.77</ele>
        <time>2021-03-20T17:08:32Z</time>
      </trkpt>
      <trkpt lat="58.48643" lon="-4.25822">
        <ele>133.85</ele>
        <time>2021-03-20T17:08:35Z</time>
      </trkpt>
      <trkpt lat="58.48651" lon="-4.25882">
        <ele>131.81</ele>
        <time>2021-03-20T17:08:38Z</time>
      </trkpt>
      <trkpt lat="58.48665" lon="-4.25965">
        <ele>128.35</ele>
        <time>2021-03-20T17:08:41Z</time>
      </trkpt>
      <trkpt lat="58.48686" lon="-4.26058">
        <ele>125.9</ele>
        <time>2021-03-20T17:08:44Z</time>
      </trkpt>
      <trkpt lat="58.48747" lon="-4.26233">
        <ele>116.82</ele>
        <time>2021-03-20T17:08:47Z</time>
      </trkpt>
      <trkpt lat="58.48796" lon="-4.26385">
        <ele>108.64</ele>
        <time>2021-03-20T17:08:50Z</time>
      </trkpt>
      <trkpt lat="58.48829" lon="-4.26479">
        <ele>101.36</ele>
        <time>2021-03-20T17:08:53Z</time>
      </trkpt>
      <trkpt lat="58.48879" lon="-4.26571">
        <ele>96.36</ele>
        <time>2021-03-20T17:08:56Z</time>
      </trkpt>
      <trkpt lat="58.48909" lon="-4.26618">
        <ele>94.47</ele>
        <time>2021-03-20T17:08:59Z</time>
      </trkpt>
      <trkpt lat="58.48987" lon="-4.26681">
        <ele>88.48</ele>
        <time>2021-03-20T17:09:02Z</time>
      </trkpt>
      <trkpt lat="58.49001" lon="-4.26695">
        <ele>86.99</ele>
        <time>2021-03-20T17:09:06Z</time>
      </trkpt>
      <trkpt lat="58.4908" lon="-4.26805">
        <ele>73.96</ele>
        <time>2021-03-20T17:09:09Z</time>
      </trkpt>
      <trkpt lat="58.49142" lon="-4.26884">
        <ele>67.51</ele>
        <time>2021-03-20T17:09:12Z</time>
      </trkpt>
      <trkpt lat="58.49269" lon="-4.27001">
        <ele>52.25</ele>
        <time>2021-03-20T17:09:15Z</time>
      </trkpt>
      <trkpt lat="58.49331" lon="-4.27074">
        <ele>45.48</ele>
        <time>2021-03-20T17:09:18Z</time>
      </trkpt>
      <trkpt lat="58.49462" lon="-4.27248">
        <ele>34.07</ele>
        <time>2021-03-20T17:09:21Z</time>
      </trkpt>
      <trkpt lat="58.49498" lon="-4.2734">
        <ele>31.75</ele>
        <time>2021-03-20T17:09:24Z</time>
      </trkpt>
      <trkpt lat="58.49509" lon="-4.27375">
        <ele>31</ele>
        <time>2021-03-20T17:09:27Z</time>
      </trkpt>
      <trkpt lat="58.49525" lon="-4.27439">
        <ele>30</ele>
        <time>2021-03-20T17:09:30Z</time>
      </trkpt>
      <trkpt lat="58.49544" lon="-4.27535">
        <ele>28.41</ele>
        <time>2021-03-20T17:09:33Z</time>
      </trkpt>
      <trkpt lat="58.49573" lon="-4.27695">
        <ele>26.77</ele>
        <time>2021-03-20T17:09:36Z</time>
      </trkpt>
      <trkpt lat="58.49605" lon="-4.27847">
        <ele>26.57</ele>
        <time>2021-03-20T17:09:39Z</time>
      </trkpt>
      <trkpt lat="58.49647" lon="-4.28029">
        <ele>28.43</ele>
        <time>2021-03-20T17:09:42Z</time>
      </trkpt>
      <trkpt lat="58.49656" lon="-4.28086">
        <ele>29.64</ele>
        <time>2021-03-20T17:09:45Z</time>
      </trkpt>
      <trkpt lat="58.49662" lon="-4.28215">
        <ele>30.64</ele>
        <time>2021-03-20T17:09:48Z</time>
      </trkpt>
      <trkpt lat="58.49659" lon="-4.28283">
        <ele>30.88</ele>
        <time>2021-03-20T17:09:51Z</time>
      </trkpt>
      <trkpt lat="58.49642" lon="-4.28514">
        <ele>32.18</ele>
        <time>2021-03-20T17:09:54Z</time>
      </trkpt>
      <trkpt lat="58.4964" lon="-4.28584">
        <ele>30.88</ele>
        <time>2021-03-20T17:09:58Z</time>
      </trkpt>
      <trkpt lat="58.49644" lon="-4.286">
        <ele>30.12</ele>
        <time>2021-03-20T17:10:00Z</time>
      </trkpt>
      <trkpt lat="58.49662" lon="-4.28644">
        <ele>29.83</ele>
        <time>2021-03-20T17:10:02Z</time>
      </trkpt>
      <trkpt lat="58.49665" lon="-4.2866">
        <ele>29.95</ele>
        <time>2021-03-20T17:10:04Z</time>
      </trkpt>
      <trkpt lat="58.49667" lon="-4.28712">
        <ele>33.41</ele>
        <time>2021-03-20T17:10:06Z</time>
      </trkpt>
      <trkpt lat="58.49671" lon="-4.28726">
        <ele>35.28</ele>
        <time>2021-03-20T17:10:08Z</time>
      </trkpt>
      <trkpt lat="58.49697" lon="-4.28672">
        <ele>36.05</ele>
        <time>2021-03-20T17:10:14Z</time>
      </trkpt>
      <trkpt lat="58.49713" lon="-4.28631">
        <ele>35.67</ele>
        <time>2021-03-20T17:10:20Z</time>
      </trkpt>
      <trkpt lat="58.49739" lon="-4.28551">
        <ele>37.81</ele>
        <time>2021-03-20T17:10:26Z</time>
      </trkpt>
      <trkpt lat="58.49747" lon="-4.28506">
        <ele>36.97</ele>
        <time>2021-03-20T17:10:32Z</time>
      </trkpt>
      <trkpt lat="58.49765" lon="-4.28385">
        <ele>38.01</ele>
        <time>2021-03-20T17:10:38Z</time>
      </trkpt>
      <trkpt lat="58.49776" lon="-4.28326">
        <ele>36.42</ele>
        <time>2021-03-20T17:10:44Z</time>
      </trkpt>
      <trkpt lat="58.49803" lon="-4.28238">
        <ele>38.55</ele>
        <time>2021-03-20T17:10:50Z</time>
      </trkpt>
      <trkpt lat="58.49851" lon="-4.28109">
        <ele>39.15</ele>
        <time>2021-03-20T17:10:56Z</time>
      </trkpt>
      <trkpt lat="58.4987" lon="-4.28063">
        <ele>38.17</ele>
        <time>2021-03-20T17:11:02Z</time>
      </trkpt>
      <trkpt lat="58.5003" lon="-4.27824">
        <ele>37.48</ele>
        <time>2021-03-20T17:11:08Z</time>
      </trkpt>
      <trkpt lat="58.50125" lon="-4.27709">
        <ele>36.53</ele>
        <time>2021-03-20T17:11:14Z</time>
      </trkpt>
      <trkpt lat="58.5032" lon="-4.2751">
        <ele>35.62</ele>
        <time>2021-03-20T17:11:20Z</time>
      </trkpt>
    </trkseg>
  </trk>
</gpx>